[[{"header":{"parameterUnit":"m.s-1","parameterCategory":1,"la1":30.6,"la2":28.766,"lo1":-90.7593,"lo2":-88.6598,"dy":0.0162,"dx":0.0183,"nx":116,"ny":114,"refTime":"2023-11-01T06:00:00:Z","depth":0,"parameterNumber":2,"parameterNumberName":"U-component_of_WINDS"},"data":[0.0,0.0,0.0,0.0,0.0,0.0,0.0,0.0,0.0,0.0,0.0,0.0,0.0,0.0,0.0,0.0,0.0,0.0,0.0,0.0,0.0,0.0,0.0,0.0,0.0,0.0,0.0,0.0,0.0,0.0,0.0,0.0,0.0,0.0,0.0,0.0,0.0,0.0,0.0,0.0,0.0,0.0,0.0,0.0,0.0,0.0,0.0,0.0,0.0,0.0,0.0,0.0,0.0,0.0,0.0,0.0,0.0,0.0,0.0,0.0,0.0,0.0,0.0,0.0,0.0,0.0,0.0,0.0,0.0,0.0,0.0,0.0,0.0,0.0,0.0,0.0,0.0,0.0,0.0,0.0,0.0,0.0,0.0,0.0,0.0,0.0,0.0,0.0,0.0,0.0,0.0,0.0,0.0,0.0,0.0,0.0,0.0,0.0,0.0,0.0,0.0,0.0,0.0,0.0,0.0,0.0,0.0,0.0,0.0,0.0,0.0,0.0,0.0,0.0,0.0,0.0,0.0,0.0,0.0,0.0,0.0,0.0,0.0,0.0,0.0,0.0,0.0,0.0,0.0,0.0,0.0,0.0,0.0,0.0,0.0,0.0,0.0,0.0,0.0,0.0,0.0,0.0,0.0,0.0,0.0,0.0,0.0,0.0,0.0,0.0,0.0,0.0,0.0,0.0,0.0,0.0,0.0,0.0,0.0,0.0,0.0,0.0,0.0,0.0,0.0,0.0,0.0,0.0,0.0,0.0,0.0,0.0,0.0,0.0,0.0,0.0,0.0,0.0,0.0,0.0,0.0,0.0,0.0,0.0,0.0,0.0,0.0,0.0,0.0,0.0,0.0,0.0,0.0,0.0,0.0,0.0,0.0,0.0,0.0,0.0,0.0,0.0,0.0,0.0,0.0,0.0,0.0,0.0,0.0,0.0,0.0,0.0,0.0,0.0,0.0,0.0,0.0,0.0,0.0,0.0,0.0,0.0,0.0,0.0,0.0,0.0,0.0,0.0,0.0,0.0,0.0,0.0,0.0,0.0,0.0,0.0,0.0,0.0,0.0,0.0,0.0,0.0,0.0,0.0,0.0,0.0,0.0,0.0,0.0,0.0,0.0,0.0,0.0,0.0,0.0,0.0,0.0,0.0,0.0,0.0,0.0,0.0,0.0,0.0,0.0,0.0,0.0,0.0,0.0,0.0,0.0,0.0,0.0,0.0,0.0,0.0,0.0,0.0,0.0,0.0,0.0,0.0,0.0,0.0,0.0,0.0,0.0,0.0,0.0,0.0,0.0,0.0,0.0,0.0,0.0,0.0,0.0,0.0,0.0,0.0,0.0,0.0,0.0,0.0,0.0,0.0,0.0,0.0,0.0,0.0,0.0,0.0,0.0,0.0,0.0,0.0,0.0,0.0,0.0,0.0,0.0,0.0,0.0,0.0,0.0,0.0,0.0,0.0,0.0,0.0,0.0,0.0,0.0,0.0,0.0,0.0,0.0,0.0,0.0,0.0,0.0,0.0,0.0,0.0,0.0,0.0,0.0,0.0,0.0,0.0,0.0,0.0,0.0,0.0,0.0,0.0,0.0,0.0,0.0,0.0,0.0,0.0,0.0,0.0,0.0,0.0,0.0,0.0,0.0,0.0,0.0,0.0,0.0,0.0,0.0,0.0,0.0,0.0,0.0,0.0,0.0,0.0,0.0,0.0,0.0,0.0,0.0,0.0,0.0,0.0,0.0,0.0,0.0,0.0,0.0,0.0,0.0,0.0,0.0,0.0,0.0,0.0,0.0,0.0,0.0,0.0,0.0,0.0,0.0,0.0,0.0,0.0,0.0,0.0,0.0,0.0,0.0,0.0,0.0,0.0,0.0,0.0,0.0,0.0,0.0,0.0,0.0,0.0,0.0,0.0,0.0,0.0,0.0,0.0,0.0,0.0,0.0,0.0,0.0,0.0,0.0,0.0,0.0,0.0,0.0,0.0,0.0,0.0,0.0,0.0,0.0,0.0,0.0,0.0,0.0,0.0,0.0,0.0,0.0,0.0,0.0,0.0,0.0,0.0,0.0,0.0,0.0,0.0,0.0,0.0,0.0,0.0,0.0,0.0,0.0,0.0,0.0,0.0,0.0,0.0,0.0,0.0,0.0,0.0,0.0,0.0,0.0,0.0,0.0,0.0,0.0,0.0,0.0,0.0,0.0,0.0,0.0,0.0,0.0,0.0,0.0,0.0,0.0,0.0,0.0,0.0,0.0,0.0,0.0,0.0,0.0,0.0,0.0,0.0,0.0,0.0,0.0,0.0,0.0,0.0,0.0,0.0,0.0,0.0,0.0,0.0,0.0,0.0,0.0,0.0,0.0,0.0,0.0,0.0,0.0,0.0,0.0,0.0,0.0,0.0,0.0,0.0,0.0,0.0,0.0,0.0,0.0,0.0,0.0,0.0,0.0,0.0,0.0,0.0,0.0,0.0,0.0,0.0,0.0,0.0,0.0,0.0,0.0,0.0,0.0,0.0,0.0,0.0,0.0,0.0,0.0,0.0,0.0,0.0,0.0,0.0,0.0,0.0,0.0,0.0,0.0,0.0,0.0,0.0,0.0,0.0,0.0,0.0,0.0,0.0,0.0,0.0,0.0,0.0,0.0,0.0,0.0,0.0,0.0,0.0,0.0,0.0,0.0,0.0,0.0,0.0,0.0,0.0,0.0,0.0,0.0,0.0,0.0,0.0,0.0,0.0,0.0,0.0,0.0,0.0,0.0,0.0,0.0,0.0,0.0,0.0,0.0,0.0,0.0,0.0,0.0,0.0,0.0,0.0,0.0,0.0,0.0,0.0,0.0,0.0,0.0,0.0,0.0,0.0,0.0,0.0,0.0,0.0,0.0,0.0,0.0,0.0,0.0,0.0,0.0,0.0,0.0,0.0,0.0,0.0,0.0,0.0,0.0,0.0,0.0,0.0,0.0,0.0,0.0,0.0,0.0,0.0,0.0,0.0,0.0,0.0,0.0,0.0,0.0,0.0,0.0,0.0,0.0,0.0,0.0,0.0,0.0,0.0,0.0,0.0,0.0,0.0,0.0,0.0,0.0,0.0,0.0,0.0,0.0,0.0,0.0,0.0,0.0,0.0,0.0,0.0,0.0,0.0,0.0,0.0,0.0,0.0,0.0,0.0,0.0,0.0,0.0,0.0,0.0,0.0,0.0,0.0,0.0,0.0,0.0,0.0,0.0,0.0,0.0,0.0,0.0,0.0,0.0,0.0,0.0,0.0,0.0,0.0,0.0,0.0,0.0,0.0,0.0,0.0,0.0,0.0,0.0,0.0,0.0,0.0,0.0,0.0,0.0,0.0,0.0,0.0,0.0,0.0,0.0,0.0,0.0,0.0,0.0,0.0,0.0,0.0,0.0,0.0,0.0,0.0,0.0,0.0,0.0,0.0,0.0,0.0,0.0,0.0,0.0,0.0,0.0,0.0,0.0,0.0,0.0,0.0,0.0,0.0,0.0,0.0,0.0,0.0,0.0,0.0,0.0,0.0,0.0,0.0,0.0,0.0,0.0,0.0,0.0,0.0,0.0,0.0,0.0,0.0,0.0,0.0,0.0,0.0,0.0,0.0,0.0,0.0,0.0,0.0,0.0,0.0,0.0,0.0,0.0,0.0,0.0,0.0,0.0,0.0,0.0,0.0,0.0,0.0,0.0,0.0,0.0,0.0,0.0,0.0,0.0,0.0,0.0,0.0,0.0,0.0,0.0,0.0,0.0,0.0,0.0,0.0,0.0,0.0,0.0,0.0,0.0,0.0,0.0,0.0,0.0,0.0,0.0,0.0,0.0,0.0,0.0,0.0,0.0,0.0,0.0,0.0,0.0,0.0,0.0,0.0,0.0,0.0,0.0,0.0,0.0,0.0,0.0,0.0,0.0,0.0,0.0,0.0,0.0,0.0,0.0,0.0,0.0,0.0,0.0,0.0,0.0,0.0,0.0,0.0,0.0,0.0,0.0,0.0,0.0,0.0,0.0,0.0,0.0,0.0,0.0,0.0,0.0,0.0,0.0,0.0,0.0,0.0,0.0,0.0,0.0,0.0,0.0,0.0,0.0,0.0,0.0,0.0,0.0,0.0,0.0,0.0,0.0,0.0,0.0,0.0,0.0,0.0,0.0,0.0,0.0,0.0,0.0,0.0,0.0,0.0,0.0,0.0,0.0,0.0,0.0,0.0,0.0,0.0,0.0,0.0,0.0,0.0,0.0,0.0,0.0,0.0,0.0,0.0,0.0,0.0,0.0,0.0,0.0,0.0,0.0,0.0,0.0,0.0,0.0,0.0,0.0,0.0,0.0,0.0,0.0,0.0,0.0,0.0,0.0,0.0,0.0,0.0,0.0,0.0,0.0,0.0,0.0,0.0,0.0,0.0,0.0,0.0,0.0,0.0,0.0,0.0,0.0,0.0,0.0,0.0,0.0,0.0,0.0,0.0,0.0,0.0,0.0,0.0,0.0,0.0,0.0,0.0,0.0,0.0,0.0,0.0,0.0,0.0,0.0,0.0,0.0,0.0,0.0,0.0,0.0,0.0,0.0,0.0,0.0,0.0,0.0,0.0,0.0,0.0,0.0,0.0,0.0,0.0,0.0,0.0,0.0,0.0,0.0,0.0,0.0,0.0,0.0,0.0,0.0,0.0,0.0,0.0,0.0,0.0,0.0,0.0,0.0,0.0,0.0,0.0,0.0,0.0,0.0,0.0,0.0,0.0,0.0,0.0,0.0,0.0,0.0,0.0,0.0,0.0,0.0,0.0,0.0,0.0,0.0,0.0,0.0,0.0,0.0,0.0,0.0,0.0,0.0,0.0,0.0,0.0,0.0,0.0,0.0,0.0,0.0,0.0,0.0,0.0,0.0,0.0,0.0,0.0,0.0,0.0,0.0,0.0,0.0,0.0,0.0,0.0,0.0,0.0,0.0,0.0,0.0,0.0,0.0,0.0,0.0,0.0,0.0,0.0,0.0,0.0,0.0,0.0,0.0,0.0,0.0,0.0,0.0,0.0,0.0,0.0,0.0,0.0,0.0,0.0,0.0,0.0,0.0,0.0,0.0,0.0,0.0,0.0,0.0,0.0,0.0,0.0,0.0,0.0,0.0,0.0,0.0,0.0,0.0,0.0,0.0,0.0,0.0,0.0,0.0,0.0,0.0,0.0,0.0,0.0,0.0,0.0,0.0,0.0,0.0,0.0,0.0,0.0,0.0,0.0,0.0,0.0,0.0,0.0,0.0,0.0,0.0,0.0,0.0,0.0,0.0,0.0,0.0,0.0,0.0,0.0,0.0,0.0,0.0,0.0,0.0,0.0,0.0,0.0,0.0,0.0,0.0,0.0,0.0,0.0,0.0,0.0,0.0,0.0,0.0,0.0,0.0,0.0,0.0,0.0,0.0,0.0,0.0,0.0,0.0,0.0,0.0,0.0,0.0,0.0,0.0,0.0,0.0,0.0,0.0,0.0,0.0,0.0,0.0,0.0,0.0,0.0,0.0,0.0,0.0,0.0,0.0,0.0,0.0,0.0,0.0,0.0,0.0,0.0,0.0,0.0,0.0,0.0,0.0,0.0,0.0,0.0,0.0,0.0,0.0,0.0,0.0,0.0,0.0,0.0,0.0,0.0,0.0,0.0,0.0,0.0,0.0,0.0,0.0,0.0,0.0,0.0,0.0,0.0,0.0,0.0,0.0,0.0,0.0,0.0,0.0,0.0,0.0,0.0,0.0,0.0,0.0,0.0,0.0,0.0,0.0,0.0,0.0,0.0,0.0,0.0,0.0,0.0,0.0,0.0,0.0,0.0,0.0,0.0,0.0,0.0,0.0,0.0,0.0,0.0,0.0,0.0,0.0,0.0,0.0,0.0,0.0,0.0,0.0,0.0,0.0,0.0,0.0,0.0,0.0,0.0,0.0,0.0,0.0,0.0,0.0,0.0,0.0,0.0,0.0,0.0,0.0,0.0,0.0,0.0,0.0,0.0,0.0,0.0,0.0,0.0,0.0,0.0,0.0,0.0,0.0,0.0,0.0,0.0,0.0,0.0,0.0,0.0,0.0,0.0,0.0,0.0,0.0,0.0,0.0,0.0,0.0,0.0,-4.5964,-4.5899,0.0,0.0,0.0,0.0,0.0,0.0,0.0,0.0,0.0,0.0,0.0,0.0,0.0,0.0,0.0,0.0,0.0,0.0,0.0,0.0,0.0,0.0,0.0,0.0,0.0,0.0,0.0,0.0,0.0,0.0,0.0,0.0,0.0,0.0,0.0,0.0,0.0,0.0,-4.6002,-4.6002,-4.6002,-4.6032,-4.6105,-4.6208,0.0,0.0,0.0,0.0,0.0,0.0,0.0,0.0,0.0,0.0,0.0,0.0,0.0,0.0,0.0,0.0,0.0,0.0,0.0,0.0,0.0,0.0,0.0,0.0,0.0,0.0,0.0,0.0,0.0,0.0,0.0,0.0,0.0,0.0,0.0,0.0,0.0,0.0,0.0,0.0,0.0,0.0,0.0,0.0,0.0,0.0,0.0,0.0,0.0,0.0,0.0,0.0,0.0,0.0,0.0,0.0,0.0,0.0,0.0,0.0,0.0,0.0,0.0,0.0,0.0,0.0,0.0,0.0,0.0,0.0,-4.6007,-4.5969,0.0,0.0,0.0,0.0,0.0,0.0,0.0,0.0,0.0,0.0,0.0,0.0,0.0,0.0,0.0,0.0,0.0,0.0,0.0,0.0,0.0,0.0,0.0,0.0,-3.9978,-4.0108,-4.0806,-4.1313,0.0,0.0,0.0,0.0,0.0,0.0,0.0,-4.4841,-4.5285,-4.5991,-4.5997,-4.6002,-4.6002,-4.606,-4.6147,-4.6191,-4.6255,0.0,0.0,0.0,0.0,0.0,0.0,0.0,0.0,0.0,0.0,0.0,0.0,0.0,0.0,0.0,0.0,0.0,0.0,0.0,0.0,0.0,0.0,0.0,0.0,0.0,0.0,0.0,0.0,0.0,0.0,0.0,0.0,0.0,0.0,0.0,0.0,0.0,0.0,0.0,0.0,0.0,0.0,0.0,0.0,0.0,0.0,0.0,0.0,0.0,0.0,0.0,0.0,0.0,0.0,0.0,0.0,0.0,0.0,0.0,0.0,0.0,0.0,0.0,-4.6022,-4.6027,-4.6027,-4.6027,-4.6071,-4.6106,-4.6066,-4.6066,-4.6031,-4.5262,0.0,0.0,0.0,0.0,0.0,0.0,0.0,0.0,0.0,0.0,0.0,0.0,0.0,0.0,0.0,0.0,0.0,0.0,0.0,0.0,0.0,-4.0453,-4.0877,-4.101,-4.1768,-4.2283,0.0,0.0,0.0,0.0,0.0,0.0,0.0,-4.5437,-4.5881,-4.6003,-4.6005,-4.6002,-4.6002,-4.606,-4.6142,-4.6192,-4.621,-4.6241,-4.6282,0.0,0.0,0.0,0.0,0.0,0.0,0.0,0.0,0.0,0.0,0.0,0.0,0.0,0.0,0.0,0.0,0.0,0.0,0.0,0.0,0.0,0.0,0.0,0.0,0.0,0.0,0.0,0.0,0.0,0.0,0.0,0.0,0.0,0.0,0.0,0.0,0.0,0.0,0.0,0.0,0.0,-4.5544,-4.5544,0.0,0.0,0.0,0.0,0.0,0.0,0.0,0.0,0.0,0.0,0.0,0.0,0.0,-4.5796,-4.5822,-4.5993,-4.6089,-4.6089,-4.6146,-4.6162,-4.6162,-4.6162,-4.6185,-4.6189,-4.6185,0.0,-4.6093,-4.5968,0.0,0.0,0.0,0.0,0.0,0.0,0.0,0.0,0.0,0.0,0.0,0.0,0.0,0.0,0.0,0.0,0.0,0.0,0.0,0.0,0.0,-4.0328,-4.0294,-4.0352,-4.1069,-4.1529,-4.1586,-4.1969,0.0,0.0,0.0,-4.4247,-4.4634,-4.5505,-4.5962,-4.5997,-4.6008,-4.6017,-4.6067,-4.6084,-4.6133,-4.6206,-4.6191,-4.6245,-4.6294,-4.6262,0.0,0.0,0.0,0.0,0.0,0.0,0.0,0.0,0.0,0.0,0.0,0.0,0.0,0.0,0.0,0.0,0.0,0.0,0.0,0.0,0.0,0.0,0.0,0.0,0.0,0.0,0.0,0.0,0.0,0.0,0.0,0.0,0.0,0.0,0.0,0.0,0.0,0.0,0.0,-4.5304,-4.5378,-4.5378,-4.5275,-4.5175,0.0,0.0,0.0,0.0,0.0,0.0,0.0,0.0,0.0,-4.5715,-4.5764,-4.5865,-4.6018,-4.6111,-4.6154,-4.6154,-4.6189,-4.6199,-4.6199,-4.6199,-4.6199,-4.6199,-4.6199,-4.6189,-4.6072,-4.5055,-4.4193,-4.3393,0.0,0.0,0.0,0.0,-4.0967,-4.0971,0.0,0.0,0.0,0.0,0.0,0.0,0.0,0.0,0.0,0.0,0.0,0.0,-4.0509,-4.0018,-3.9677,-3.9677,-4.0183,-4.0478,-4.0478,-4.1678,0.0,0.0,0.0,-4.4704,-4.4912,-4.5564,-4.5925,-4.5966,-4.6005,-4.6051,-4.6095,-4.6115,-4.6156,-4.6191,-4.6191,-4.6246,-4.63,-4.631,-4.6303,-4.6282,0.0,0.0,0.0,0.0,0.0,0.0,0.0,0.0,0.0,0.0,0.0,0.0,0.0,0.0,0.0,0.0,0.0,0.0,0.0,0.0,0.0,0.0,0.0,0.0,0.0,0.0,0.0,0.0,0.0,0.0,0.0,0.0,0.0,0.0,0.0,0.0,0.0,-4.5256,-4.5304,-4.5304,-4.5304,-4.5266,0.0,0.0,0.0,0.0,0.0,0.0,-4.5619,-4.5603,-4.5694,-4.5925,-4.5914,-4.5998,-4.6196,-4.6199,-4.6199,-4.6199,-4.6199,-4.6199,-4.6199,-4.6199,-4.6199,-4.6199,-4.6199,-4.6199,-4.6098,-4.4744,-4.4071,-4.3736,-4.2438,-4.1648,-4.1259,-4.1311,-4.1206,-4.1034,0.0,0.0,0.0,0.0,0.0,0.0,0.0,0.0,0.0,0.0,0.0,-3.9063,-3.9266,-3.9476,-3.9602,-3.9602,-3.9627,-3.9664,-3.9664,-4.0796,-4.182,-4.2651,-4.3917,-4.4968,-4.5729,-4.5841,-4.5899,-4.5911,-4.6032,-4.6107,-4.6096,-4.6175,-4.6199,-4.6191,-4.6191,-4.6246,-4.63,-4.631,-4.6303,-4.6282,-4.6237,0.0,0.0,0.0,0.0,0.0,0.0,0.0,0.0,0.0,0.0,0.0,0.0,0.0,0.0,0.0,0.0,0.0,0.0,0.0,0.0,0.0,0.0,0.0,0.0,0.0,0.0,0.0,0.0,0.0,0.0,0.0,0.0,0.0,0.0,0.0,0.0,0.0,0.0,-4.5572,-4.5572,0.0,0.0,0.0,0.0,-4.5576,-4.5584,-4.5627,-4.5684,-4.5816,-4.5919,-4.5997,-4.6126,-4.6192,-4.6199,-4.6199,-4.6199,-4.6199,-4.6199,-4.6199,-4.6199,-4.6199,-4.6199,-4.6199,-4.6199,-4.6199,-4.6199,-4.6098,-4.5572,-4.4812,-4.4731,-4.3698,-4.2234,-4.2234,-4.1747,-4.1107,0.0,0.0,0.0,0.0,0.0,0.0,0.0,0.0,-4.0413,-3.9808,-3.9098,-3.8766,-3.9156,-3.9296,-3.9419,-3.9577,-3.9589,-3.9815,-4.0328,-4.1024,-4.1801,-4.2651,-4.3909,-4.4987,-4.5787,-4.5821,-4.5886,-4.5958,-4.6008,-4.6072,-4.6158,-4.6198,-4.623,-4.6263,-4.6259,-4.6272,-4.63,-4.6296,-4.6296,-4.6294,-4.6279,-4.6248,0.0,0.0,0.0,0.0,0.0,0.0,0.0,0.0,0.0,0.0,0.0,0.0,0.0,0.0,0.0,0.0,0.0,0.0,0.0,0.0,0.0,0.0,0.0,0.0,0.0,0.0,0.0,0.0,0.0,0.0,0.0,0.0,0.0,0.0,0.0,0.0,0.0,-4.5623,-4.5705,0.0,-4.5621,-4.5724,-4.5764,-4.5675,-4.5777,-4.5848,-4.5835,-4.586,-4.595,-4.6066,-4.6102,-4.6154,-4.6199,-4.6199,-4.6199,-4.6199,-4.6199,-4.6199,-4.6199,-4.6199,-4.6199,-4.6199,-4.6199,-4.6199,-4.6199,-4.6199,-4.5693,-4.4835,-4.4286,-4.3679,-4.3133,-4.3133,-4.2958,-4.2705,0.0,0.0,0.0,0.0,0.0,0.0,0.0,0.0,-4.0288,-3.9332,-3.8793,-3.8615,-3.8927,-3.9115,-3.9264,-3.9445,-3.9815,-4.0228,-4.0778,-4.1708,-4.2508,-4.309,-4.4341,-4.5258,-4.5787,-4.5807,-4.5867,-4.6008,-4.6011,-4.6083,-4.6202,-4.6229,-4.6267,-4.6293,-4.6308,-4.6303,-4.63,-4.63,-4.63,-4.63,-4.631,-4.626,-4.6231,0.0,0.0,0.0,0.0,0.0,0.0,0.0,0.0,0.0,0.0,0.0,0.0,0.0,0.0,0.0,0.0,0.0,0.0,0.0,0.0,0.0,0.0,0.0,0.0,0.0,0.0,0.0,0.0,0.0,0.0,0.0,0.0,0.0,0.0,-4.5541,-4.5696,-4.5615,-4.5731,-4.5777,-4.5655,-4.5757,-4.5796,-4.5677,-4.5847,-4.5922,-4.5841,-4.6207,-4.6449,-4.6499,-4.6822,-4.7026,-4.7072,-4.7072,-4.7072,-4.7072,-4.7072,-4.6917,-4.6647,-4.6647,-4.6472,-4.6199,-4.6199,-4.6199,-4.6199,-4.6199,-4.5868,-4.5283,-4.4695,-4.4306,-4.4033,-4.4033,-4.3854,-4.3601,0.0,0.0,0.0,0.0,0.0,0.0,0.0,-4.0492,-3.9948,-3.8408,-3.8368,-3.8476,-3.851,-3.8898,-3.9183,-3.9197,-4.0162,-4.0803,-4.0835,-4.2764,-4.3913,-4.3971,-4.5147,-4.5807,-4.5807,-4.5807,-4.588,-4.6007,-4.6103,-4.6175,-4.6256,-4.6347,-4.6378,-4.6333,-4.6332,-4.6327,-4.6302,-4.63,-4.63,-4.63,-4.631,-4.6306,-4.6282,0.0,0.0,0.0,0.0,0.0,0.0,0.0,0.0,0.0,0.0,0.0,0.0,0.0,0.0,0.0,0.0,0.0,0.0,0.0,0.0,0.0,0.0,0.0,0.0,0.0,0.0,0.0,0.0,0.0,0.0,0.0,0.0,0.0,-4.5342,-4.537,-4.5468,-4.5599,-4.567,-4.5703,-4.5703,-4.5703,-4.567,-4.5645,-4.5828,-4.59,-4.5788,-4.6829,-4.7393,-4.7348,-4.8299,-4.8806,-4.8806,-4.8806,-4.8806,-4.8806,-4.8806,-4.8358,-4.754,-4.754,-4.7072,-4.6238,-4.6238,-4.6238,-4.6199,-4.6199,-4.6199,-4.6199,-4.6199,-4.5673,-4.4933,-4.4933,-4.4403,-4.3679,0.0,0.0,0.0,0.0,0.0,0.0,0.0,-4.0492,-3.9948,-3.8408,-3.8241,-3.8338,-3.8494,-3.8615,-3.8826,-3.917,-3.9991,-4.0846,-4.1616,-4.3076,-4.4307,-4.5248,-4.5609,-4.5807,-4.5807,-4.5807,-4.5885,-4.6068,-4.6722,-4.7099,-4.7225,-4.787,-4.7848,-4.7242,-4.7235,-4.6898,-4.6309,-4.6303,-4.63,-4.63,-4.6298,-4.6292,-4.6303,0.0,0.0,0.0,0.0,0.0,0.0,0.0,0.0,0.0,0.0,0.0,0.0,0.0,0.0,0.0,0.0,0.0,0.0,0.0,0.0,0.0,0.0,0.0,0.0,0.0,0.0,0.0,0.0,0.0,0.0,0.0,-4.5549,-4.5691,-4.5783,-4.5822,-4.5835,-4.5821,-4.5751,-4.5677,-4.5629,-4.567,-4.5933,-4.6495,-4.6584,-4.6913,-4.7557,-4.7927,-4.8169,-4.823,-4.8606,-4.8806,-4.8806,-4.8806,-4.8806,-4.8806,-4.8806,-4.867,-4.8436,-4.8436,-4.7969,-4.7131,-4.7131,-4.6784,-4.6199,-4.6199,-4.6199,-4.6199,-4.6199,-4.6043,-4.5848,-4.5848,-4.5689,-4.5397,0.0,0.0,0.0,0.0,0.0,0.0,0.0,-4.0417,-3.9968,-3.9261,-3.8607,-3.8368,-3.8826,-3.8647,-3.8664,-3.9031,-4.023,-4.1245,-4.1954,-4.3521,-4.4815,-4.5638,-4.5752,-4.5807,-4.5807,-4.5807,-4.6077,-4.6647,-4.7157,-4.7669,-4.8164,-4.8652,-4.8632,-4.8123,-4.7766,-4.7312,-4.682,-4.6441,-4.63,-4.63,-4.63,-4.6296,-4.629,-4.6306,-4.6253,-4.6195,-4.6206,-4.6193,-4.6199,-4.6199,0.0,0.0,0.0,0.0,0.0,0.0,0.0,0.0,0.0,0.0,0.0,0.0,0.0,0.0,0.0,0.0,0.0,0.0,0.0,0.0,0.0,0.0,0.0,0.0,-4.575,-4.5859,-4.5972,-4.5939,-4.5859,-4.5821,-4.5689,-4.5727,-4.6026,-4.6111,-4.6418,-4.7098,-4.7279,-4.7593,-4.8094,-4.8597,-4.8955,-4.9143,-4.9581,-4.9819,-4.9859,-4.9859,-4.9859,-4.9859,-4.9859,-4.9664,-4.9294,-4.9294,-4.8845,-4.8047,-4.8047,-4.754,-4.6745,-4.6745,-4.653,-4.6199,0.0,0.0,0.0,0.0,-4.6199,-4.6141,0.0,0.0,0.0,0.0,0.0,0.0,0.0,-4.0283,-3.9958,-4.0366,-3.9134,-3.8517,-3.9297,-3.8844,-3.8572,-3.8833,-4.0562,-4.1829,-4.2288,-4.4121,-4.5284,-4.5481,-4.5681,-4.5807,-4.5807,-4.5807,-4.6335,-4.7391,-4.7489,-4.806,-4.9043,-4.9141,-4.9121,-4.9002,-4.814,-4.7686,-4.7544,-4.6676,-4.63,-4.63,-4.63,-4.63,-4.63,-4.629,-4.626,-4.6206,-4.6192,-4.6138,-4.6043,-4.6043,0.0,0.0,0.0,0.0,0.0,0.0,0.0,0.0,0.0,0.0,0.0,0.0,0.0,0.0,0.0,0.0,0.0,0.0,0.0,0.0,0.0,0.0,0.0,0.0,-4.5961,-4.5956,-4.5944,-4.5783,-4.5675,-4.5667,-4.5624,-4.5897,-4.6599,-4.6781,-4.708,-4.7635,-4.7971,-4.8164,-4.818,-4.912,0.0,0.0,0.0,-5.1225,-5.1261,-5.1292,-5.13,-5.13,-5.13,-5.0891,-5.0151,-5.0151,-4.9703,-4.8943,-4.8943,-4.8456,-4.7657,-4.7657,-4.7131,-4.6336,-4.6238,-4.6199,-4.6199,-4.6199,-4.6199,-4.6199,0.0,0.0,0.0,0.0,0.0,0.0,0.0,-4.0083,-3.9825,-3.992,-3.8923,-3.8517,-3.9297,-3.8714,-3.8338,-3.8556,-4.0287,-4.2201,-4.4128,-4.4859,-4.5284,-4.5481,-4.5681,-4.5807,-4.5807,-4.5807,-4.6335,-4.7391,-4.8057,-4.892,-4.9961,-5.0605,-5.0566,-4.9902,-4.9039,-4.8254,-4.753,-4.6679,-4.63,-4.63,-4.63,-4.63,-4.63,-4.6298,-4.6267,-4.6206,-4.6203,-4.5757,-4.5147,-4.5147,-4.5147,-4.5147,-4.5147,-4.5634,0.0,0.0,0.0,0.0,0.0,0.0,0.0,0.0,0.0,0.0,0.0,0.0,0.0,0.0,0.0,0.0,0.0,0.0,0.0,-4.5757,-4.577,-4.5729,-4.5615,-4.5566,-4.5496,-4.5387,-4.5937,-4.6328,-4.6374,-4.7223,-4.8013,-4.8663,-4.8926,-4.9296,-4.9886,-5.0325,-5.0499,-5.04,-5.0901,-5.1146,-5.1066,-5.1215,-5.13,-5.13,-5.13,0.0,-5.1047,-5.1047,-5.0579,-4.9761,-4.9761,-4.9294,-4.8553,-4.8553,-4.8027,-4.717,-4.6472,-4.6199,-4.6199,-4.6199,-4.6199,-4.6199,0.0,0.0,0.0,0.0,0.0,0.0,0.0,-4.0075,-3.9887,-4.0335,-3.9225,-3.8671,-3.9334,-3.868,-3.8502,-3.9231,-4.1141,-4.2974,-4.4553,-4.5004,-4.5234,-4.5343,-4.5634,-4.5807,-4.5807,-4.5874,-4.659,-4.7999,-4.8463,-4.9428,-5.0801,-5.1211,-5.0976,-5.0156,-4.9295,-4.8413,-4.7532,-4.6664,-4.6305,-4.63,-4.63,-4.63,-4.63,-4.63,-4.6269,-4.6206,-4.6206,-4.5643,-4.4894,-4.4894,-4.4618,-4.4247,-4.4247,-4.4851,-4.5459,0.0,0.0,0.0,0.0,0.0,0.0,0.0,0.0,0.0,0.0,0.0,0.0,0.0,0.0,-4.5731,0.0,0.0,-4.5731,-4.5821,-4.5777,-4.5653,-4.5516,-4.5874,-4.6089,-4.5916,-4.6265,-4.6778,-4.7521,-4.8181,-4.8799,-4.9409,-4.9641,-4.9904,-5.0272,-5.0434,-5.0499,-5.051,-5.0825,-5.0998,-5.0998,-5.1176,-5.1276,-5.13,-5.13,-5.13,-5.13,-5.13,-5.1067,-5.0657,-5.0657,-5.019,-4.9372,-4.8962,-4.8534,-4.8105,-4.7676,-4.6975,-4.6199,-4.6199,-4.6199,-4.6199,0.0,0.0,0.0,0.0,0.0,0.0,0.0,-4.007,-3.9901,-4.0739,-3.953,-3.8794,-3.9352,-3.868,-3.8769,-4.0206,-4.195,-4.3422,-4.4426,-4.4934,-4.5201,-4.5201,-4.5594,-4.5807,-4.5807,-4.5917,-4.6756,-4.8369,-4.8479,-4.9359,-5.0918,-5.0918,-5.0566,-4.9902,-4.9042,-4.8258,-4.7532,-4.6666,-4.6306,-4.63,-4.63,-4.63,-4.63,-4.63,-4.6269,-4.6206,-4.6206,-4.5643,-4.4874,-4.4699,-4.4189,-4.3562,-4.3406,-4.3955,-4.4501,-4.3815,-4.4715,0.0,0.0,0.0,0.0,0.0,0.0,0.0,0.0,0.0,-4.5665,-4.5764,-4.579,-4.5803,-4.5961,-4.5803,-4.5703,-4.5872,-4.5756,-4.5587,-4.5482,-4.6195,-4.6714,-4.6729,-4.6879,-4.7472,-4.8732,-4.9148,-4.9491,-4.9868,-5.0089,-5.0175,-5.0139,-5.0175,-5.0256,-5.0378,-5.0624,-5.0805,-5.0926,-5.1035,-5.1162,-5.13,-5.1265,-5.1265,-5.13,-5.13,-5.13,-5.13,-5.13,-5.0891,-5.0209,-4.9547,-4.9196,-4.9021,-4.9021,-4.8086,-4.6686,-4.653,-4.6355,-4.6199,0.0,0.0,0.0,0.0,0.0,0.0,0.0,0.0,-3.9783,-4.0315,-3.9332,-3.8794,-3.9352,-3.868,-3.9004,-4.0997,-4.1601,-4.2618,-4.4374,-4.4934,-4.5201,-4.5201,-4.5594,-4.5807,-4.5807,-4.5801,-4.6385,-4.7528,-4.7557,-4.8103,-4.918,-4.918,-4.9121,-4.9004,-4.8122,-4.7689,-4.7532,-4.6661,-4.6302,-4.63,-4.63,-4.63,-4.63,-4.63,-4.6269,-4.6206,-4.6206,-4.5643,-4.4777,-4.4014,-4.3679,-4.3465,-4.2685,-4.3036,-4.3737,-4.362,0.0,-4.4997,-4.4778,-4.5356,-4.6042,-4.6162,-4.6165,-4.6154,0.0,0.0,-4.6123,-4.6131,-4.6047,-4.5966,-4.5997,-4.5735,-4.5533,-4.5549,-4.5438,-4.535,-4.5319,-4.5974,-4.6713,-4.7491,-4.8243,-4.8705,-4.8719,-4.9598,-5.0092,-4.9906,-5.0089,-5.0114,-4.9933,-5.0101,-5.0126,-4.9967,-5.0344,-5.0575,-5.0643,-5.0731,-5.0933,-5.13,-5.1171,-5.1176,-5.13,-5.13,-5.13,-5.13,-5.13,-5.1242,-5.1145,-5.1067,-5.056,-4.9878,-4.9878,-4.9313,-4.8417,-4.7637,-4.6862,-4.6199,0.0,0.0,0.0,0.0,0.0,0.0,0.0,0.0,0.0,-4.0259,-3.9476,-3.9027,-3.9353,-3.9345,-3.9669,-4.0532,-4.1371,-4.243,-4.3712,-4.4082,-4.4557,-4.5182,-4.5472,-4.5673,-4.58,-4.5886,-4.6369,-4.728,-4.7392,-4.7934,-4.8839,-4.8886,-4.8633,-4.8124,-4.7751,-4.7319,-4.6825,-4.6447,-4.6305,-4.63,-4.63,-4.63,-4.63,-4.63,-4.6273,-4.6258,-4.6211,-4.5643,0.0,-4.3893,-4.325,-4.2705,-4.1867,-4.2179,-4.2744,-4.2276,-4.3094,0.0,-4.4694,-4.5405,0.0,0.0,-4.6142,-4.6098,-4.6189,-4.6142,-4.6102,-4.6189,-4.6093,-4.6002,-4.6002,-4.5728,-4.549,0.0,-4.539,-4.5449,-4.5927,-4.6674,-4.7457,-4.8298,-4.9099,-4.9543,-4.9466,-4.986,-5.005,-4.9906,-4.9973,-5.0214,-5.0618,-5.0738,-5.096,-5.1338,-5.1623,-5.1601,-5.1182,-5.1337,-5.1269,-5.1017,-5.1074,-5.1128,-5.1196,-5.1256,-5.13,-5.13,-5.13,-5.13,-5.13,-5.13,-5.1086,-5.0755,-5.0755,-5.0248,-4.9391,-4.8553,-4.7696,-4.6959,0.0,0.0,0.0,0.0,0.0,0.0,0.0,0.0,0.0,0.0,-3.9717,-3.9413,-3.939,-3.9548,-3.977,-4.0067,-4.0989,-4.1951,-4.2881,-4.3341,-4.3962,-4.4819,-4.5256,-4.5602,-4.58,-4.5905,-4.6241,-4.6862,-4.7018,-4.7431,-4.808,-4.8139,-4.7832,-4.7244,-4.7243,-4.6887,-4.6293,-4.6291,-4.6306,-4.63,-4.63,-4.63,-4.63,-4.63,-4.6158,-4.595,-4.6133,-4.5646,-4.4764,-4.3897,-4.3017,-4.2159,-4.1341,-4.1653,-4.2198,-4.1594,-4.2594,-4.4102,-4.5004,0.0,0.0,-4.6177,-4.6134,-4.6084,-4.6185,-4.6115,-4.6084,-4.6185,-4.6051,-4.5914,-4.5914,-4.5661,-4.5437,-4.5437,-4.537,-4.5564,-4.6364,-4.7167,-4.7967,-4.877,-4.9524,-4.9978,-4.9978,-4.9978,-4.9946,-4.9893,-4.9912,-5.0277,-5.1154,-5.1192,-5.1571,-5.2366,-5.2534,-5.2291,-5.1579,-5.1713,-5.1434,-5.0774,-5.0939,-5.1049,-5.1105,-5.1239,-5.13,-5.13,-5.13,-5.13,-5.13,-5.13,-5.13,-5.13,-5.13,-5.0911,-5.0287,-4.9703,-4.8806,-4.7852,0.0,0.0,0.0,0.0,0.0,0.0,0.0,0.0,0.0,0.0,0.0,0.0,0.0,-3.8895,-3.8982,-4.0015,-4.0308,-4.0904,-4.1972,-4.3019,-4.3696,-4.3941,-4.4939,-4.5602,-4.58,-4.5807,-4.588,-4.6041,-4.6046,-4.6127,-4.628,-4.627,-4.6305,-4.6346,-4.6338,-4.6313,-4.6293,-4.6305,-4.63,-4.63,-4.63,-4.63,-4.63,-4.63,-4.5787,-4.515,-4.5919,-4.5632,-4.4779,-4.388,-4.3017,-4.2159,-4.1341,-4.1653,0.0,-4.2276,-4.3408,-4.49,-4.5885,0.0,-4.6027,-4.6177,-4.6196,-4.6196,-4.6196,-4.6196,-4.6196,-4.6196,-4.5933,-4.571,-4.571,-4.5491,-4.5317,-4.5317,-4.5307,-4.5573,-4.6309,-4.7098,-4.7895,-4.8707,-4.9459,-4.9893,0.0,-4.9893,-4.9893,-4.9912,-4.9912,-5.0277,-5.1154,-5.1192,-5.1571,-5.2366,-5.2419,-5.2123,-5.1522,-5.1439,-5.1178,-5.0706,-5.0782,-5.0918,-5.1105,-5.1239,-5.13,-5.13,-5.13,-5.13,-5.13,-5.13,-5.13,-5.13,-5.13,-5.1281,-5.1261,-5.1222,-5.017,-4.8768,0.0,0.0,0.0,0.0,0.0,0.0,0.0,0.0,0.0,0.0,0.0,0.0,0.0,0.0,0.0,0.0,-3.9496,-4.0069,-4.1141,-4.1544,-4.2397,-4.3836,-4.424,-4.4885,-4.5854,-4.586,-4.5893,-4.5922,-4.6017,-4.6096,-4.6123,-4.6173,-4.6249,-4.6299,-4.6295,-4.629,-4.6305,-4.6302,-4.63,-4.63,-4.63,-4.5948,-4.5441,-4.5441,-4.4893,-4.4165,0.0,-4.4326,-4.3899,-4.3023,-4.2549,-4.2257,-4.1984,-4.2081,-4.2413,-4.2997,-4.3895,-4.4798,-4.5223,-4.567,-4.6027,-4.6177,-4.6199,-4.6199,-4.6199,-4.6199,-4.6199,-4.6199,-4.5928,-4.5696,-4.5636,-4.5445,-4.5286,-4.5235,-4.5275,-4.5573,-4.6366,-4.7117,-4.7895,-4.8707,-4.9459,0.0,0.0,0.0,0.0,-4.9912,-4.9912,-5.0277,-5.1154,-5.1703,-5.24,-5.3252,-5.3271,-5.2921,-5.217,-5.161,-5.1002,-5.0363,-5.0657,-5.0946,-5.1234,-5.1284,-5.13,-5.13,-5.13,-5.13,-5.13,-5.13,-5.13,-5.13,-5.13,-5.13,-5.13,-5.13,-5.095,-5.0385,0.0,0.0,0.0,0.0,0.0,0.0,0.0,0.0,0.0,0.0,0.0,0.0,0.0,0.0,0.0,0.0,0.0,-3.9737,-4.0277,-4.0654,-4.1529,-4.3006,-4.334,-4.4109,-4.5402,-4.5428,-4.5583,-4.5911,-4.5991,-4.6054,-4.6096,-4.6138,-4.6208,-4.6265,-4.6295,-4.6306,-4.63,-4.63,-4.63,-4.6261,-4.5968,-4.55,-4.4971,-4.4641,-4.3995,0.0,-4.3249,-4.3017,-4.2652,-4.238,-4.2101,-4.1926,-4.2218,-4.2724,-4.341,-4.4267,-4.4853,-4.5252,-4.5347,-4.5714,-4.6089,-4.6185,-4.6199,-4.6199,-4.6199,-4.6199,-4.6199,-4.6199,-4.5903,-4.5655,-4.5614,-4.5418,-4.5235,-4.517,-4.5213,-4.5559,-4.6351,-4.7101,-4.787,-4.8707,-4.9459,-4.9912,0.0,0.0,0.0,-4.9912,-4.9912,-5.0277,-5.1154,-5.1684,-5.2362,-5.3215,-5.3252,-5.2864,-5.2075,-5.1589,-5.0996,-5.0344,-5.0587,-5.0877,-5.123,-5.123,-5.1248,-5.13,-5.13,-5.13,-5.13,-5.13,-5.13,-5.13,-5.13,-5.13,-5.13,-5.13,-5.13,-5.1222,0.0,0.0,0.0,0.0,0.0,0.0,0.0,0.0,0.0,0.0,0.0,0.0,0.0,0.0,0.0,0.0,0.0,0.0,-3.955,-4.044,-4.1195,-4.1634,-4.2352,-4.3305,-4.4512,-4.4537,-4.4944,-4.5776,-4.5776,-4.5845,-4.5974,-4.5964,-4.6015,-4.6073,-4.6141,-4.6163,-4.6163,-4.6163,-4.6163,-4.6085,-4.5265,-4.4912,-4.4777,-4.3957,-4.3093,-4.2323,-4.2329,-4.1791,-4.1229,-4.1971,-4.175,-4.1302,-4.2101,-4.3526,-4.5069,-4.5946,-4.6199,-4.6199,-4.6199,-4.6199,-4.6199,-4.6199,-4.6199,-4.6199,-4.6199,-4.6199,-4.6199,-4.6199,-4.5886,-4.5607,-4.5607,-4.5371,-4.5181,-4.5117,-4.517,-4.5467,-4.6241,-4.7027,-4.7802,0.0,0.0,0.0,0.0,0.0,0.0,-4.9912,-4.9912,-5.0258,-5.1078,-5.1187,-5.1552,-5.231,-5.2343,-5.1992,-5.1296,-5.1325,-5.1073,-5.0577,-5.0527,-5.0705,-5.108,-5.1099,-5.1166,-5.13,-5.13,-5.13,-5.13,-5.13,-5.13,-5.13,-5.13,-5.13,-5.13,-5.13,-5.13,-5.13,0.0,0.0,0.0,0.0,0.0,0.0,0.0,0.0,0.0,0.0,0.0,0.0,0.0,0.0,0.0,0.0,0.0,0.0,-4.1031,-4.101,-4.1419,-4.2383,-4.2101,-4.2464,-4.3687,-4.3713,-4.3846,-4.4111,-4.4111,-4.4143,-4.4246,-4.4241,-4.4272,-4.4344,-4.4354,-4.4367,-4.4367,-4.4367,-4.4367,-4.4348,-4.4114,-4.3645,-4.304,-4.2825,-4.2196,-4.1423,-4.143,-4.1281,-4.1131,-4.1347,0.0,0.0,-4.2997,-4.4014,-4.5069,-4.5946,-4.6199,-4.6199,-4.6199,-4.6199,-4.6199,-4.6199,-4.6199,-4.6199,-4.6199,-4.6199,-4.6199,-4.6199,-4.5886,-4.5599,-4.5607,-4.539,0.0,-4.5244,-4.527,0.0,-4.561,-4.677,0.0,-4.7814,0.0,-4.9912,-4.9912,-4.9912,0.0,0.0,-4.9912,-5.0006,-5.022,-5.0846,-5.1286,-5.1509,-5.1514,-5.1414,-5.1233,-5.0656,-5.0397,-5.0446,-5.0486,-5.0687,-5.103,-5.1074,-5.1166,-5.13,-5.13,-5.13,-5.13,-5.13,-5.13,-5.13,-5.13,-5.13,-5.13,-5.13,-5.13,-5.13,0.0,0.0,0.0,0.0,0.0,0.0,0.0,0.0,0.0,0.0,0.0,0.0,0.0,0.0,0.0,0.0,0.0,0.0,0.0,-4.1554,-4.1889,-4.268,-4.2352,-4.2541,-4.3342,-4.3388,-4.3421,-4.3505,-4.3505,-4.3527,-4.3559,-4.3589,-4.3623,-4.3652,-4.3697,-4.3705,-4.3705,-4.3705,-4.3705,0.0,0.0,-4.2845,-4.2355,-4.1981,-4.1525,-4.1103,-4.1091,0.0,0.0,0.0,0.0,-4.2452,-4.3328,-4.4208,-4.5069,-4.5946,0.0,-4.6199,-4.6199,-4.6199,-4.6199,-4.6199,-4.6199,-4.6199,-4.6199,-4.6199,-4.6165,-4.6083,-4.5828,-4.5565,-4.5441,-4.5283,-4.5162,0.0,0.0,0.0,-4.5322,-4.6358,-4.7209,0.0,-4.8637,0.0,-4.9874,-4.9912,-4.9912,-4.9912,-4.9912,-4.9912,-4.9912,-5.0353,-5.0637,-5.0637,-5.0637,-5.0632,-5.0659,-5.0225,-5.0114,-5.0313,-5.0333,-5.0508,-5.0828,-5.0871,-5.0998,-5.122,-5.122,-5.1243,-5.13,-5.13,-5.13,-5.13,-5.13,-5.13,-5.13,-5.13,-5.13,-5.13,0.0,0.0,0.0,0.0,0.0,0.0,0.0,0.0,0.0,0.0,0.0,0.0,0.0,0.0,0.0,0.0,0.0,0.0,0.0,0.0,-4.2522,-4.2859,-4.2889,-4.3022,-4.3285,-4.336,-4.3416,-4.3505,-4.3374,-4.3321,-4.3335,-4.3284,-4.3251,-4.3258,-4.3337,-4.3359,-4.3359,-4.3356,-4.3354,-4.3295,-4.2533,-4.224,-4.2141,0.0,0.0,0.0,0.0,0.0,0.0,0.0,-4.1555,-4.2315,-4.3289,-4.413,-4.4913,-4.5907,-4.6199,-4.6199,-4.6199,-4.6199,-4.6199,-4.6199,-4.6199,-4.6199,-4.6199,-4.6196,-4.6123,-4.5947,0.0,-4.5503,-4.5256,-4.5137,-4.5091,-4.503,0.0,-4.5333,-4.5258,-4.5957,-4.6757,-4.7512,-4.8245,-4.9021,-4.9817,-4.9912,-4.9912,-4.9912,-4.9912,-4.9912,-4.9912,-4.9912,-4.9912,-4.9912,-4.9912,-4.992,-5.0005,-4.9992,-5.0038,-5.0163,-5.0133,-5.0264,-5.0567,-5.0587,-5.0775,-5.1099,-5.1099,-5.119,-5.13,-5.13,-5.13,-5.13,-5.13,-5.13,-5.13,-5.13,-5.13,-5.13,0.0,0.0,0.0,0.0,0.0,0.0,0.0,0.0,0.0,0.0,-4.1561,0.0,0.0,0.0,0.0,0.0,0.0,0.0,0.0,0.0,0.0,-4.376,-4.3215,-4.303,-4.3292,-4.3318,-4.3391,-4.3505,-4.2772,-4.2445,-4.2493,-4.1779,-4.1445,-4.1443,-4.1523,-4.1542,-4.1542,-4.1548,-4.1558,-4.1539,-4.1382,-4.1324,-4.1303,-4.1166,0.0,0.0,0.0,0.0,0.0,0.0,-4.1185,-4.1575,-4.3114,-4.3698,-4.4147,-4.5728,-4.6199,-4.6199,-4.6199,-4.6199,-4.6199,-4.6199,-4.6199,-4.6199,-4.6199,-4.6154,0.0,0.0,-4.5694,-4.5453,-4.5236,-4.5105,-4.5065,-4.5225,-4.5251,-4.5281,-4.5428,-4.6007,-4.6717,0.0,-4.8245,-4.9021,-4.9817,-4.9912,0.0,0.0,-4.9912,-4.9912,-4.9912,-4.9912,-4.9912,-4.9912,-4.9912,-4.992,-5.0005,-4.9952,-4.9965,-5.0044,-5.0082,-5.0217,-5.0436,-5.0547,-5.0775,-5.1099,-5.1099,-5.119,-5.13,-5.13,-5.13,-5.13,-5.13,-5.13,-5.13,-5.13,-5.13,-5.13,0.0,0.0,0.0,0.0,0.0,0.0,0.0,0.0,0.0,0.0,-4.1648,-4.1945,0.0,0.0,0.0,0.0,0.0,0.0,0.0,0.0,0.0,0.0,0.0,0.0,-4.3779,-4.3846,-4.3724,-4.3397,0.0,-4.281,-4.2918,-4.2064,-4.1671,-4.1661,-4.1233,-4.1072,-4.1094,-4.1091,-4.1102,-4.1109,-4.1109,-4.1106,0.0,0.0,0.0,0.0,0.0,0.0,0.0,0.0,-4.1107,-4.1302,-4.2549,-4.3231,-4.3854,-4.5144,-4.5848,-4.6199,-4.6199,-4.6199,-4.6199,-4.6199,-4.6199,-4.6199,-4.6199,0.0,0.0,0.0,-4.5657,-4.5436,-4.5243,-4.5098,0.0,-4.5126,-4.5232,-4.5322,-4.5332,-4.5616,-4.6113,-4.6884,-4.7599,-4.8357,-4.9191,-4.9646,-5.0088,-5.0542,-5.0144,-4.9912,-4.9912,-4.9912,-4.9912,-4.9912,-4.9912,-4.9925,-4.9952,-4.9925,-4.992,-5.0005,-5.0031,-5.0139,-5.031,-5.0366,-5.0587,-5.0939,-5.0939,-5.1078,-5.13,-5.13,-5.1252,-5.1191,-5.1261,-5.1252,-5.1191,-5.1265,-5.13,-5.13,0.0,0.0,0.0,0.0,0.0,0.0,0.0,-4.0313,-4.0645,-4.1539,-4.167,-4.2008,-4.2806,-4.303,0.0,0.0,0.0,0.0,0.0,0.0,0.0,0.0,0.0,0.0,0.0,0.0,0.0,-4.3814,-4.3666,0.0,0.0,0.0,0.0,0.0,-4.1659,-4.1306,-4.1343,-4.1171,-4.1092,0.0,0.0,-4.1101,0.0,0.0,0.0,0.0,0.0,0.0,0.0,0.0,-4.1107,-4.1205,-4.1848,-4.2627,-4.3562,-4.4812,-4.5537,-4.5965,-4.616,-4.6199,-4.6199,-4.6199,-4.6199,-4.6199,-4.6199,-4.6146,0.0,-4.5835,-4.5669,-4.5473,-4.5237,-4.5114,-4.5026,0.0,-4.5169,-4.5293,-4.5213,-4.5222,-4.5538,0.0,-4.6852,0.0,-4.8604,-4.9438,0.0,-5.1116,-5.0561,-5.0101,-4.9912,-4.9912,-4.9912,-4.9912,-4.9912,-4.9912,-4.9912,-4.9912,-4.9939,-4.9978,-5.0005,-5.007,-5.0151,-5.0366,-5.0577,-5.0745,-5.0927,-5.1074,-5.1181,-5.1181,-5.1131,-5.1056,-5.1196,-5.1181,-5.1117,-5.1248,-5.13,-5.13,0.0,0.0,0.0,0.0,0.0,0.0,0.0,-4.0412,-4.0724,-4.1432,-4.1609,-4.2008,-4.2806,-4.303,0.0,0.0,0.0,0.0,0.0,0.0,0.0,0.0,0.0,0.0,0.0,0.0,0.0,-4.5492,-4.4813,0.0,0.0,0.0,0.0,0.0,0.0,-4.2172,-4.2145,-4.1419,0.0,0.0,0.0,0.0,0.0,0.0,0.0,0.0,0.0,0.0,0.0,0.0,0.0,-4.1107,-4.1185,-4.177,-4.29,-4.5358,0.0,0.0,-4.5985,-4.6199,-4.6199,-4.6199,-4.6199,-4.6199,-4.6199,0.0,-4.6042,-4.5835,-4.5735,-4.5574,-4.5258,-4.5192,-4.5148,-4.5014,-4.5014,-4.5072,-4.5181,-4.514,-4.5441,-4.6313,0.0,0.0,-4.8547,-4.9438,-5.0258,-5.1116,-5.1116,-5.0751,-4.995,-4.9912,-4.9912,-4.9912,-4.9912,-4.9912,-4.9912,-4.9912,-4.9893,-4.9912,-4.9978,-5.0018,-5.005,-5.0958,-5.1067,-5.0576,-5.1356,-5.1391,-5.0862,-5.0862,-5.0828,-5.0855,-5.103,-5.1111,-5.1117,-5.1248,-5.13,-5.13,0.0,0.0,0.0,0.0,0.0,0.0,0.0,-4.0221,-4.0556,-4.1393,-4.1543,-4.1909,-4.2788,-4.303,-4.3123,0.0,0.0,0.0,0.0,0.0,0.0,0.0,0.0,0.0,0.0,0.0,-4.5458,-4.5584,-4.5368,0.0,0.0,0.0,0.0,0.0,0.0,-4.3012,-4.2961,-4.2151,0.0,0.0,0.0,0.0,0.0,0.0,0.0,0.0,0.0,0.0,0.0,0.0,0.0,0.0,-4.1672,-4.1711,0.0,0.0,-4.4345,-4.4972,-4.5322,-4.542,-4.5537,-4.6063,-4.6199,-4.6199,-4.6199,0.0,-4.6084,-4.5993,-4.5835,-4.5665,-4.5526,-4.5341,-4.5181,-4.5136,-4.5038,-4.5033,-4.5061,-4.5068,-4.5159,-4.552,-4.5966,0.0,0.0,0.0,-4.9533,-5.0353,-5.1357,-5.1338,-4.9969,-4.9912,-4.9912,-4.9912,-4.9912,-4.9912,-4.9912,-4.9912,-4.9912,-4.9912,-5.0456,-5.0743,-5.0802,-5.1249,-5.1372,-5.1226,-5.1115,-5.0969,-5.0798,-5.0798,-5.0753,-5.0705,-5.0978,-5.1037,-5.0952,-5.1205,-5.13,-5.13,0.0,0.0,0.0,0.0,0.0,0.0,-4.0096,-4.0096,-4.0434,-4.137,-4.1503,-4.1867,-4.2806,-4.2994,-4.3086,-4.316,0.0,0.0,0.0,0.0,0.0,0.0,0.0,0.0,0.0,0.0,-4.5339,-4.5438,-4.5584,-4.5692,0.0,0.0,-4.5124,-4.5085,0.0,0.0,0.0,0.0,0.0,0.0,0.0,0.0,0.0,0.0,0.0,0.0,0.0,0.0,0.0,0.0,0.0,0.0,0.0,0.0,0.0,0.0,-4.3371,-4.4189,-4.4442,-4.452,-4.4656,-4.528,-4.5611,-4.5829,0.0,0.0,-4.6111,-4.6098,-4.5939,-4.5775,-4.5718,-4.5465,-4.5256,-4.5203,-4.508,-4.4986,-4.501,-4.4991,-4.4991,-4.4991,0.0,-4.6152,-4.6973,-4.8262,-4.9514,-5.0561,-5.1509,-5.1528,-5.0353,-5.0044,-4.9912,-4.9912,-4.9912,-4.9912,-4.9912,-5.0144,-5.0277,-5.0277,-5.1149,-5.1461,-5.1288,-5.1583,-5.1529,-5.117,-5.0952,-5.0769,-5.0613,-5.065,-5.0596,-5.0527,-5.084,-5.0889,-5.0847,-5.1136,-5.1276,-5.13,0.0,0.0,0.0,0.0,0.0,0.0,0.0,-4.0096,-4.0434,-4.137,-4.1503,-4.1867,-4.2806,-4.2901,-4.2975,-4.3086,0.0,0.0,0.0,0.0,0.0,0.0,0.0,0.0,0.0,0.0,-4.5307,-4.5307,-4.5448,-4.5504,-4.5513,-4.5776,-4.588,-4.5867,0.0,0.0,0.0,0.0,0.0,0.0,0.0,0.0,0.0,0.0,0.0,0.0,0.0,0.0,0.0,0.0,0.0,0.0,0.0,-4.1653,-4.2452,0.0,-4.2997,-4.251,-4.3387,-4.3601,-4.362,-4.362,-4.4286,-4.4913,0.0,0.0,-4.6185,-4.6106,-4.6056,-4.5933,-4.5747,-4.5526,-4.5351,-4.5224,-4.5026,-4.4919,-4.4979,-4.4991,-4.4991,0.0,0.0,-4.5328,-4.6139,-4.8439,-5.058,-5.2253,-5.1646,-5.1192,-5.1192,-5.0372,-4.9912,-4.9912,-4.9912,-4.9912,-4.9912,-5.077,-5.1192,-5.1192,-5.1987,-5.1969,-5.1225,-5.2104,-5.1581,-5.0075,-5.1053,-5.1001,-5.0212,-5.029,-5.0302,-5.0325,-5.0526,-5.0698,-5.0813,-5.1037,-5.1196,-5.13,0.0,0.0,0.0,0.0,0.0,0.0,0.0,-4.0053,-4.0802,-4.1415,-4.1782,-4.2218,-4.2844,-4.2901,-4.2919,-4.2957,0.0,0.0,0.0,0.0,0.0,0.0,0.0,0.0,0.0,0.0,-4.5307,-4.5307,-4.5429,-4.5504,-4.5504,-4.5684,-4.5805,-4.588,-4.566,-4.5572,0.0,0.0,0.0,0.0,0.0,0.0,0.0,0.0,0.0,0.0,0.0,0.0,0.0,0.0,0.0,0.0,0.0,0.0,0.0,-4.1809,-4.2081,-4.2354,-4.2646,-4.2705,-4.2841,-4.3445,-4.3815,-4.4169,-4.4757,-4.5108,-4.5475,-4.6045,-4.6126,-4.6032,-4.5927,-4.5661,-4.5428,-4.5351,-4.5087,-4.4907,0.0,0.0,0.0,-4.4931,-4.5462,-4.5924,0.0,0.0,-4.9059,-4.8988,-5.0372,-5.0713,-4.9538,-5.0315,-5.0523,-4.9931,-4.9912,-5.0182,-5.0789,-5.1073,-5.1192,-5.1211,-5.2021,-5.1983,-5.1206,-5.1521,-5.1418,-5.0938,-5.0703,-5.0479,-5.0278,-5.029,-5.0302,-5.0317,-5.0624,-5.0769,-5.0847,-5.1136,-5.1256,-5.13,0.0,0.0,0.0,0.0,0.0,0.0,0.0,-3.9593,-4.0556,-4.1016,-4.1732,-4.2378,-4.2844,-4.2901,-4.2901,-4.2901,0.0,0.0,0.0,0.0,0.0,0.0,0.0,0.0,0.0,-4.5235,-4.5307,-4.5307,-4.539,-4.5419,-4.5438,-4.5566,-4.5676,-4.5754,-4.584,-4.5912,0.0,0.0,0.0,0.0,0.0,0.0,-4.3581,0.0,0.0,0.0,0.0,0.0,0.0,0.0,0.0,0.0,0.0,0.0,0.0,0.0,-4.1458,-4.1848,-4.1848,-4.1848,-4.1984,-4.251,-4.288,0.0,0.0,-4.4169,-4.4656,-4.5537,-4.5659,-4.5603,-4.5551,-4.5292,-4.5051,-4.4957,-4.4701,-4.4618,0.0,0.0,0.0,-4.4931,0.0,0.0,0.0,-4.7131,-4.7789,-4.7883,-4.9064,-4.9443,-4.8736,-4.9386,-4.9519,-4.8983,-4.957,-5.0144,-5.0694,-5.1054,-5.1192,-5.1211,-5.2021,-5.1983,-5.1206,-5.1228,-5.1125,-5.0849,-5.0374,-5.0207,0.0,-5.029,-5.0302,-5.0317,-5.0615,-5.0761,-5.0828,-5.1125,-5.1252,-5.13,0.0,0.0,0.0,0.0,0.0,0.0,0.0,0.0,0.0,0.0,-4.1437,-4.2364,-4.2844,-4.2901,-4.2901,0.0,0.0,0.0,0.0,0.0,0.0,0.0,0.0,0.0,0.0,-4.5109,-4.5286,-4.5307,-4.5307,-4.5307,-4.5307,-4.5438,-4.5495,-4.5513,-4.5761,-4.5886,0.0,0.0,0.0,0.0,0.0,0.0,0.0,0.0,0.0,0.0,0.0,0.0,0.0,0.0,0.0,0.0,0.0,0.0,0.0,0.0,0.0,0.0,0.0,-4.1107,-4.1107,0.0,0.0,0.0,0.0,0.0,0.0,-4.4637,-4.4768,-4.4716,-4.4712,-4.4482,-4.4302,-4.4209,-4.403,-4.4168,0.0,-4.4991,0.0,0.0,-4.4943,0.0,-4.6045,-4.6108,-4.6752,-4.8319,-4.7776,-4.7719,-4.849,-4.787,-4.7453,-4.7397,-4.8907,-4.976,-4.9817,-5.0618,-5.104,-5.113,-5.1869,-5.1831,-5.1111,-5.1111,-5.0697,-5.0018,-5.007,-5.0145,-5.02,-5.0278,-5.0302,-5.0325,-5.0527,-5.0687,-5.0832,-5.1049,-5.1186,-5.13,0.0,0.0,0.0,0.0,0.0,0.0,0.0,0.0,0.0,0.0,0.0,-4.21,-4.2828,-4.2901,0.0,0.0,0.0,0.0,0.0,0.0,0.0,0.0,0.0,0.0,0.0,-4.4879,-4.5045,-4.5307,-4.5307,-4.5307,-4.5307,-4.5319,-4.5409,-4.5504,-4.5575,0.0,0.0,0.0,0.0,0.0,0.0,0.0,0.0,0.0,0.0,0.0,-4.2592,-4.1827,0.0,0.0,0.0,0.0,0.0,0.0,0.0,0.0,-4.1107,-4.1107,-4.1107,0.0,-4.1107,-4.1107,-4.1244,-4.1536,0.0,0.0,0.0,0.0,0.0,-4.3872,-4.3817,-4.3632,-4.3631,-4.4122,-4.4168,-4.4336,-4.4924,-4.5038,0.0,-4.5148,-4.5057,-4.5062,-4.5252,-4.5242,-4.5369,-4.5767,-4.679,-4.7207,-4.6809,-4.7808,-4.8092,-4.7416,-4.7776,-4.8319,-4.8983,-4.9191,-4.9595,-5.0201,-5.0391,-5.0391,-5.0201,-5.0201,-5.0155,-5.0082,-5.0095,-5.017,-5.0278,-5.029,-5.0302,-5.0329,-5.0623,-5.0778,-5.0847,-5.1141,-5.1261,-5.13,0.0,0.0,0.0,0.0,0.0,0.0,0.0,0.0,0.0,0.0,0.0,0.0,0.0,0.0,0.0,0.0,0.0,0.0,0.0,0.0,0.0,0.0,0.0,0.0,-4.4612,-4.4898,-4.5121,-4.5307,-4.5307,-4.5307,-4.5307,-4.5307,-4.5329,-4.54,-4.554,0.0,0.0,0.0,0.0,0.0,-4.6196,0.0,0.0,0.0,0.0,0.0,-4.3255,-4.2414,0.0,-4.1234,-4.1107,-4.1107,0.0,0.0,0.0,0.0,-4.1107,-4.1107,-4.1107,-4.1107,-4.1107,-4.1107,-4.1107,-4.1205,-4.1653,0.0,0.0,0.0,0.0,-4.299,-4.2969,-4.315,-4.3435,-4.3735,-4.4097,-4.4512,0.0,0.0,-4.5199,-4.5125,-4.5038,-4.4998,-4.4955,-4.4919,-4.4895,-4.4895,-4.5748,-4.6051,-4.5634,-4.6449,-4.6733,-4.6259,-4.6241,-4.6847,-4.8092,-4.8111,-4.8306,-4.8755,-4.8755,-4.8755,-4.8755,-4.8755,-4.9029,-4.9556,-4.9556,-4.9839,-5.0302,-5.0302,-5.0302,-5.0329,-5.0677,-5.0798,-5.0835,-5.1172,-5.13,-5.13,0.0,0.0,0.0,0.0,0.0,0.0,0.0,0.0,0.0,0.0,0.0,0.0,0.0,0.0,0.0,0.0,0.0,0.0,0.0,0.0,0.0,0.0,0.0,-4.436,-4.4397,-4.4941,-4.5246,-4.5307,-4.5307,-4.5307,-4.5307,-4.5307,-4.5307,-4.5317,-4.5566,-4.5746,0.0,0.0,0.0,0.0,-4.6195,0.0,0.0,0.0,0.0,0.0,0.0,0.0,0.0,-4.139,-4.1094,-4.1107,-4.1107,0.0,0.0,0.0,0.0,0.0,-4.1107,-4.1107,-4.1107,-4.1107,-4.1107,-4.1107,-4.1107,0.0,0.0,0.0,0.0,0.0,-4.212,-4.2774,0.0,-4.3299,0.0,0.0,-4.53,-4.5389,-4.5323,-4.5072,-4.5033,-4.4979,-4.495,-4.4907,-4.4895,-4.4895,-4.4895,-4.4895,-4.4895,-4.4895,-4.4895,-4.4895,-4.4895,-4.5577,-4.6999,-4.7018,-4.7093,-4.7207,-4.7207,-4.7283,-4.7397,-4.7397,-4.7871,-4.8699,-4.8699,-4.9153,-4.9939,-5.0054,-5.0111,-5.0157,-5.0619,-5.0798,-5.0835,-5.1172,-5.13,-5.13,0.0,0.0,0.0,0.0,0.0,0.0,0.0,0.0,0.0,0.0,0.0,0.0,0.0,0.0,0.0,0.0,0.0,0.0,0.0,0.0,0.0,0.0,-4.383,-4.4181,-4.4402,-4.4701,-4.5023,-4.5307,-4.5307,-4.5307,-4.5307,-4.5307,-4.5307,-4.5307,-4.5457,-4.561,-4.5746,-4.5872,-4.6027,-4.6203,-4.6195,0.0,0.0,0.0,0.0,0.0,0.0,0.0,0.0,-4.1382,-4.1103,-4.1107,-4.1107,0.0,0.0,0.0,0.0,0.0,-4.1107,-4.1107,-4.1107,-4.1107,-4.1107,-4.1107,-4.1107,0.0,0.0,0.0,0.0,0.0,0.0,-4.1937,-4.2663,0.0,0.0,-4.5486,0.0,0.0,-4.5428,-4.5277,-4.5159,-4.5091,-4.508,-4.4955,-4.4895,-4.4895,-4.4895,-4.4895,-4.4895,-4.4895,-4.4895,-4.4895,-4.4895,-4.5028,-4.5274,-4.5274,-4.5653,-4.6373,-4.6373,-4.6733,-4.7397,-4.7397,-4.7549,-4.7805,-4.7805,-4.7952,-4.8227,-4.8984,-4.927,-4.9384,-5.0407,-5.0798,-5.0835,-5.1172,-5.13,-5.13,0.0,0.0,0.0,0.0,0.0,0.0,0.0,0.0,0.0,0.0,0.0,0.0,0.0,0.0,0.0,0.0,0.0,0.0,0.0,0.0,0.0,-4.3287,-4.3681,-4.4057,-4.4383,-4.4663,-4.4957,-4.5307,-4.5307,-4.5307,-4.5307,-4.5307,-4.5307,-4.5307,-4.5429,-4.5565,-4.5723,-4.5848,-4.6018,-4.6203,0.0,0.0,0.0,0.0,0.0,0.0,0.0,0.0,0.0,0.0,-4.1103,-4.1103,-4.1097,0.0,0.0,0.0,0.0,0.0,-4.1107,-4.1107,-4.1107,-4.1107,-4.1107,-4.1107,0.0,0.0,0.0,0.0,0.0,0.0,0.0,0.0,-4.3413,-4.4669,0.0,-4.585,-4.5677,-4.5611,-4.5496,-4.5235,-4.517,-4.5148,-4.5103,-4.5003,-4.4943,-4.4943,-4.4919,-4.4895,-4.4895,-4.4895,-4.4895,-4.4895,-4.4895,-4.4895,-4.4895,-4.4895,-4.5103,-4.5501,-4.5501,-4.5691,-4.6051,-4.6051,-4.6372,-4.6949,-4.6949,-4.7266,-4.7826,-4.8239,-4.8439,-4.8575,-4.9206,-4.9778,-5.0339,-5.1035,-5.1008,-5.0599,0.0,0.0,0.0,0.0,0.0,0.0,0.0,0.0,0.0,0.0,0.0,0.0,0.0,0.0,0.0,0.0,0.0,0.0,0.0,0.0,-4.3086,-4.3178,-4.346,-4.382,-4.4242,-4.4612,-4.4934,-4.5184,-4.5256,-4.5307,-4.5307,-4.5307,-4.5307,-4.5307,-4.5409,-4.5531,-4.5657,-4.5796,-4.5968,-4.6162,0.0,0.0,0.0,0.0,0.0,0.0,0.0,0.0,0.0,0.0,0.0,0.0,0.0,0.0,0.0,-4.1107,-4.1107,-4.1107,-4.1107,-4.1107,-4.1107,-4.1107,0.0,0.0,0.0,0.0,0.0,0.0,0.0,0.0,0.0,-4.2471,0.0,-4.5923,-4.6199,-4.6074,-4.5671,-4.567,-4.556,-4.5194,-4.5181,-4.5181,-4.5125,-4.5049,-4.5033,-4.4991,-4.4943,-4.4907,-4.4895,-4.4895,-4.4895,-4.4895,-4.4895,-4.4895,-4.4895,-4.4895,-4.4895,-4.4895,-4.4895,-4.4895,-4.4895,-4.4895,-4.5347,-4.6092,-4.6092,-4.6523,-4.7226,-4.7406,-4.7571,-4.7694,-4.8133,-4.8813,-4.9658,-5.0438,-5.0287,-4.9722,0.0,0.0,0.0,0.0,0.0,0.0,0.0,0.0,0.0,0.0,0.0,0.0,0.0,0.0,0.0,0.0,0.0,0.0,0.0,0.0,-4.2975,-4.3104,-4.3123,-4.3375,-4.382,-4.4474,-4.48,-4.4843,-4.5151,-4.5307,-4.5307,-4.5307,-4.5307,-4.5307,-4.5317,-4.539,-4.5512,-4.5657,-4.584,-4.6041,-4.6157,0.0,0.0,0.0,0.0,0.0,0.0,0.0,0.0,0.0,0.0,0.0,0.0,0.0,-4.1107,-4.1107,-4.1107,-4.1107,-4.1107,-4.1107,-4.1107,-4.1107,-4.1107,0.0,-4.1107,-4.1107,0.0,-4.1107,0.0,0.0,0.0,-4.2471,-4.4166,-4.5923,-4.6199,-4.6078,-4.5744,-4.5703,-4.5603,-4.5329,-4.5224,-4.5192,-4.5192,-4.5136,-4.508,-4.4991,-4.501,-4.4974,-4.4895,-4.4895,-4.4895,-4.4895,-4.4895,-4.4895,-4.4895,-4.4895,-4.4895,-4.4895,-4.4895,-4.4895,-4.4895,-4.4895,-4.5005,-4.5179,-4.5179,-4.5303,-4.5545,-4.629,-4.6606,-4.6717,-4.786,-4.852,-4.8877,-4.8943,-4.8943,-4.8884,0.0,0.0,0.0,0.0,0.0,0.0,0.0,0.0,0.0,0.0,0.0,0.0,0.0,0.0,0.0,0.0,0.0,0.0,0.0,0.0,-4.2919,-4.2975,-4.3067,-4.3178,-4.3357,-4.4095,-4.4585,-4.4788,-4.5151,-4.5307,-4.5307,-4.5307,-4.5307,-4.5307,-4.5307,-4.538,-4.5504,-4.5554,-4.572,-4.5938,-4.5988,-4.6091,0.0,0.0,0.0,0.0,0.0,0.0,0.0,0.0,-4.1094,-4.1109,-4.1104,-4.1105,-4.1108,-4.1097,-4.1107,-4.1107,-4.1107,-4.1107,-4.1107,-4.1107,-4.1107,0.0,0.0,-4.1107,-4.1107,-4.1107,-4.1107,0.0,0.0,0.0,-4.4166,-4.5923,-4.6199,-4.6138,-4.5919,-4.5783,-4.5623,-4.5456,-4.533,-4.5246,-4.5246,-4.5203,-4.5136,-4.508,-4.5014,-4.4967,-4.4895,-4.4895,-4.4895,-4.4895,-4.4895,-4.4895,-4.4895,-4.4895,-4.4895,-4.4895,-4.4895,-4.4895,-4.4895,-4.4895,-4.4943,-4.5045,-4.5091,-4.5159,-4.5254,-4.5611,-4.58,-4.5994,-4.7163,-4.7777,-4.8066,-4.8592,-4.8456,-4.7988,0.0,0.0,0.0,0.0,0.0,0.0,0.0,0.0,0.0,0.0,0.0,0.0,0.0,0.0,0.0,0.0,0.0,0.0,0.0,-4.2755,-4.2901,-4.2901,-4.2994,-4.3105,-4.3215,-4.3855,-4.4327,-4.4637,-4.5087,-4.5307,-4.5307,-4.5307,-4.5307,-4.5307,-4.5307,-4.535,-4.5429,-4.5476,-4.5602,-4.577,-4.5871,-4.5822,0.0,0.0,0.0,0.0,0.0,0.0,0.0,0.0,-4.1109,-4.1093,-4.1099,-4.1101,-4.1107,-4.1103,-4.1107,-4.1107,-4.1107,-4.1107,-4.1107,-4.1107,0.0,0.0,-4.1107,-4.1107,-4.1107,-4.1107,-4.1302,-4.1828,-4.2978,0.0,0.0,-4.5595,-4.5983,-4.6098,-4.6012,-4.5796,-4.5592,-4.5507,-4.5381,-4.5307,-4.5307,-4.5265,-4.5203,-4.5136,-4.5091,-4.5026,-4.4955,-4.4931,-4.4931,-4.4931,-4.4907,-4.4895,-4.4895,-4.4895,-4.4895,-4.4895,-4.4895,-4.4895,-4.4895,-4.4895,-4.4931,-4.4991,-4.508,-4.5136,-4.5203,-4.5275,-4.5391,-4.5645,-4.6423,-4.6873,-4.715,-4.7754,-4.7599,-4.7092,0.0,0.0,0.0,0.0,0.0,0.0,0.0,0.0,0.0,0.0,0.0,0.0,0.0,0.0,0.0,0.0,0.0,0.0,0.0,-4.2448,-4.2901,-4.2901,-4.2901,-4.3105,-4.3497,-4.3756,-4.4035,-4.4303,-4.4965,-4.5297,-4.5307,-4.5307,-4.5307,-4.5307,-4.5307,-4.5307,-4.5317,-4.5438,-4.5491,-4.5525,-4.5777,-4.5415,-4.4705,0.0,0.0,0.0,0.0,0.0,0.0,0.0,-4.1102,-4.1093,-4.1091,-4.1095,-4.1107,-4.1103,-4.111,-4.1107,-4.1107,-4.1107,-4.1107,-4.1107,0.0,0.0,-4.1107,-4.1107,-4.1107,-4.1107,-4.1731,-4.2296,-4.2296,-4.3702,0.0,-4.4874,-4.5501,-4.5982,-4.5997,-4.5713,-4.549,-4.549,-4.5381,-4.5307,-4.5307,-4.5307,-4.5275,-4.5203,-4.5192,-4.517,-4.5103,-4.5045,-4.4991,-4.4991,-4.4931,-4.4895,-4.4895,-4.4895,-4.4895,-4.4895,-4.4895,-4.4895,-4.4895,-4.4895,-4.4931,-4.4991,-4.508,-4.5136,-4.5203,-4.5256,-4.5455,-4.5703,-4.571,-4.5911,-4.6199,-4.6199,-4.6199,-4.6199,0.0,0.0,0.0,0.0,0.0,0.0,0.0,0.0,0.0,0.0,0.0,0.0,0.0,0.0,0.0,0.0,0.0,0.0,0.0,-4.2448,-4.2901,-4.2901,-4.2901,-4.2975,-4.3087,-4.3719,-4.4308,-4.4857,-4.5061,-4.5203,-4.5307,-4.5307,-4.5307,-4.5307,-4.5307,-4.5307,-4.5307,-4.5339,-4.5419,-4.5453,-4.4922,-4.4665,-4.4511,0.0,0.0,0.0,0.0,0.0,0.0,0.0,0.0,0.0,-4.1093,-4.1091,-4.1097,-4.1107,-4.1095,-4.1107,-4.1107,-4.1107,0.0,-4.1107,0.0,0.0,0.0,-4.1107,0.0,0.0,-4.1283,-4.1633,-4.2198,-4.2724,-4.3237,-4.3765,-4.4545,-4.5057,-4.4956,-4.5272,-4.549,-4.549,-4.5381,-4.5307,-4.5307,-4.5307,-4.5275,-4.5203,-4.5192,-4.517,-4.5103,-4.5091,-4.508,-4.508,-4.5057,-4.5045,-4.5045,-4.5045,-4.5033,-4.4967,-4.4967,-4.4962,-4.4895,-4.4895,-4.4931,-4.4991,-4.508,-4.5136,-4.5213,-4.5371,-4.553,-4.5717,-4.5853,-4.6037,-4.6199,-4.6199,-4.6199,-4.6199,0.0,0.0,0.0,0.0,0.0,0.0,0.0,0.0,0.0,0.0,-3.8209,0.0,0.0,0.0,0.0,0.0,0.0,0.0,0.0,0.0,-4.2574,-4.2901,-4.2901,-4.2995,-4.3214,-4.3802,-4.4397,-4.5014,-4.5125,-4.5213,-4.5307,-4.5307,-4.5307,-4.5307,-4.5307,-4.5307,-4.5307,-4.5307,-4.5148,-4.4854,-4.4392,-4.3898,-4.335,0.0,0.0,0.0,0.0,0.0,0.0,0.0,0.0,0.0,-4.1108,-4.1094,-4.1092,-4.1097,-4.1109,-4.1098,-4.1098,-4.1103,0.0,-4.1107,-4.1107,-4.1107,-4.1107,0.0,0.0,0.0,-4.1341,-4.1633,-4.1789,-4.231,-4.2762,-4.2864,-4.3538,-4.4021,-4.4002,-4.424,-4.4449,-4.4509,-4.4384,-4.4303,-4.4303,-4.4303,-4.4293,-4.4262,-4.4251,-4.4241,-4.4179,-4.4157,-4.4146,-4.4146,-4.4124,-4.4113,-4.4113,-4.4113,-4.4091,-4.4057,-4.4057,-4.4186,-4.4474,-4.4792,-4.4955,-4.5003,-4.5164,-4.5251,-4.5322,-4.5516,-4.5679,-4.5841,-4.5956,-4.6084,-4.6199,-4.6199,-4.6199,-4.6199,0.0,0.0,0.0,0.0,0.0,0.0,0.0,0.0,0.0,0.0,-3.8209,-3.8209,0.0,0.0,0.0,0.0,0.0,0.0,0.0,0.0,-4.2012,-4.2755,-4.2846,-4.3142,-4.3679,-4.3952,-4.4341,-4.487,-4.5136,-4.5286,-4.5307,-4.5307,-4.5307,-4.5307,-4.5307,-4.5307,-4.5288,-4.522,-4.4723,-4.3997,-4.3981,-4.3052,-4.1713,-4.1897,0.0,0.0,0.0,0.0,0.0,0.0,0.0,0.0,-4.1108,-4.1091,-4.1093,-4.1091,-4.1095,-4.1094,-4.1109,-4.1103,-4.1107,-4.1107,-4.1107,0.0,-4.1107,-4.1107,-4.1107,-4.1107,0.0,-4.1965,-4.1218,-4.2229,-4.2908,-4.2092,-4.2472,-4.2919,-4.3039,-4.29,-4.2852,-4.2975,-4.2871,-4.2794,-4.2794,-4.2794,-4.2794,-4.2794,-4.2794,-4.2794,-4.2794,-4.2744,-4.2713,-4.2713,-4.2642,-4.261,-4.261,-4.261,-4.2629,-4.2599,-4.2599,-4.3001,-4.3746,-4.4524,-4.4938,-4.5042,-4.5304,-4.5462,-4.5533,-4.5667,-4.5841,-4.6002,-4.6012,-4.6089,-4.6199,-4.6199,-4.6199,-4.6199,0.0,0.0,0.0,0.0,0.0,0.0,0.0,0.0,0.0,0.0,0.0,0.0,0.0,0.0,0.0,0.0,0.0,0.0,0.0,0.0,-4.1777,-4.194,-4.2556,-4.3142,-4.3679,-4.3852,-4.4221,-4.4732,-4.4914,-4.5103,-4.5307,-4.5307,-4.5307,-4.5307,-4.5307,-4.5307,-4.5269,-4.4571,-4.4159,-4.3892,-4.2604,-4.1931,-4.1638,-4.1119,-4.0884,0.0,0.0,0.0,0.0,0.0,0.0,0.0,-4.1095,-4.1105,-4.1093,-4.1091,-4.1095,-4.1107,-4.1095,-4.1097,0.0,-4.1107,-4.1107,-4.1107,-4.1107,-4.1107,-4.1107,-4.1107,-4.1244,-4.1266,-4.0991,-4.1213,-4.1299,-4.0905,-4.1478,-4.1956,-4.1881,-4.2393,-4.2814,-4.2843,-4.2823,-4.2794,-4.2794,-4.2794,-4.2794,-4.2794,-4.2794,-4.2794,-4.2794,-4.2784,-4.2774,-4.2774,-4.2764,-4.2754,-4.2754,-4.2754,-4.2733,-4.2682,-4.2682,-4.2801,-4.3044,-4.374,-4.4527,-4.5333,-4.5552,-4.5645,-4.5667,-4.5853,-4.5961,-4.6007,-4.6126,-4.6165,-4.6199,-4.6199,-4.6199,-4.6199,0.0,0.0,0.0,0.0,0.0,0.0,0.0,0.0,0.0,0.0,0.0,0.0,0.0,0.0,0.0,0.0,0.0,0.0,0.0,0.0,0.0,-4.2248,-4.2683,-4.3142,-4.3679,-4.3775,-4.4132,-4.4802,-4.4877,0.0,0.0,0.0,0.0,-4.5307,-4.5307,-4.5307,-4.5239,-4.4369,-4.3777,-4.331,-4.2011,-4.1313,-4.0992,-4.0635,-4.0597,-4.0735,-4.0922,0.0,0.0,0.0,0.0,0.0,0.0,0.0,-4.1106,-4.1094,-4.1107,-4.1108,-4.1096,0.0,0.0,-4.1107,0.0,-4.1107,-4.1107,-4.1107,-4.1107,-4.1107,-4.1041,-4.0996,-4.0992,-4.0839,-4.0681,-4.0602,-4.0838,-4.1013,-4.0931,-4.1323,-4.1609,-4.1609,-4.1609,-4.1609,-4.1609,-4.1609,-4.1628,-4.1682,-4.1647,-4.1628,-4.171,-4.1638,-4.1609,-4.1609,-4.1665,-4.1691,-4.1691,-4.1691,-4.1707,-4.1739,-4.1672,-4.1899,-4.2417,-4.3565,-4.4407,-4.4993,-4.5583,-4.5847,-4.5859,-4.6032,-4.6093,-4.6098,-4.6162,-4.6199,-4.6199,-4.6199,-4.6199,-4.6199,0.0,0.0,0.0,0.0,0.0,0.0,0.0,0.0,0.0,0.0,0.0,0.0,0.0,0.0,0.0,0.0,0.0,0.0,0.0,0.0,0.0,0.0,-4.2866,-4.3178,-4.3612,-4.3712,-4.4102,-4.4808,0.0,0.0,0.0,0.0,0.0,-4.5307,0.0,-4.522,-4.501,-4.4169,-4.3329,-4.2507,-4.1648,-4.0883,-4.0301,-4.0366,-4.0477,-4.0578,-4.0815,-4.096,-4.1064,-4.108,0.0,0.0,0.0,0.0,-4.1094,-4.1109,-4.0996,-4.089,-4.0888,0.0,-4.064,-4.064,-4.064,0.0,-4.064,-4.0776,-4.0874,-4.0874,-4.0906,-4.0952,-4.1041,-4.0782,-4.0581,-4.0649,-4.0484,-4.0328,-4.031,-4.0301,-4.0301,-4.0301,-4.0301,-4.0301,-4.0301,-4.0301,-4.0354,-4.0481,-4.0396,-4.0388,-4.0527,-4.0438,-4.0363,-4.0363,-4.0484,-4.0534,-4.0534,-4.0534,-4.0586,-4.0662,-4.0586,-4.0961,-4.1776,-4.3324,-4.4137,-4.437,-4.5218,-4.5677,-4.5818,-4.5936,-4.6063,-4.6199,-4.6199,-4.6199,-4.6199,-4.6199,-4.6199,-4.6199,0.0,0.0,0.0,0.0,0.0,0.0,0.0,0.0,0.0,0.0,-3.8209,0.0,0.0,0.0,0.0,0.0,0.0,0.0,0.0,0.0,0.0,0.0,-4.2741,-4.3285,-4.3355,-4.3809,-4.4166,-4.4393,0.0,0.0,0.0,0.0,0.0,-4.5307,0.0,0.0,-4.4121,-4.331,-4.2469,-4.159,-4.0788,-4.0396,-4.0301,-4.0366,-4.0403,-4.0481,-4.0786,-4.0917,-4.0949,-4.1068,-4.1109,0.0,0.0,0.0,-4.1094,-4.1109,-4.0566,-3.9973,-3.9971,0.0,-3.885,0.0,-3.885,-3.885,0.0,0.0,-3.998,0.0,-4.0555,-4.1041,-4.0939,-4.0874,-4.079,-4.0571,-4.0489,-4.0427,-4.0329,-4.0301,-4.0301,-4.0301,-4.0301,-4.0301,-4.0301,-4.0301,-4.0354,-4.0481,-4.0473,-4.0534,-4.0662,-4.0649,-4.0642,-4.0642,-4.0662,-4.0668,-4.0668,-4.0668,-4.0615,-4.0527,-4.0622,-4.0794,-4.1063,-4.2112,-4.292,-4.3568,-4.3802,-4.4347,-4.5055,-4.5066,-4.5517,-4.6199,-4.6199,-4.6199,-4.6199,-4.6199,-4.6199,-4.6199,0.0,0.0,0.0,0.0,0.0,0.0,0.0,0.0,0.0,0.0,0.0,-3.8209,0.0,0.0,0.0,0.0,0.0,0.0,0.0,0.0,0.0,0.0,-4.2595,-4.3214,-4.3511,-4.3761,-4.4117,0.0,0.0,0.0,0.0,-4.5275,-4.5307,0.0,0.0,0.0,0.0,-4.2622,-4.1839,-4.1418,-4.0616,-4.0301,-4.0291,0.0,0.0,-4.0434,-4.0682,-4.0834,-4.0914,-4.1046,-4.1109,-4.1109,-4.1109,0.0,0.0,0.0,-3.9746,-3.9072,-3.9072,-3.8789,-3.85,0.0,-3.85,-3.85,-3.85,-3.8792,-3.9065,-3.9065,-3.9766,-4.0497,-4.0929,-4.0898,-4.0742,-4.0629,-4.0557,-4.0484,-4.0422,-4.0355,-4.0364,-4.0516,-4.0398,-4.0354,-4.0516,-4.0452,-4.0508,-4.0706,-4.0649,-4.0668,-4.0793,-4.0736,-4.0694,-4.0694,-4.0765,-4.0784,-4.07,-4.0694,-4.0668,-4.0609,-4.0828,-4.0967,-4.1023,-4.1445,-4.2045,-4.2809,-4.3353,-4.3815,-4.4169,-4.4169,-4.4403,-4.4734,-4.4734,-4.4734,-4.4734,-4.4734,-4.4734,-4.4734,0.0,0.0,0.0,0.0,0.0,0.0,0.0,0.0,0.0,0.0,0.0,0.0,0.0,0.0,0.0,0.0,0.0,0.0,0.0,0.0,0.0,0.0,0.0,-4.3178,-4.3595,-4.3728,0.0,0.0,0.0,0.0,-4.5307,-4.5067,-4.4972,0.0,-4.4293,-4.3758,0.0,0.0,0.0,0.0,0.0,0.0,0.0,0.0,0.0,0.0,0.0,0.0,0.0,0.0,-4.0924,-4.0777,-4.0777,-4.0171,0.0,0.0,0.0,0.0,0.0,0.0,-3.7837,-3.7837,-3.7837,-3.7837,0.0,0.0,-3.8168,0.0,-3.887,-3.9669,-4.0312,-4.0643,-4.0782,-4.0767,-4.0662,-4.0581,-4.0564,-4.046,-4.0476,-4.0675,-4.0519,-4.0484,-4.0675,-4.0602,-4.0642,-4.0874,-4.0812,-4.0782,-4.0883,-4.0812,-4.0645,-4.0432,-4.0474,-4.0392,-4.0148,-4.0333,-4.0546,-4.0793,-4.0975,-4.1071,-4.1107,-4.1107,-4.1438,-4.2023,-4.2685,-4.3075,-4.327,-4.327,-4.3406,-4.3601,-4.3601,-4.3601,-4.3601,-4.3601,-4.3601,-4.3601,0.0,0.0,0.0,0.0,0.0,0.0,0.0,0.0,0.0,0.0,0.0,0.0,0.0,0.0,-3.8209,-3.8209,-3.8209,-3.8227,-3.8263,-3.9677,-4.051,0.0,0.0,0.0,-4.332,-4.3825,0.0,0.0,0.0,0.0,-4.5288,-4.4456,-4.4064,-4.4064,-4.4025,-4.3119,-4.1609,0.0,0.0,0.0,0.0,0.0,0.0,0.0,0.0,0.0,0.0,0.0,0.0,0.0,0.0,0.0,0.0,-3.9312,-3.8669,0.0,0.0,0.0,0.0,-3.6033,0.0,-3.6045,-3.6045,-3.6045,0.0,0.0,-3.7272,-3.7272,-3.7954,-3.8578,-3.8636,-3.9974,-4.1038,-4.0917,-4.0874,-4.0839,-4.0706,-4.0681,-4.0681,-4.0694,-4.0681,-4.0681,-4.0694,-4.0687,-4.0742,-4.0898,-4.0883,-4.0883,-4.0907,-4.0883,-4.051,-3.967,-3.9531,-3.919,-3.8624,-3.931,-4.0146,-4.1078,-4.0952,-4.098,-4.1107,-4.1107,-4.1127,-4.1166,-4.1205,-4.1653,-4.2374,-4.2374,-4.2841,-4.3601,-4.3601,-4.3601,-4.3601,-4.3601,-4.3601,-4.3601,0.0,0.0,0.0,0.0,0.0,0.0,0.0,0.0,0.0,0.0,0.0,0.0,0.0,-3.8209,-3.8209,-3.8209,-3.8663,-3.897,-3.897,-4.0419,-4.127,-4.127,0.0,-4.3196,-4.3545,-4.3839,0.0,0.0,0.0,-4.484,-4.4456,-4.414,-4.3433,-4.2393,-4.2393,-4.2068,-4.1457,-4.096,0.0,0.0,0.0,0.0,0.0,0.0,0.0,0.0,0.0,0.0,0.0,0.0,0.0,0.0,0.0,0.0,0.0,0.0,0.0,0.0,0.0,0.0,0.0,-3.5908,-3.5908,-3.5908,-3.5908,-3.6142,-3.6376,-3.6376,-3.7058,-3.7662,-3.7662,-3.8636,-3.939,-3.9246,-3.9232,-3.9219,-3.916,-3.9091,-3.9102,-3.9278,-3.9134,-3.9073,-3.9146,-3.9077,-3.9054,-3.911,-3.909,-3.909,-3.909,-3.909,-3.9005,-3.8775,-3.8729,-3.8582,-3.8366,-3.8624,-3.9231,-4.0139,-4.0182,-4.0519,-4.1107,-4.1107,-4.1107,-4.1107,-4.1107,-4.1263,-4.1536,-4.1536,-4.1711,-4.2003,-4.2003,-4.2003,-4.2003,-4.2003,-4.2003,-4.2003,0.0,0.0,0.0,0.0,0.0,0.0,0.0,0.0,0.0,0.0,0.0,0.0,0.0,0.0,-3.8317,-3.8589,-3.9315,-3.9767,-3.9767,-4.0981,-4.1705,-4.1705,-4.2466,-4.3142,-4.3679,-4.3513,-4.3907,0.0,0.0,0.0,0.0,-4.3414,-4.2565,-4.1495,-4.1227,-4.1094,0.0,0.0,0.0,-4.0301,0.0,0.0,-4.0301,0.0,0.0,0.0,0.0,0.0,0.0,0.0,0.0,0.0,0.0,0.0,0.0,0.0,0.0,0.0,-3.594,0.0,0.0,0.0,-3.5908,-3.5908,-3.5908,-3.5908,-3.5908,-3.5908,-3.6356,-3.6766,-3.6766,-3.7233,-3.7783,-3.8296,-3.8366,-3.8366,-3.8366,-3.8291,-3.8287,-3.8419,-3.8287,-3.8174,-3.8224,-3.8158,-3.8088,-3.81,-3.8106,-3.81,-3.8094,-3.8094,-3.8012,-3.7793,-3.7607,-3.7599,-3.7858,-3.7902,-3.8366,-3.9221,-3.9315,-3.9825,-4.0659,-4.0659,-4.0815,-4.1107,-4.1107,-4.1107,-4.1107,-4.1107,-4.1107,-4.1107,-4.1107,-4.1107,-4.1107,-4.1107,-4.1107,-4.1107,0.0,0.0,0.0,0.0,0.0,0.0,0.0,0.0,0.0,0.0,0.0,0.0,0.0,0.0,0.0,-3.9351,-4.0111,-4.0528,-4.0528,-4.1288,-4.1741,-4.1741,-4.2502,-4.316,-4.3679,-4.2918,-4.3282,0.0,0.0,0.0,0.0,0.0,-4.1495,-4.1418,-4.0654,-4.0301,-4.0301,0.0,-4.0301,-4.0301,0.0,-4.0301,-4.0301,0.0,0.0,0.0,-3.8973,-3.8534,0.0,-3.795,0.0,0.0,0.0,0.0,0.0,0.0,0.0,0.0,0.0,0.0,0.0,0.0,-3.5892,-3.5908,-3.5908,-3.5908,-3.5908,-3.5908,-3.5908,-3.5908,-3.5908,-3.5908,-3.6454,-3.8149,-3.8422,-3.8422,-3.8422,-3.8422,-3.8361,-3.8233,-3.8225,-3.819,-3.8039,-3.8028,-3.8028,-3.8028,-3.8028,-3.8036,-3.8038,-3.8019,-3.7632,-3.6795,-3.6203,-3.6232,-3.6957,-3.7105,-3.7603,-3.8461,-3.8461,-3.8928,-3.9766,-3.9766,-4.0234,-4.1049,-4.1049,-4.1088,-4.1107,-4.1107,-4.1107,-4.1107,-4.1107,-4.1107,-4.1107,-4.1107,-4.1107,-4.1107,0.0,0.0,0.0,0.0,0.0,0.0,0.0,0.0,0.0,0.0,0.0,0.0,0.0,0.0,-3.9948,-4.0184,-4.0908,-4.1361,-4.1361,-4.2122,-4.2574,-4.2574,-4.296,-4.3355,-4.3695,-4.3199,-4.325,0.0,0.0,0.0,0.0,-4.1676,0.0,0.0,-4.0396,-4.0301,-4.0301,-4.0301,0.0,-4.0301,-4.0301,-4.0301,0.0,0.0,0.0,0.0,0.0,-3.757,-3.6926,0.0,-3.653,-3.5935,0.0,0.0,0.0,0.0,0.0,0.0,-3.5996,0.0,0.0,0.0,0.0,0.0,-3.5908,-3.5908,-3.5908,-3.5908,-3.5908,-3.5908,-3.5908,-3.5908,-3.6064,-3.6532,-3.6629,-3.6629,-3.6629,-3.6629,-3.6604,-3.6567,-3.6567,-3.6517,-3.6371,-3.6362,-3.6333,-3.6295,-3.6289,-3.6289,-3.6284,-3.6338,-3.6255,-3.6003,-3.594,-3.6,-3.6197,-3.6231,-3.6707,-3.7564,-3.7564,-3.8013,-3.887,-3.887,-3.9337,-4.0156,-4.0156,-4.0526,-4.1107,-4.1107,-4.1107,-4.1107,-4.1107,-4.1107,-4.1107,-4.1107,-4.1107,-4.1107,0.0,0.0,0.0,0.0,0.0,0.0,0.0,0.0,0.0,0.0,0.0,0.0,0.0,0.0,0.0,-4.0999,-4.1741,-4.2067,-4.1723,-4.214,-4.2248,-4.1904,-4.2157,-4.2434,-4.268,-4.2221,-4.2289,-4.297,-4.1885,-4.1364,-4.1288,-4.1044,-4.0702,0.0,0.0,0.0,0.0,0.0,0.0,0.0,-3.9747,0.0,0.0,-3.8648,-3.8247,0.0,0.0,0.0,-3.5974,-3.6048,-3.5843,0.0,0.0,0.0,0.0,0.0,0.0,0.0,0.0,0.0,0.0,0.0,0.0,0.0,-3.5908,-3.5908,-3.5908,-3.5908,-3.5908,-3.5908,-3.5908,-3.5908,-3.5908,-3.5908,-3.5908,-3.5908,-3.5908,-3.5908,-3.588,-3.5811,-3.5827,-3.5779,-3.5669,-3.566,-3.5636,-3.5593,-3.5607,-3.5609,-3.5631,-3.5725,-3.579,-3.579,-3.5849,-3.5908,-3.5908,-3.5908,-3.6142,-3.6668,-3.6668,-3.7116,-3.7954,-3.7954,-3.8422,-3.926,-3.926,-3.9552,-4.0039,-4.0409,-4.0776,-4.1107,-4.1107,-4.1107,-4.1107,-4.1107,-4.1107,-4.1107,0.0,0.0,0.0,0.0,0.0,0.0,0.0,0.0,0.0,0.0,0.0,0.0,0.0,0.0,0.0,0.0,-4.2212,-4.2321,-4.1614,-4.156,-4.127,-4.0582,-4.0806,-4.1073,-4.1323,-4.0764,-4.0967,-4.2027,-4.0479,-4.0208,-4.1134,-4.044,-4.0195,-4.0301,0.0,0.0,0.0,0.0,0.0,-3.8725,-3.882,-3.8381,0.0,0.0,-3.712,-3.6481,-3.6385,-3.5851,-3.5209,-3.5218,-3.5373,0.0,0.0,0.0,0.0,0.0,-3.5992,0.0,0.0,0.0,0.0,0.0,-3.5903,0.0,-3.5775,-3.5752,-3.5733,-3.5636,-3.5694,-3.5752,-3.5752,-3.583,-3.5908,-3.5908,-3.5908,-3.5908,-3.5908,-3.5908,-3.5869,-3.5741,-3.571,-3.57,-3.5635,-3.5625,-3.5625,-3.5625,-3.5625,-3.5665,-3.5729,-3.5837,-3.5908,-3.5908,-3.5908,-3.5908,-3.5908,-3.5908,-3.5908,-3.5908,-3.5908,-3.6317,-3.7058,-3.7058,-3.7525,-3.8363,-3.8363,-3.8402,-3.8558,-3.9337,-4.0175,-4.0971,-4.1049,-4.1107,-4.1107,-4.1107,-4.1107,-4.1107,0.0,0.0,0.0,0.0,0.0,0.0,0.0,0.0,0.0,0.0,0.0,0.0,0.0,0.0,0.0,0.0,-4.0872,-4.0908,-4.0727,-4.0727,-4.0762,-4.0825,-4.1089,-4.1323,-4.1545,-4.0988,-4.0847,-4.1061,-4.0268,-3.9965,-4.0171,-4.0233,-4.0263,-4.0263,0.0,0.0,0.0,0.0,0.0,-3.7035,-3.7693,0.0,-3.7636,-3.6986,-3.6634,-3.6405,-3.5698,-3.5335,-3.5218,-3.5262,-3.5386,-3.553,0.0,0.0,0.0,-3.5985,0.0,0.0,0.0,0.0,0.0,0.0,-3.5934,0.0,-3.5,-3.4856,-3.4664,-3.4021,-3.4391,-3.4856,-3.4856,-3.5421,-3.5908,-3.5908,-3.5908,-3.5908,-3.5908,-3.5908,-3.5886,-3.5852,-3.5852,-3.5866,-3.5833,-3.5833,-3.5833,-3.5833,-3.5833,-3.5859,-3.5852,-3.5883,-3.5908,-3.5908,-3.5908,-3.5908,-3.5908,-3.5908,-3.5908,-3.5908,-3.5908,-3.5986,-3.6142,-3.6142,-3.6629,-3.7448,-3.7448,-3.7857,-3.8519,-3.8675,-3.9279,-4.0117,-4.0835,-4.1107,-4.1107,-4.1107,-4.1107,-4.1107,0.0,0.0,0.0,0.0,0.0,0.0,0.0,0.0,0.0,0.0,0.0,0.0,0.0,0.0,0.0,0.0,0.0,0.0,0.0,0.0,-3.982,-3.9557,-3.9911,-4.0152,-4.0255,-4.0257,-4.0239,-4.0239,-4.0019,-3.9933,-4.0005,-4.0137,-3.9967,-3.9538,0.0,0.0,0.0,0.0,-3.6863,-3.6538,-3.6939,0.0,-3.6413,-3.6003,-3.5851,-3.5793,-3.5362,-3.5218,-3.525,-3.5335,-3.5418,0.0,-3.5626,-3.5764,-3.5914,0.0,-3.598,-3.5992,0.0,0.0,0.0,-3.5469,0.0,0.0,0.0,-3.3994,-3.3885,-3.3475,-3.3729,-3.4002,-3.4002,-3.4683,-3.5246,-3.5246,-3.5616,-3.5908,-3.5908,-3.5908,-3.5908,-3.5908,-3.5908,-3.5908,-3.5908,-3.5908,-3.5908,-3.5908,-3.5908,-3.5908,-3.5908,-3.5908,-3.5908,-3.5908,-3.5908,-3.5908,-3.5908,-3.5908,-3.5908,-3.5908,-3.5908,-3.5908,-3.5908,-3.5908,-3.6142,-3.6551,-3.6551,-3.6805,-3.7233,-3.7662,-3.811,-3.8597,-3.9454,-4.0078,-4.0448,-4.0448,-4.0737,-4.1094,-3.3408,0.0,0.0,0.0,0.0,0.0,0.0,0.0,0.0,0.0,0.0,0.0,0.0,0.0,0.0,0.0,0.0,0.0,0.0,0.0,0.0,-3.8276,-3.8621,-3.8877,-3.8993,-3.9427,-3.967,-3.9739,-3.9859,-3.9899,-3.984,-3.9879,-3.9423,0.0,0.0,0.0,0.0,0.0,0.0,-3.6252,0.0,-3.5832,-3.5209,-3.5209,-3.5209,-3.5209,-3.5218,-3.5242,-3.5308,-3.5383,-3.5451,-3.5521,-3.5604,-3.5745,0.0,0.0,0.0,0.0,0.0,0.0,0.0,0.0,0.0,-3.4212,0.0,0.0,0.0,-3.293,-3.3027,-3.3144,-3.3144,-3.3826,-3.4372,-3.4372,-3.4954,-3.5421,-3.5421,-3.5421,-3.5538,-3.585,-3.5908,-3.5908,-3.5908,-3.5908,-3.5908,-3.5908,-3.5908,-3.5908,-3.5908,-3.5908,-3.5908,-3.5908,-3.5908,-3.5908,-3.5908,-3.5908,-3.5908,-3.5908,-3.5908,-3.5908,-3.5908,-3.5908,-3.5908,-3.5908,-3.5908,-3.5908,-3.5947,-3.6668,-3.6941,-3.7058,-3.809,-3.8928,-3.9552,-3.9552,-4.0003,-4.0622,-3.3393,-3.3393,0.0,0.0,0.0,0.0,0.0,0.0,0.0,0.0,0.0,0.0,0.0,0.0,0.0,0.0,0.0,0.0,-3.806,0.0,0.0,0.0,-3.8525,-3.8796,-3.9324,-3.9401,-3.9575,-3.9878,-4.0015,-3.9697,-3.8946,-3.9061,-3.8668,0.0,-3.7092,0.0,0.0,0.0,-3.5362,0.0,-3.5362,-3.5286,0.0,-3.5209,-3.5209,-3.5209,-3.5269,-3.5289,-3.5308,0.0,-3.549,-3.5599,0.0,-3.5787,-3.5919,-3.5978,0.0,0.0,0.0,0.0,0.0,0.0,-3.3554,0.0,-3.2454,0.0,-3.2034,-3.1249,0.0,-3.2248,-3.2248,0.0,0.0,-3.3534,-3.3612,-3.369,-3.369,-3.369,-3.4235,-3.5713,-3.5908,-3.5908,-3.5908,-3.5908,-3.5908,-3.5908,-3.5908,-3.5908,-3.5908,-3.5908,-3.5908,-3.5908,-3.5908,-3.5908,-3.5908,-3.5908,-3.5908,-3.5908,-3.5908,-3.5908,-3.5908,-3.5908,-3.5908,-3.5908,-3.5908,-3.5908,-3.5908,-3.6006,-3.6045,-3.6201,-3.7857,-3.8558,-3.8656,-3.8656,-3.8719,-3.8902,-3.3393,-3.3393,0.0,0.0,0.0,0.0,0.0,0.0,0.0,0.0,0.0,0.0,0.0,0.0,0.0,0.0,0.0,-3.7986,0.0,0.0,0.0,0.0,0.0,0.0,-3.9149,-3.952,-3.9558,-3.9256,-3.9404,-3.9023,-3.8165,-3.8229,-3.7762,0.0,-3.6617,0.0,-3.5668,0.0,-3.5209,0.0,0.0,0.0,0.0,-3.5209,-3.5209,-3.5218,-3.5281,-3.5293,-3.5315,0.0,-3.5489,0.0,0.0,0.0,0.0,-3.5907,0.0,0.0,0.0,0.0,0.0,0.0,0.0,0.0,-3.1534,0.0,-3.1239,-3.0884,0.0,0.0,0.0,0.0,0.0,0.0,-3.3066,-3.3397,-3.3397,-3.3397,-3.3826,-3.5012,-3.5148,-3.5343,-3.585,-3.5908,-3.5908,-3.5908,-3.5908,-3.5908,-3.5908,-3.5908,-3.5908,-3.5908,-3.5908,-3.5908,-3.5908,-3.5908,-3.5908,-3.5908,-3.5908,-3.5908,-3.5908,-3.5908,-3.5908,-3.5908,-3.5908,-3.5908,-3.5908,-3.5908,-3.5908,-3.5967,-3.6707,-3.7292,-3.7743,-3.7744,-3.8075,-3.8541,-3.3393,0.0,0.0,0.0,0.0,0.0,0.0,0.0,0.0,0.0,0.0,0.0,-3.5704,-3.6443,0.0,0.0,-3.7695,-3.8055,0.0,0.0,-3.8196,0.0,0.0,0.0,0.0,-3.886,-3.8917,-3.848,-3.8603,-3.8209,-3.7368,-3.7368,-3.6875,-3.6004,0.0,-3.576,-3.5136,0.0,-3.5209,-3.5209,-3.5209,-3.5209,-3.5209,-3.5209,-3.5209,-3.5234,-3.5285,-3.5315,-3.5357,-3.546,-3.5508,0.0,-3.5618,-3.5683,-3.5728,0.0,0.0,0.0,-3.412,0.0,0.0,0.0,0.0,0.0,0.0,0.0,0.0,0.0,-3.0808,0.0,0.0,0.0,0.0,0.0,0.0,-3.2694,-3.2694,-3.2694,-3.3083,-3.4138,-3.4274,-3.4528,-3.5148,-3.5207,-3.5304,-3.5538,-3.5538,-3.5655,-3.5889,-3.5908,-3.5908,-3.5908,-3.5908,-3.5908,-3.5908,-3.5908,-3.5908,-3.5908,-3.5908,-3.5908,-3.5908,-3.5908,-3.5908,-3.5908,-3.5908,-3.5908,-3.5908,-3.5908,-3.5897,-3.5907,-3.5907,-3.6302,-3.6879,-3.6852,-3.7256,-3.7858,-3.3393,-3.3393,0.0,0.0,0.0,0.0,0.0,0.0,0.0,0.0,0.0,0.0,0.0,0.0,0.0,0.0,0.0,-3.7703,-3.7899,0.0,-3.7661,0.0,0.0,-3.7147,0.0,0.0,-3.7343,-3.7642,-3.7715,-3.733,-3.6538,-3.6538,-3.6061,-3.5239,-3.5239,-3.522,-3.5201,-3.5201,-3.5209,-3.5209,-3.5209,-3.5209,-3.5209,0.0,-3.5234,-3.5293,-3.5293,0.0,0.0,-3.5486,-3.5534,-3.5604,-3.5683,0.0,0.0,0.0,0.0,0.0,0.0,0.0,0.0,-3.1055,0.0,0.0,0.0,0.0,-3.0792,0.0,0.0,0.0,0.0,0.0,0.0,0.0,0.0,0.0,0.0,-3.0879,-3.1522,-3.3222,-3.3436,-3.3456,-3.3475,-3.3475,-3.3807,-3.4586,-3.4645,-3.5012,-3.585,-3.5908,-3.5908,-3.5908,-3.5908,-3.5908,-3.5908,-3.5908,-3.5908,-3.5908,-3.5908,-3.5908,-3.5908,-3.5908,-3.5908,-3.5908,-3.5908,-3.5908,-3.5908,-3.5908,-3.5892,-3.59,-3.59,-3.5956,-3.6027,-3.597,-3.6006,-3.6191,0.0,0.0,0.0,0.0,0.0,0.0,0.0,-3.3393,0.0,0.0,0.0,0.0,0.0,-3.4758,-3.5385,0.0,0.0,-3.6435,-3.6519,-3.6642,0.0,0.0,0.0,-3.6708,0.0,0.0,0.0,0.0,-3.6838,-3.6462,-3.5641,-3.5641,-3.5469,-3.5209,0.0,-3.5209,0.0,0.0,0.0,0.0,0.0,-3.5209,-3.5209,0.0,-3.5218,-3.5234,-3.5285,-3.5315,-3.5357,-3.546,-3.5515,-3.5444,-3.4932,-3.4837,-3.4763,-3.3994,-3.3402,-3.2852,-3.2267,-3.168,-3.1172,-3.0878,-3.0805,0.0,0.0,0.0,0.0,0.0,0.0,0.0,0.0,0.0,0.0,0.0,0.0,0.0,0.0,-3.0801,-3.1016,-3.16,-3.2694,-3.3397,-3.3397,-3.3397,-3.3514,-3.3787,-3.3807,-3.3924,-3.4235,-3.4742,-3.5032,-3.5032,-3.5597,-3.5908,-3.5908,-3.5908,-3.5908,-3.5908,-3.5908,-3.5908,-3.5908,-3.5908,-3.5908,-3.5908,-3.5908,-3.5908,-3.5908,-3.5908,-3.5892,-3.5901,-3.5901,-3.5945,-3.5996,-3.5975,-3.5976,-3.6033,-3.3393,0.0,0.0,0.0,0.0,0.0,0.0,0.0,0.0,0.0,-3.3319,0.0,-3.3622,0.0,-3.4718,0.0,-3.5496,-3.5804,-3.5804,-3.5921,0.0,-3.5385,-3.5721,0.0,0.0,0.0,0.0,0.0,0.0,-3.5755,-3.5209,-3.5209,-3.5209,-3.5209,0.0,-3.5209,-3.5209,-3.5209,-3.5209,0.0,0.0,-3.5037,0.0,0.0,-3.4969,-3.5234,-3.5289,-3.5116,-3.4877,-3.4966,-3.482,-3.4494,-3.4051,-3.3943,-3.3833,-3.3093,-3.2506,-3.2032,-3.1719,-3.1231,-3.08,-3.08,-3.08,-3.0804,-3.0793,0.0,-3.08,0.0,0.0,0.0,0.0,0.0,0.0,0.0,0.0,0.0,0.0,-3.0801,-3.0801,-3.0801,-3.1797,-3.2479,-3.2479,-3.2479,-3.2596,-3.291,-3.2949,-3.3066,-3.3378,-3.3885,-3.4294,-3.4586,-3.5148,-3.5597,-3.5908,-3.5908,-3.5733,-3.5441,-3.5441,-3.5441,-3.5441,-3.5441,-3.5616,-3.5908,-3.5908,-3.5908,-3.5908,-3.5908,-3.5892,-3.5903,-3.5932,-3.5951,-3.5995,-3.5995,-3.5993,-3.6009,0.0,0.0,0.0,0.0,-3.3393,0.0,0.0,0.0,-3.3411,0.0,-3.3393,-3.3701,-3.4446,-3.4537,-3.486,-3.5605,-3.5677,-3.5677,-3.5677,-3.5677,0.0,0.0,-3.4725,-3.4582,-3.4016,0.0,0.0,0.0,0.0,0.0,-3.5209,-3.5209,-3.5209,0.0,-3.5171,0.0,-3.5209,-3.5171,-3.5152,-3.5152,-3.5095,-3.4617,-3.3937,-3.3937,-3.445,-3.517,-3.5178,-3.4675,-3.403,-3.403,-3.3538,-3.2934,-3.3076,-3.3134,-3.2992,-3.2244,-3.2031,-3.1856,-3.1036,-3.08,-3.08,-3.08,-3.08,-3.08,-3.08,-3.0793,-3.0799,0.0,0.0,0.0,0.0,0.0,0.0,0.0,0.0,0.0,0.0,0.0,-3.0801,-3.0801,-3.0801,-3.0801,-3.0801,-3.0801,-3.1132,-3.1975,-3.2034,-3.2404,-3.3222,-3.332,-3.369,-3.445,-3.4567,-3.4993,-3.583,-3.5889,-3.546,-3.4606,-3.4606,-3.4606,-3.4606,-3.4606,-3.5071,-3.5908,-3.5908,-3.5908,-3.5908,-3.5908,-3.5892,-3.5905,-3.5966,-3.5995,-3.5994,-3.5994,-3.6008,-3.5992,-3.3393,-3.3393,-3.3393,0.0,-3.3393,-3.3393,0.0,0.0,0.0,0.0,-3.3319,-3.3421,-3.3484,-3.3626,-3.3791,-3.4009,-3.4027,0.0,0.0,0.0,0.0,-3.3719,-3.3901,-3.4014,-3.3998,-3.4386,-3.4694,-3.4908,0.0,0.0,-3.5209,0.0,0.0,0.0,0.0,0.0,-3.5171,-3.456,-3.4312,-3.4254,-3.3597,-3.3215,-3.3024,0.0,-3.3165,-3.3372,-3.3409,-3.3319,-3.3144,-3.3197,-3.3077,-3.2807,-3.2314,-3.2189,-3.2084,-3.1293,-3.1097,-3.1075,-3.0859,-3.08,-3.08,-3.08,-3.08,-3.08,-3.08,-3.0793,-3.0798,-3.081,-3.08,-3.0798,-3.0801,0.0,0.0,0.0,0.0,0.0,0.0,0.0,0.0,-3.0801,-3.0801,-3.0801,-3.0801,-3.0801,-3.0899,-3.1113,-3.1132,-3.123,-3.1464,-3.207,-3.2521,-3.2735,-3.3943,-3.4703,-3.4934,-3.5577,-3.546,-3.4606,-3.4606,-3.4606,-3.4606,-3.4606,-3.5071,-3.5908,-3.5908,-3.5908,-3.5908,-3.5908,-3.5892,-3.5905,-3.5966,-3.5996,-3.6,-3.6,-3.5998,-3.5992,-3.3393,0.0,0.0,-3.3393,0.0,0.0,-3.3393,-3.3393,0.0,-3.3241,-3.3334,0.0,-3.3241,-3.3334,-3.3393,-3.3393,-3.3393,0.0,-3.3393,0.0,0.0,-3.3393,-3.3506,-3.3671,-3.3908,-3.4184,0.0,-3.4803,0.0,0.0,-3.519,0.0,0.0,0.0,0.0,-3.3681,-3.4074,-3.3624,-3.3433,-3.3394,-3.2909,-3.2489,0.0,-3.2145,-3.1916,-3.1618,-3.1647,-3.1938,-3.2293,-3.2353,-3.2145,-3.1788,-3.1428,-3.1345,-3.1293,-3.088,-3.0768,-3.08,-3.08,-3.08,-3.08,-3.08,-3.08,-3.08,-3.08,-3.0808,-3.0792,-3.0803,-3.0795,-3.0799,-3.0795,-3.08,0.0,0.0,0.0,0.0,0.0,0.0,0.0,0.0,-3.0801,-3.0801,-3.0801,-3.0801,-3.0801,-3.0801,-3.0801,-3.0801,-3.0801,-3.1271,-3.1702,-3.2092,-3.3027,-3.3865,-3.4586,-3.509,-3.509,-3.4606,-3.4235,-3.4079,-3.4079,-3.4079,-3.4528,-3.5343,-3.5733,-3.5908,-3.5908,-3.5908,-3.5902,-3.5908,-3.5963,-3.5995,-3.5992,-3.5992,-3.5992,-3.5992,0.0,0.0,0.0,0.0,0.0,0.0,0.0,-3.3393,0.0,-3.3393,0.0,-3.3393,-3.3393,-3.3393,-3.3393,-3.3393,0.0,-3.3393,-3.3393,-3.3393,-3.3393,-3.3393,-3.3422,-3.3549,-3.3775,-3.3959,-3.4262,0.0,0.0,0.0,0.0,0.0,0.0,0.0,0.0,0.0,0.0,-3.2546,-3.2546,-3.2527,-3.2413,-3.1954,-3.1312,-3.1255,-3.0815,-3.0211,-3.0192,-3.0731,-3.1437,-3.1509,-3.107,-3.0513,-3.0653,-3.0709,-3.0717,-3.0773,-3.08,-3.08,-3.08,-3.08,-3.08,-3.08,-3.08,-3.08,-3.08,-3.08,-3.08,-3.08,-3.08,-3.08,-3.08,-3.08,0.0,0.0,0.0,0.0,0.0,0.0,0.0,0.0,-3.0808,0.0,-3.0796,-3.0799,-3.0801,-3.0801,-3.0801,-3.0801,-3.0801,-3.0801,-3.1152,-3.1917,-3.2034,-3.2793,-3.4255,-3.4489,-3.4547,-3.443,-3.3729,-3.3397,-3.3397,-3.3397,-3.3846,-3.4642,-3.5519,-3.5908,-3.5908,-3.5908,-3.5892,-3.5904,-3.5961,-3.5996,-3.5996,-3.5994,-3.5992,-3.5992,0.0,0.0,0.0,0.0,0.0,-3.3393,-3.3393,-3.3393,-3.3393,-3.3393,-3.3393,-3.3393,-3.3393,-3.3393,-3.3393,-3.3393,-3.3393,0.0,0.0,0.0,0.0,-3.3393,-3.3563,-3.3698,-3.3807,-3.4099,-3.4401,0.0,0.0,0.0,0.0,0.0,0.0,0.0,0.0,0.0,-3.1713,-3.1713,0.0,-3.1656,-3.093,-3.0548,-3.0433,-3.0414,-3.0319,-3.0192,-3.0194,-3.0349,-3.0542,-3.0615,-3.0573,-3.0513,-3.0653,-3.0709,-3.0717,-3.0773,-3.08,-3.08,-3.08,-3.08,-3.08,-3.08,-3.08,-3.08,-3.08,-3.08,-3.08,-3.08,-3.08,-3.08,-3.08,-3.0795,0.0,0.0,0.0,0.0,0.0,0.0,0.0,0.0,0.0,-3.079,-3.0714,-3.0769,-3.0801,-3.0801,-3.0801,-3.0801,-3.0801,-3.0801,-3.0879,-3.1016,-3.1722,-3.2248,-3.254,-3.3904,-3.4274,-3.3612,-3.3475,-3.3397,-3.3397,-3.3397,-3.3846,-3.4642,-3.5519,-3.5908,-3.5908,-3.5908,-3.5909,-3.5917,-3.5965,-3.5996,-3.5992,-3.5999,-3.5992,-3.5992,0.0,0.0,0.0,0.0,0.0,0.0,0.0,-3.3393,-3.3393,-3.3393,-3.3393,-3.3393,-3.3393,-3.3393,-3.3393,-3.3393,-3.3393,-3.3393,-3.3393,-3.3393,-3.3393,-3.3393,-3.352,-3.3633,-3.3684,-3.4023,-3.4127,-3.3961,0.0,0.0,0.0,0.0,0.0,0.0,0.0,-3.0796,0.0,0.0,-3.0835,-3.0796,-3.0376,-3.0211,-3.0211,-3.0211,-3.0211,-3.0192,-3.0206,-3.0273,-3.0375,-3.0467,-3.0527,-3.0583,-3.0713,-3.0741,-3.0764,-3.0796,-3.08,-3.08,-3.08,-3.08,-3.08,-3.08,-3.08,-3.08,-3.08,-3.08,-3.08,-3.08,-3.08,-3.0804,-3.0792,-3.0797,-3.08,-3.0798,-3.0793,0.0,0.0,0.0,-3.0808,0.0,0.0,0.0,0.0,-3.0754,-3.0745,-3.0742,-3.0774,-3.0801,-3.0801,-3.0801,-3.0801,-3.0801,-3.121,-3.1641,-3.2092,-3.3358,-3.3982,-3.4021,-3.3592,-3.3397,-3.3397,-3.3397,-3.3612,-3.406,-3.5343,-3.5908,-3.5908,-3.5908,-3.5892,-3.5905,-3.5966,-3.5995,-3.5994,-3.6,-3.5992,-3.5992,0.0,-3.3393,0.0,0.0,-3.3393,-3.3393,-3.3393,-3.3393,-3.3393,-3.3393,-3.3393,-3.3393,-3.3393,-3.3393,-3.3393,-3.3393,-3.3393,-3.3393,-3.3393,-3.3408,-3.3408,-3.3408,-3.3495,-3.3549,-3.3633,-3.3736,-3.365,0.0,0.0,0.0,-3.2413,0.0,0.0,0.0,0.0,0.0,0.0,0.0,-3.0211,-3.0211,-3.0211,-3.0211,-3.0211,-3.0211,-3.0211,-3.0192,-3.0221,-3.0303,-3.0409,-3.0576,-3.0626,-3.0639,-3.0764,-3.08,-3.08,-3.08,-3.08,-3.08,-3.08,-3.08,-3.08,-3.08,-3.08,-3.08,-3.08,-3.08,-3.08,-3.08,-3.08,-3.0805,-3.0796,-3.0797,-3.0799,-3.08,-3.0798,-3.0797,0.0,0.0,-3.0793,0.0,0.0,0.0,-3.0781,-3.0724,-3.0697,-3.0697,-3.0759,-3.0774,-3.0801,-3.0801,-3.0799,-3.0774,-3.0799,-3.1111,-3.1792,-3.2869,-3.3729,-3.4333,-3.3709,-3.3397,-3.3397,-3.3203,-3.3222,-3.3475,-3.4973,-3.5733,-3.5908,-3.5908,-3.5907,-3.5916,-3.5965,-3.5995,-3.5995,-3.6001,-3.5992,-3.5992,0.0,0.0,0.0,0.0,0.0,-3.3393,-3.3393,-3.3393,-3.3393,-3.3393,-3.3393,-3.3393,-3.3393,-3.3393,-3.3393,-3.3393,-3.3393,-3.3393,-3.3393,-3.3452,-3.3495,-3.3495,-3.3549,-3.3615,-3.3684,-3.3196,-3.3062,0.0,0.0,-3.2172,-3.1515,0.0,0.0,0.0,0.0,-3.0211,-3.0211,-3.0211,-3.0211,-3.0211,-3.0211,-3.0211,-3.0211,-3.0211,-3.0211,-3.0213,-3.0339,-3.0392,-3.0424,-3.0613,-3.0682,-3.0691,-3.0771,-3.08,-3.08,-3.08,-3.08,-3.08,-3.08,-3.08,-3.08,-3.08,-3.08,-3.08,-3.08,-3.08,-3.08,-3.08,-3.08,-3.0801,-3.0803,-3.0804,-3.0809,-3.0799,-3.08,-3.0797,0.0,0.0,-3.0796,-3.0796,0.0,0.0,-3.072,-3.0689,-3.0694,-3.0701,-3.0707,-3.0737,-3.0799,-3.0801,-3.0769,-3.0706,-3.0769,-3.0808,-3.0823,-3.2547,-3.3436,-3.3514,-3.3436,-3.3397,-3.3378,-3.2579,-3.2657,-3.3456,-3.4333,-3.5168,-3.5908,-3.5908,-3.5892,-3.5902,-3.5961,-3.5992,-3.5994,-3.6005,-3.5992,-3.5992,0.0,0.0,0.0,0.0,0.0,0.0,0.0,-3.3393,-3.3393,-3.3393,-3.3393,-3.3393,-3.3393,-3.3393,-3.3393,-3.3393,-3.3393,-3.3393,-3.3393,-3.3466,-3.3509,-3.3509,-3.3149,-3.3012,-3.3171,-3.2648,-3.2239,0.0,0.0,0.0,0.0,-3.0682,-3.051,-3.0211,-3.0211,-3.0211,-3.0211,-3.0211,-3.0211,-3.0211,-3.0211,-3.0211,-3.0211,-3.0211,-3.0207,-3.028,-3.0315,-3.0419,-3.0537,-3.0607,-3.0667,-3.0717,-3.0773,-3.08,-3.08,-3.08,-3.08,-3.08,-3.08,-3.08,-3.08,-3.08,-3.08,-3.08,-3.08,-3.08,-3.08,-3.08,-3.08,-3.08,-3.08,-3.0809,-3.0796,-3.0799,-3.08,-3.0797,-3.0797,0.0,0.0,-3.081,0.0,-3.0781,-3.0769,-3.0718,-3.0709,-3.0704,-3.0698,-3.0707,-3.0737,-3.0739,-3.0734,-3.0703,-3.0767,-3.0769,-3.0703,-3.2505,-3.3397,-3.3397,-3.3397,-3.3397,-3.3378,-3.2501,-3.2832,-3.4177,-3.5012,-3.5577,-3.5908,-3.5908,-3.5908,-3.5894,-3.5924,-3.5964,-3.5992,-3.5994,-3.6003,-3.5992,-3.3393,0.0,-3.3393,0.0,-3.3393,-3.3393,-3.3393,-3.3393,-3.3393,-3.3393,-3.3393,-3.3393,-3.3393,-3.3393,-3.3393,-3.3393,-3.3408,-3.3422,-3.3422,-3.3506,-3.3563,-3.3563,-3.2908,0.0,-3.2827,-3.2099,-3.1516,-3.1102,-3.1108,0.0,-3.0211,-3.0211,-3.0211,-3.0211,-3.0211,-3.0211,-3.0211,-3.0211,-3.0211,-3.0211,-3.0211,-3.0211,-3.0192,-3.0226,-3.0273,-3.0327,-3.0381,-3.0492,-3.0622,-3.0659,-3.0687,-3.0734,-3.0795,-3.08,-3.08,-3.08,-3.08,-3.08,-3.08,-3.08,-3.08,-3.08,-3.08,-3.08,-3.08,-3.08,-3.0803,-3.0807,-3.0808,-3.081,-3.0793,-3.0799,-3.0801,-3.08,-3.0797,-3.079,-3.0805,-3.0804,0.0,-3.076,-3.078,-3.0773,-3.0774,-3.0735,-3.0706,-3.0703,-3.0681,-3.0671,-3.0707,-3.0697,-3.0697,-3.0707,-3.0764,-3.0769,-3.0703,-3.2505,-3.3397,-3.3397,-3.3397,-3.3397,-3.3378,-3.2754,-3.3125,-3.4313,-3.5421,-3.5908,-3.5908,-3.5908,-3.5908,-3.5894,-3.589,-3.5934,-3.5968,-3.5996,-3.5991,-3.6001,-3.3393,-3.3393,-3.3393,-3.3393,-3.3393,-3.3393,-3.3393,-3.3393,-3.3393,-3.3393,-3.3393,-3.3393,-3.3393,-3.3393,-3.3393,-3.3393,-3.3466,-3.3509,-3.3509,-3.3615,-3.3698,0.0,0.0,-3.2679,-3.2899,-3.153,-3.0904,-3.1102,0.0,0.0,-3.0211,-3.0211,-3.0211,-3.0211,-3.0211,-3.0211,-3.0211,-3.0211,-3.0211,-3.0211,-3.0211,-3.0211,-3.0199,-3.0267,-3.0346,-3.0425,-3.0548,-3.0642,-3.0716,-3.0788,-3.08,-3.08,-3.08,-3.08,-3.08,-3.08,-3.08,-3.08,-3.08,-3.08,-3.08,-3.08,-3.08,-3.08,-3.08,-3.08,-3.0806,-3.0798,-3.0799,-3.08,-3.0798,-3.0797,-3.0793,-3.0796,-3.0794,-3.0803,-3.0808,-3.0801,0.0,-3.0709,-3.0703,-3.0703,-3.0703,-3.0695,-3.0707,-3.07,-3.0633,-3.0626,-3.069,-3.0704,-3.0707,-3.0694,-3.0773,-3.0769,-3.0703,-3.2505,-3.3397,-3.3397,-3.3397,-3.3397,-3.3397,-3.3397,-3.3397,-3.3514,-3.5187,-3.5908,-3.5908,-3.5908,-3.5908,-3.5894,-3.589,-3.5901,-3.5908,-3.5976,-3.5995,-3.5994,-3.3393,-3.3393,-3.3393,-3.3393,-3.3393,-3.3393,-3.3393,-3.3437,-3.3466,-3.3466,-3.3509,-3.3534,-3.3534,-3.3509,-3.3495,0.0,-3.3549,-3.3563,0.0,-3.3643,-3.3698,-3.3698,-3.3159,-3.2688,-3.2294,-3.1497,-3.0871,-3.0487,-3.0297,-3.0211,-3.0211,-3.0211,-3.0211,-3.0211,-3.0211,-3.0211,-3.0211,-3.0211,-3.0211,-3.0211,-3.0211,-3.0211,-3.0199,-3.0267,-3.0367,-3.0477,-3.0568,-3.0664,-3.0767,-3.0781,-3.0794,-3.08,-3.08,-3.08,-3.08,-3.08,-3.08,-3.08,-3.08,-3.08,-3.08,-3.08,-3.08,-3.08,-3.08,-3.08,-3.0806,-3.0798,-3.0795,-3.0795,-3.0799,-3.0797,-3.0793,-3.0796,-3.0796,-3.0795,-3.0801,-3.0801,-3.0796,-3.0769,-3.0769,-3.0769,-3.0769,-3.0727,-3.0697,-3.0707,-3.0633,-3.0636,-3.071,-3.0656,-3.0622,-3.063,-3.0701,-3.0707,-3.0626,-3.1838,-3.2743,-3.3329,-3.2723,-3.212,-3.1593,-3.2783,-3.3359,-3.3495,-3.5168,-3.5908,-3.5908,-3.5908,-3.5908,-3.5892,-3.5904,-3.5903,-3.5907,-3.5971,-3.5996,-3.5994,-3.3846,-3.4099,-3.4283,-3.4283,-3.4329,-3.4344,-3.4344,-3.4146,-3.3989,-3.3989,-3.3759,-3.3619,-3.3629,-3.3605,-3.3591,-3.3605,-3.3615,-3.3647,-3.3647,-3.3698,-3.3739,-3.3739,-3.326,-3.2832,-3.2504,-3.1646,-3.1026,-3.0643,-3.0338,-3.0211,-3.0211,-3.0211,-3.0211,-3.0211,-3.0211,-3.0211,-3.0211,-3.0211,-3.0211,-3.0211,-3.0211,-3.0213,-3.0241,-3.0303,-3.0413,-3.055,-3.0648,-3.0725,-3.0799,-3.0806,-3.0794,-3.08,-3.08,-3.08,-3.08,-3.08,-3.08,-3.08,-3.08,-3.08,-3.08,-3.08,-3.08,-3.08,-3.08,-3.08,-3.0807,-3.08,-3.08,-3.08,-3.0806,-3.0799,-3.0795,-3.0799,-3.0798,-3.0801,-3.0801,-3.0801,-3.0796,-3.0767,-3.0759,-3.0751,-3.0751,-3.0704,-3.0676,-3.069,-3.0649,-3.0613,-3.0665,-3.0622,-3.0606,-3.0606,-3.0668,-3.068,-3.0634,-3.1845,-3.2725,-3.3252,-3.2706,-3.1838,-3.0758,-3.248,-3.3316,-3.3495,-3.5176,-3.59,-3.5908,-3.5908,-3.5908,-3.5908,-3.5908,-3.5904,-3.591,-3.5956,-3.5972,-3.5996,-3.4679,-3.5279,-3.5786,-3.582,-3.5862,-3.5905,-3.5905,-3.5271,-3.4819,-3.4819,-3.4112,-3.3647,-3.3698,-3.3712,-3.3684,-3.3633,-3.3671,-3.3712,-3.3712,-3.3766,-3.3807,-3.3807,-3.3352,-3.3172,-3.3304,-3.2042,-3.1396,-3.14,-3.0643,-3.0268,-3.0211,-3.0211,-3.0211,-3.0211,-3.0211,-3.0211,-3.0211,-3.0211,-3.0192,-3.0199,-3.0199,-3.0247,-3.0309,-3.0381,-3.0491,-3.0614,-3.0756,-3.0798,-3.0801,-3.0796,-3.08,-3.08,-3.08,-3.08,-3.08,-3.08,-3.08,-3.08,-3.08,-3.08,-3.08,-3.08,-3.08,-3.08,-3.08,-3.0801,-3.0792,-3.0799,-3.0797,-3.0809,-3.0795,-3.0804,-3.0804,-3.0801,-3.0801,-3.0801,-3.0801,-3.0801,-3.0772,-3.0706,-3.0695,-3.0697,-3.0694,-3.0634,-3.0622,-3.0687,-3.0645,-3.0602,-3.0602,-3.0602,-3.0602,-3.0602,-3.0665,-3.0687,-3.0687,-3.2295,-3.3111,-3.3111,-3.3169,-3.2317,-3.0752,-3.2372,-3.3216,-3.347,-3.5116,-3.5843,-3.5908,-3.5908,-3.5908,-3.5908,-3.5908,-3.5908,-3.5894,-3.589,-3.5936,-3.5991,-3.5514,-3.5659,-3.5817,-3.5877,-3.589,-3.5921,-3.5964,-3.5345,-3.4873,-3.4873,-3.422,-3.3766,-3.378,-3.378,-3.378,-3.3753,-3.3766,-3.378,-3.378,-3.3793,-3.3807,-3.3807,-3.4022,-3.388,-3.3314,-3.3323,-3.2695,-3.14,-3.1255,-3.0854,-3.0211,-3.0211,-3.0211,-3.0211,-3.0211,-3.0211,-3.0211,-3.0211,-3.024,-3.0273,-3.0273,-3.0309,-3.0386,-3.0506,-3.0574,-3.0614,-3.0756,-3.0798,-3.0801,-3.0796,-3.08,-3.08,-3.08,-3.08,-3.08,-3.08,-3.08,-3.08,-3.08,-3.08,-3.08,-3.08,-3.08,-3.08,-3.08,-3.0791,-3.0799,-3.0798,-3.0797,-3.0809,-3.0795,-3.0806,-3.0796,-3.0806,-3.0801,-3.0801,-3.0801,-3.0801,-3.0772,-3.0706,-3.0697,-3.0701,-3.0697,-3.0634,-3.061,-3.0622,-3.06,-3.0592,-3.0592,-3.0592,-3.0592,-3.0592,-3.0625,-3.0615,-3.0615,-3.1636,-3.212,-3.214,-3.2863,-3.2302,-3.0657,-3.172,-3.2621,-3.3381,-3.4445,-3.5298,-3.5908,-3.5908,-3.5908,-3.5908,-3.5908,-3.5908,-3.5894,-3.589,-3.5907,-3.5935,-3.6393,-3.6683,-3.6951,-3.7044,-3.7057,-3.7103,-3.715,-3.6549,-3.5966,-3.5585,-3.4844,-3.4211,-3.3844,-3.3807,-3.3807,-3.3807,-3.3807,-3.3807,-3.3807,-3.3807,-3.3842,-3.3972,-3.4307,-3.4344,-3.4033,-3.3999,-3.3337,-3.1992,-3.1656,-3.1255,-3.0796,-3.0395,-3.0211,-3.0211,-3.0211,-3.0211,-3.0211,-3.0211,-3.0234,-3.0304,-3.0304,-3.0373,-3.0506,-3.0563,-3.0614,-3.0664,-3.0725,-3.0762,-3.0806,-3.0806,-3.0795,-3.08,-3.08,-3.08,-3.08,-3.08,-3.08,-3.08,-3.08,-3.08,-3.08,-3.08,-3.0807,-3.0792,-3.0792,-3.0799,-3.08,-3.0792,-3.0808,-3.0799,-3.0793,-3.08,-3.0806,-3.0804,-3.0801,-3.0801,-3.0801,-3.0772,-3.0739,-3.0703,-3.0675,-3.0644,-3.0645,-3.0625,-3.0595,-3.0595,-3.0592,-3.0598,-3.0598,-3.0598,-3.0598,-3.0598,-3.0598,-3.0598,-3.0598,-3.1792,-3.2391,-3.2391,-3.2909,-3.2255,-3.0625,-3.1461,-3.238,-3.3306,-3.4183,-3.5063,-3.5908,-3.5869,-3.5862,-3.5908,-3.5894,-3.5897,-3.5892,-3.5895,-3.589,-3.5907,-3.7287,-3.7851,-3.8338,-3.8399,-3.8462,-3.851,-3.8525,-3.7928,-3.7217,-3.6413,-3.5536,-3.4692,-3.3899,-3.3807,-3.3807,-3.3807,-3.3807,-3.3807,-3.3807,-3.3807,-3.3921,-3.4185,-3.4375,-3.4632,-3.4889,-3.4431,-3.3757,-3.2909,-3.221,-3.1752,-3.1484,-3.0739,-3.0326,-3.0211,-3.0211,-3.0211,-3.0211,-3.0211,-3.0241,-3.0328,-3.0328,-3.0441,-3.0613,-3.0613,-3.0649,-3.0697,-3.0716,-3.0742,-3.0806,-3.0794,-3.0791,-3.08,-3.08,-3.08,-3.08,-3.08,-3.08,-3.08,-3.08,-3.08,-3.08,-3.08,-3.0793,-3.0799,-3.0799,-3.08,-3.0792,-3.0796,-3.0809,-3.0799,-3.0806,-3.0801,-3.0801,-3.0801,-3.0796,-3.0774,-3.0774,-3.0734,-3.0694,-3.0688,-3.063,-3.0602,-3.0597,-3.0601,-3.0598,-3.0598,-3.0598,-3.0598,-3.0598,-3.0598,-3.0598,-3.0598,-3.0598,-3.0714,-3.0965,-3.2527,-3.3223,-3.3107,-3.3107,-3.2218,-3.0613,-3.1308,-3.2197,-3.3243,-3.3986,-3.4913,-3.5891,-3.5811,-3.5841,-3.59,-3.5892,-3.5901,-3.5908,-3.5908,-3.5892,-3.5919,-3.8184,-3.8293,-3.8417,-3.8478,-3.8476,-3.8525,-3.8658,-3.801,-3.7217,-3.6413,-3.5536,-3.4692,-3.3899,-3.3807,-3.3807,-3.3807,-3.3807,-3.3807,-3.3807,-3.3807,-3.3921,-3.4185,-3.4375,-3.4632,-3.4889,-3.4965,-3.4617,-3.3796,-3.3662,-3.2879,-3.1503,-3.1369,-3.0911,-3.0211,-3.0211,-3.0211,-3.0211,-3.0211,-3.0267,-3.0386,-3.0386,-3.0501,-3.068,-3.068,-3.0687,-3.0701,-3.0759,-3.0796,-3.0808,-3.0807,-3.0799,-3.08,-3.08,-3.08,-3.08,-3.08,-3.08,-3.08,-3.08,-3.08,-3.08,-3.08,-3.0793,-3.0799,-3.0799,-3.0797,-3.0796,-3.0794,-3.0792,-3.0808,-3.0801,-3.0801,-3.0801,-3.0801,-3.0742,-3.0728,-3.0728,-3.0701,-3.0687,-3.0611,-3.0614,-3.0589,-3.0592,-3.0602,-3.0598,-3.0598,-3.0598,-3.0598,-3.0598,-3.0598,-3.0598,-3.0598,-3.0598,-3.1275,-3.2701,-3.3692,-3.3828,-3.3107,-3.3107,-3.2222,-3.0607,-3.0738,-3.168,-3.3206,-3.3337,-3.4329,-3.5807,-3.5799,-3.5846,-3.5908,-3.5905,-3.5901,-3.5908,-3.5908,-3.5894,-3.5899,-3.8446,-3.8462,-3.8478,-3.8593,-3.8609,-3.8624,-3.8692,-3.8377,-3.7698,-3.645,-3.5954,-3.522,-3.3935,-3.3807,-3.3807,-3.3807,-3.3807,-3.3855,-3.4011,-3.4023,-3.4117,-3.4348,-3.4591,-3.4822,-3.5063,-3.5149,-3.5018,-3.4655,-3.4197,-3.3612,-3.2821,-3.1923,-3.1274,-3.0835,-3.0395,-3.0211,-3.0211,-3.0211,-3.026,-3.0356,-3.0386,-3.0496,-3.0649,-3.0683,-3.0694,-3.0697,-3.0746,-3.0776,-3.0804,-3.0806,-3.0806,-3.08,-3.08,-3.08,-3.08,-3.08,-3.08,-3.08,-3.08,-3.08,-3.0803,-3.0792,-3.08,-3.08,-3.0797,-3.0796,-3.0808,-3.0808,-3.0793,-3.0801,-3.0801,-3.0801,-3.0796,-3.0742,-3.0712,-3.0697,-3.0698,-3.0664,-3.063,-3.0606,-3.0604,-3.0601,-3.0598,-3.0598,-3.0598,-3.0598,-3.0598,-3.0598,-3.0598,-3.0598,-3.0598,-3.0598,-3.1023,-3.1831,-3.3088,-3.3963,-3.3963,-3.3107,-3.3107,-3.2217,-3.0598,-3.0598,-3.1521,-3.3151,-3.3151,-3.4148,-3.5756,-3.5752,-3.5784,-3.5846,-3.5803,-3.5834,-3.5905,-3.5905,-3.5897,-3.5892,-3.8544,-3.8559,-3.8575,-3.8673,-3.8707,-3.8707,-3.8707,-3.8707,-3.8193,-3.6776,-3.6413,-3.5734,-3.4247,-3.3917,-3.3807,-3.3807,-3.3873,-3.3947,-3.4099,-3.4262,-3.4435,-3.4601,-3.4832,-3.5046,-3.5201,-3.5209,-3.5209,-3.5209,-3.4579,-3.4178,-3.3975,-3.2669,-3.1847,-3.14,-3.0777,-3.0395,-3.0211,-3.0211,-3.0247,-3.0327,-3.0375,-3.0482,-3.0629,-3.0676,-3.0694,-3.0694,-3.0701,-3.0736,-3.0774,-3.0786,-3.0794,-3.0796,-3.08,-3.08,-3.08,-3.08,-3.08,-3.0801,-3.0806,-3.0804,-3.0806,-3.08,-3.08,-3.0794,-3.0798,-3.0808,-3.0801,-3.0801,-3.0801,-3.0801,-3.0801,-3.0801,-3.0774,-3.0734,-3.07,-3.0701,-3.0697,-3.0645,-3.0589,-3.0589,-3.0601,-3.0598,-3.0598,-3.0598,-3.0598,-3.0598,-3.0598,-3.0598,-3.0598,-3.0598,-3.0694,-3.0868,-3.1676,-3.2527,-3.3397,-3.4272,-3.4156,-3.3107,-3.3107,-3.2217,-3.0598,-3.0598,-3.1502,-3.3107,-3.3107,-3.408,-3.5703,-3.5706,-3.5723,-3.5778,-3.5722,-3.5763,-3.5887,-3.5887,-3.5885,-3.5875,-3.8673,-3.8692,-3.8692,-3.8707,-3.8707,-3.8707,-3.8707,-3.8707,-3.8395,-3.7529,-3.6758,-3.5954,-3.5023,-3.4252,-3.3807,-3.3807,-3.4023,-3.4074,-3.3842,-3.4461,-3.4851,-3.487,-3.5072,-3.5174,-3.5209,-3.5209,-3.5209,-3.5209,-3.5152,-3.4732,-3.3995,-3.388,-3.2974,-3.1484,-3.1427,-3.0949,-3.0211,-3.0211,-3.0267,-3.0397,-3.0402,-3.0515,-3.0687,-3.069,-3.0694,-3.0697,-3.0707,-3.07,-3.0714,-3.0782,-3.0798,-3.0803,-3.0796,-3.08,-3.08,-3.08,-3.08,-3.0804,-3.0797,-3.0793,-3.0809,-3.08,-3.0797,-3.0794,-3.0798,-3.0808,-3.0801,-3.0801,-3.0801,-3.0801,-3.0801,-3.0801,-3.0799,-3.0799,-3.0736,-3.0697,-3.0694,-3.064,-3.0602,-3.0602,-3.0598,-3.0598,-3.0598,-3.0598,-3.0598,-3.0598,-3.0598,-3.0598,-3.0598,-3.0598,-3.0946,-3.1695,-3.2546,-3.3416,-3.4297,-3.5168,-3.4756,-3.3107,-3.3107,-3.2217,-3.0598,-3.0598,-3.1502,-3.3107,-3.3107,-3.4098,-3.569,-3.5709,-3.5702,-3.5713,-3.5708,-3.5736,-3.5799,-3.5799,-3.5803,-3.5811,-3.8707,-3.8707,-3.8707,-3.8707,-3.8707,-3.8707,-3.8707,-3.8707,-3.8414,-3.7603,-3.6813,-3.5973,-3.5096,-3.427,-3.3807,-3.3807,-3.3895,-3.3985,-3.4049,-3.4309,-3.4651,-3.5072,-3.5149,-3.5209,-3.5209,-3.5209,-3.5209,-3.5209,-3.5209,-3.5037,-3.4732,-3.4235,-3.367,-3.3032,-3.2497,-3.1782,-3.1006,-3.1006,-3.0752,-3.0344,-3.0381,-3.0492,-3.0641,-3.068,-3.0694,-3.0694,-3.0707,-3.0704,-3.0709,-3.0784,-3.0806,-3.0801,-3.0796,-3.08,-3.08,-3.08,-3.08,-3.0807,-3.0801,-3.08,-3.0799,-3.0792,-3.0804,-3.0799,-3.0792,-3.0793,-3.0801,-3.0801,-3.0801,-3.0801,-3.0801,-3.0801,-3.0791,-3.0736,-3.073,-3.0695,-3.064,-3.0621,-3.0598,-3.0598,-3.0598,-3.0598,-3.0598,-3.0598,-3.0598,-3.0598,-3.0598,-3.0598,-3.0598,-3.1081,-3.199,-3.3363,-3.3731,-3.406,-3.4394,-3.5264,-3.4833,-3.3107,-3.3107,-3.2217,-3.0598,-3.0598,-3.1502,-3.3107,-3.3107,-3.4093,-3.5704,-3.5704,-3.5701,-3.5697,-3.5697,-3.5708,-3.5732,-3.5732,-3.5754,-3.5799,-3.8707,-3.8707,-3.8707,-3.8707,-3.8707,-3.8707,-3.8707,-3.8707,-3.8505,-3.7936,-3.6945,-3.6064,-3.5463,-3.4449,-3.3807,-3.3807,-3.3868,-3.3972,-3.4074,-3.4215,-3.4537,-3.5081,-3.5107,-3.5151,-3.5201,-3.5209,-3.5076,-3.4827,-3.4827,-3.4827,-3.4808,-3.4254,-3.3995,-3.3975,-3.3375,-3.2642,-3.1866,-3.1635,-3.1213,-3.0723,-3.0543,-3.053,-3.0637,-3.068,-3.0694,-3.0694,-3.0694,-3.0707,-3.0713,-3.0789,-3.0793,-3.0792,-3.0795,-3.08,-3.08,-3.08,-3.0805,-3.0794,-3.08,-3.0798,-3.0798,-3.0791,-3.0806,-3.0806,-3.0791,-3.0801,-3.0801,-3.0801,-3.0801,-3.0801,-3.0801,-3.0801,-3.0789,-3.073,-3.0707,-3.0672,-3.0632,-3.0616,-3.0598,-3.0598,-3.0598,-3.0598,-3.0598,-3.0598,-3.0598,-3.0598,-3.0598,-3.0714,-3.0965,-3.2029,-3.3151,-3.4355,-3.4665,-3.4819,-3.4819,-3.54,-3.4833,-3.3107,-3.3107,-3.2217,-3.0598,-3.0598,-3.1371,-3.272,-3.2991,-3.3919,-3.5303,-3.5588,-3.5704,-3.5704,-3.5704,-3.5692,-3.5703,-3.5703,-3.5723,-3.5775,-3.8707,-3.8707,-3.8707,-3.8707,-3.8707,-3.8707,-3.8707,-3.8707,-3.8707,-3.8707,-3.7294,-3.6303,-3.6303,-3.4798,-3.3807,-3.3807,-3.4049,-3.4086,-3.382,-3.4237,-3.4622,-3.4898,-3.4908,-3.5001,-3.5201,-3.5209,-3.4808,-3.4014,-3.3995,-3.3995,-3.3995,-3.3995,-3.3995,-3.3995,-3.4014,-3.3528,-3.2669,-3.1941,-3.166,-3.1651,-3.0912,-3.0657,-3.0713,-3.0694,-3.0694,-3.0694,-3.0694,-3.0694,-3.0704,-3.0784,-3.0801,-3.0808,-3.0791,-3.08,-3.08,-3.08,-3.0792,-3.08,-3.0799,-3.0808,-3.0806,-3.0791,-3.081,-3.0804,-3.0791,-3.0801,-3.0801,-3.0801,-3.0801,-3.0801,-3.0801,-3.0801,-3.0801,-3.0801,-3.0736,-3.0694,-3.0694,-3.064,-3.0598,-3.0598,-3.0598,-3.0598,-3.0598,-3.0598,-3.0598,-3.0598,-3.0617,-3.0965,-3.1773,-3.346,-3.4394,-3.4413,-3.5245,-3.5704,-3.5704,-3.5684,-3.4814,-3.3107,-3.3088,-3.2217,-3.0598,-3.0598,-3.1043,-3.185,-3.272,-3.3596,-3.4471,-3.5342,-3.5704,-3.5704,-3.5704,-3.5704,-3.5704,-3.5704,-3.5704,-3.5695,-3.8707,-3.8707,-3.8707,-3.8707,-3.8707,-3.8707,-3.8707,-3.8707,-3.8707,-3.8707,-3.779,-3.6942,-3.6358,-3.5312,-3.4399,-3.3844,-3.3868,-3.3881,-3.382,-3.4105,-3.4383,-3.4622,-3.4926,-3.5132,-3.5201,-3.5209,-3.5076,-3.4846,-3.4273,-3.3995,-3.3995,-3.3995,-3.3995,-3.4014,-3.4598,-3.4388,-3.3593,-3.3424,-3.307,-3.2549,-3.1802,-3.1549,-3.1545,-3.0923,-3.0694,-3.0694,-3.0694,-3.0694,-3.0704,-3.0784,-3.0801,-3.0808,-3.0791,-3.08,-3.08,-3.08,-3.0805,-3.0792,-3.08,-3.0799,-3.0805,-3.0798,-3.081,-3.0795,-3.0804,-3.0801,-3.0801,-3.0801,-3.0801,-3.0801,-3.0801,-3.0801,-3.0774,-3.0737,-3.0719,-3.0672,-3.0634,-3.0602,-3.0595,-3.0602,-3.0598,-3.0598,-3.0598,-3.0598,-3.0598,-3.0598,-3.112,-3.2087,-3.3557,-3.4123,-3.4684,-3.5284,-3.5549,-3.5704,-3.5704,-3.509,-3.4214,-3.3088,-3.2488,-3.1637,-3.0598,-3.0598,-3.1043,-3.185,-3.272,-3.3596,-3.4471,-3.5342,-3.5704,-3.5704,-3.5704,-3.5704,-3.5704,-3.5704,-3.5704,-3.5709,-3.8707,-3.8707,-3.8707,-3.8707,-3.8707,-3.8707,-3.8707,-3.8707,-3.8707,-3.8707,-3.7991,-3.7199,-3.6376,-3.5518,-3.4674,-3.3862,-3.3807,-3.3807,-3.3807,-3.413,-3.4371,-3.4478,-3.4954,-3.5209,-3.5209,-3.5209,-3.5037,-3.4732,-3.4235,-3.3995,-3.3995,-3.3643,-3.3834,-3.4483,-3.4655,-3.4668,-3.455,-3.4255,-3.3916,-3.3492,-3.2759,-3.2481,-3.2415,-3.1545,-3.1215,-3.1176,-3.083,-3.0694,-3.0704,-3.0784,-3.0793,-3.0794,-3.0795,-3.08,-3.08,-3.08,-3.0806,-3.0793,-3.0798,-3.08,-3.0805,-3.0794,-3.0793,-3.0801,-3.0801,-3.0801,-3.0801,-3.0801,-3.0801,-3.0801,-3.0801,-3.0801,-3.0796,-3.0742,-3.0728,-3.0685,-3.0642,-3.0618,-3.0608,-3.0602,-3.0598,-3.0598,-3.0598,-3.0598,-3.0733,-3.1043,-3.2164,-3.3286,-3.4336,-3.4723,-3.5168,-3.5684,-3.5704,-3.5704,-3.5704,-3.4485,-3.3615,-3.3088,-3.2217,-3.1386,-3.0598,-3.0598,-3.0868,-3.1386,-3.2585,-3.3397,-3.3982,-3.5201,-3.5704,-3.5704,-3.5704,-3.5704,-3.5704,-3.5704,-3.5704,-3.5704,-3.8707,-3.8707,-3.8707,-3.8707,-3.8707,-3.8707,-3.8707,-3.8707,-3.8707,-3.8707,-3.8046,-3.7309,-3.6486,-3.5628,-3.4784,-3.3972,-3.3844,-3.382,-3.3829,-3.4249,-3.4518,-3.454,-3.4963,-3.5209,-3.5209,-3.5209,-3.4846,-3.4109,-3.4052,-3.3995,-3.3975,-3.3196,-3.3635,-3.5057,-3.4327,-3.4523,-3.5355,-3.4545,-3.4331,-3.4449,-3.3712,-3.341,-3.3313,-3.2454,-3.2124,-3.2007,-3.1215,-3.0888,-3.0821,-3.08,-3.081,-3.0799,-3.0798,-3.0799,-3.08,-3.0799,-3.0791,-3.0798,-3.0798,-3.0798,-3.0798,-3.0796,-3.0794,-3.0806,-3.0801,-3.0801,-3.0801,-3.0801,-3.0801,-3.0801,-3.0801,-3.0801,-3.0801,-3.0801,-3.0742,-3.0713,-3.0697,-3.0657,-3.0613,-3.0602,-3.0598,-3.0636,-3.0694,-3.0772,-3.1159,-3.1966,-3.3499,-3.4432,-3.451,-3.5264,-3.5704,-3.5704,-3.5704,-3.5665,-3.5568,-3.3919,-3.3107,-3.3088,-3.214,-3.1308,-3.0598,-3.0598,-3.0598,-3.0694,-3.2372,-3.3107,-3.3242,-3.4988,-3.5704,-3.5704,-3.5704,-3.5704,-3.5704,-3.5704,-3.5704,-3.5704,-3.8707,-3.8707,-3.8707,-3.8707,-3.8707,-3.8707,-3.8707,-3.8707,-3.8707,-3.8707,-3.856,-3.812,-3.7327,-3.6505,-3.5679,-3.4821,-3.4174,-3.3881,-3.4099,-3.4371,-3.4582,-3.4793,-3.5053,-3.5209,-3.5209,-3.5209,-3.5114,-3.4942,-3.4312,-3.3995,-3.3995,-3.3815,-3.391,-3.4243,-3.4136,-3.457,-3.5343,-3.4656,-3.4777,-3.5345,-3.457,-3.4249,-3.4148,-3.3332,-3.3021,-3.2982,-3.2807,-3.2302,-3.1626,-3.095,-3.0767,-3.0801,-3.0804,-3.0799,-3.0799,-3.0807,-3.0796,-3.0806,-3.0806,-3.0798,-3.08,-3.0795,-3.0801,-3.0798,-3.0808,-3.0801,-3.0801,-3.0801,-3.0801,-3.0801,-3.0801,-3.0801,-3.0801,-3.0801,-3.0796,-3.0756,-3.0701,-3.0687,-3.0653,-3.0607,-3.0598,-3.0849,-3.1483,-3.2159,-3.2914,-3.377,-3.42,-3.4703,-3.538,-3.5588,-3.5704,-3.5704,-3.5704,-3.538,-3.4684,-3.3629,-3.3107,-3.3088,-3.1579,-3.0772,-3.0598,-3.0598,-3.0598,-3.0694,-3.2372,-3.3107,-3.3242,-3.4988,-3.5704,-3.5704,-3.5704,-3.5704,-3.5704,-3.5704,-3.5704,-3.5704,-3.8707,-3.8707,-3.8707,-3.8707,-3.8707,-3.8707,-3.8707,-3.8707,-3.8707,-3.8707,-3.8707,-3.8395,-3.7584,-3.7125,-3.6376,-3.5114,-3.4386,-3.4049,-3.4185,-3.4505,-3.4753,-3.4889,-3.5089,-3.5209,-3.5209,-3.5209,-3.5209,-3.5209,-3.4789,-3.456,-3.456,-3.4186,-3.4197,-3.4568,-3.4242,-3.4595,-3.5425,-3.5146,-3.5301,-3.5708,-3.5297,-3.5119,-3.5022,-3.4187,-3.3876,-3.3818,-3.3448,-3.3013,-3.2541,-3.2094,-3.1957,-3.1987,-3.1992,-3.1987,-3.2005,-3.2024,-3.2032,-3.204,-3.2048,-3.2046,-3.203,-3.2047,-3.2049,-3.1822,-3.0981,-3.0801,-3.0801,-3.0801,-3.0801,-3.0801,-3.0801,-3.0801,-3.0801,-3.0801,-3.0801,-3.0923,-3.1268,-3.132,-3.1448,-3.179,-3.1839,-3.198,-3.2377,-3.3204,-3.3905,-3.4374,-3.48,-3.5226,-3.5684,-3.5704,-3.5704,-3.5704,-3.5303,-3.4858,-3.4394,-3.3131,-3.2488,-3.2469,-3.1197,-3.0598,-3.0598,-3.0598,-3.0598,-3.0694,-3.2372,-3.3107,-3.3242,-3.4988,-3.5704,-3.5704,-3.5704,-3.5704,-3.5704,-3.5704,-3.5704,-3.5704,-3.8707,-3.8707,-3.8707,-3.8707,-3.8707,-3.8707,-3.8707,-3.8707,-3.8707,-3.8707,-3.8707,-3.845,-3.7786,-3.7456,-3.667,-3.5133,-3.4517,-3.4203,-3.425,-3.4651,-3.4927,-3.4955,-3.5107,-3.5209,-3.5209,-3.5209,-3.5209,-3.5209,-3.5209,-3.5209,-3.519,-3.4522,-3.4576,-3.5203,-3.445,-3.4636,-3.5531,-3.5498,-3.5606,-3.5795,-3.5795,-3.5795,-3.5717,-3.5002,-3.4711,-3.4633,-3.3973,-3.3623,-3.3488,-3.3352,-3.3297,-3.3304,-3.3298,-3.3304,-3.3317,-3.3366,-3.3395,-3.3402,-3.3402,-3.3398,-3.3392,-3.339,-3.3406,-3.3015,-3.1563,-3.1249,-3.1249,-3.1249,-3.1249,-3.1249,-3.1249,-3.1249,-3.1249,-3.1249,-3.1249,-3.1473,-3.2126,-3.2221,-3.2467,-3.3109,-3.3324,-3.3379,-3.3325,-3.4118,-3.4626,-3.4626,-3.5284,-3.5704,-3.5704,-3.5704,-3.5626,-3.5472,-3.4781,-3.4258,-3.3968,-3.2512,-3.1734,-3.1579,-3.0926,-3.0598,-3.0598,-3.0598,-3.0598,-3.0694,-3.2372,-3.3107,-3.3242,-3.4988,-3.5704,-3.5704,-3.5704,-3.5704,-3.5704,-3.5704,-3.5704,-3.5704,-3.8707,-3.8707,-3.8707,-3.8707,-3.8707,-3.8707,-3.8707,-3.8707,-3.8707,-3.8707,-3.8707,-3.867,-3.856,-3.7294,-3.6064,-3.5096,-3.4517,-3.4274,-3.4442,-3.4743,-3.4982,-3.5141,-3.5193,-3.5209,-3.5209,-3.5209,-3.5209,-3.5209,-3.5209,-3.5209,-3.5209,-3.5095,-3.517,-3.5352,-3.4533,-3.4734,-3.5639,-3.4941,-3.5091,-3.5795,-3.5795,-3.5795,-3.5795,-3.5678,-3.562,-3.56,-3.5503,-3.4987,-3.4233,-3.3534,-3.3303,-3.3304,-3.3299,-3.3291,-3.33,-3.3319,-3.3356,-3.3408,-3.3398,-3.3394,-3.3408,-3.3394,-3.3404,-3.3335,-3.3093,-3.3047,-3.3047,-3.3047,-3.3047,-3.3047,-3.3047,-3.3047,-3.3047,-3.3047,-3.3047,-3.3075,-3.3122,-3.3116,-3.3131,-3.3186,-3.3815,-3.4225,-3.4239,-3.5013,-3.551,-3.551,-3.5626,-3.5704,-3.5704,-3.5704,-3.5361,-3.4607,-3.4452,-3.3673,-3.2159,-3.1927,-3.1444,-3.0752,-3.0656,-3.0598,-3.0598,-3.0598,-3.0598,-3.0694,-3.2372,-3.3107,-3.3242,-3.4988,-3.5704,-3.5704,-3.5704,-3.5704,-3.5704,-3.5704,-3.5704,-3.5704,-3.8707,-3.8707,-3.8707,-3.8707,-3.8707,-3.8707,-3.8707,-3.8707,-3.8707,-3.8707,-3.8707,-3.8707,-3.8707,-3.7661,-3.6687,-3.596,-3.5361,-3.4948,-3.4732,-3.4945,-3.5107,-3.5201,-3.5209,-3.5209,-3.5209,-3.5209,-3.5209,-3.5209,-3.5209,-3.5209,-3.5209,-3.5209,-3.5273,-3.5393,-3.5079,-3.522,-3.5674,-3.5361,-3.5445,-3.5795,-3.5795,-3.5795,-3.5795,-3.5795,-3.5795,-3.5795,-3.5795,-3.5542,-3.5177,-3.4828,-3.47,-3.4711,-3.4696,-3.4692,-3.4698,-3.4735,-3.4776,-3.4809,-3.4842,-3.4812,-3.4802,-3.4793,-3.4796,-3.4798,-3.4803,-3.48,-3.4528,-3.3592,-3.3397,-3.3397,-3.3397,-3.3397,-3.3397,-3.3397,-3.3397,-3.3548,-3.3963,-3.4023,-3.4181,-3.4559,-3.4908,-3.5129,-3.5129,-3.5477,-3.5704,-3.5704,-3.5704,-3.5704,-3.5704,-3.5245,-3.48,-3.4413,-3.346,-3.259,-3.1811,-3.1347,-3.0946,-3.0598,-3.0598,-3.0598,-3.0598,-3.0598,-3.0598,-3.0694,-3.2372,-3.3107,-3.3242,-3.4988,-3.5704,-3.5704,-3.5704,-3.5704,-3.5704,-3.5704,-3.5704,-3.5704]},{"header":{"parameterUnit":"m.s-1","parameterCategory":1,"la1":30.6,"la2":28.766,"lo1":-90.7593,"lo2":-88.6598,"dy":0.0162,"dx":0.0183,"nx":116,"ny":114,"refTime":"2023-11-01T06:00:00:Z","depth":0,"parameterNumber":3,"parameterNumberName":"V-component_of_WINDS"},"data":[0.0,0.0,0.0,0.0,0.0,0.0,0.0,0.0,0.0,0.0,0.0,0.0,0.0,0.0,0.0,0.0,0.0,0.0,0.0,0.0,0.0,0.0,0.0,0.0,0.0,0.0,0.0,0.0,0.0,0.0,0.0,0.0,0.0,0.0,0.0,0.0,0.0,0.0,0.0,0.0,0.0,0.0,0.0,0.0,0.0,0.0,0.0,0.0,0.0,0.0,0.0,0.0,0.0,0.0,0.0,0.0,0.0,0.0,0.0,0.0,0.0,0.0,0.0,0.0,0.0,0.0,0.0,0.0,0.0,0.0,0.0,0.0,0.0,0.0,0.0,0.0,0.0,0.0,0.0,0.0,0.0,0.0,0.0,0.0,0.0,0.0,0.0,0.0,0.0,0.0,0.0,0.0,0.0,0.0,0.0,0.0,0.0,0.0,0.0,0.0,0.0,0.0,0.0,0.0,0.0,0.0,0.0,0.0,0.0,0.0,0.0,0.0,0.0,0.0,0.0,0.0,0.0,0.0,0.0,0.0,0.0,0.0,0.0,0.0,0.0,0.0,0.0,0.0,0.0,0.0,0.0,0.0,0.0,0.0,0.0,0.0,0.0,0.0,0.0,0.0,0.0,0.0,0.0,0.0,0.0,0.0,0.0,0.0,0.0,0.0,0.0,0.0,0.0,0.0,0.0,0.0,0.0,0.0,0.0,0.0,0.0,0.0,0.0,0.0,0.0,0.0,0.0,0.0,0.0,0.0,0.0,0.0,0.0,0.0,0.0,0.0,0.0,0.0,0.0,0.0,0.0,0.0,0.0,0.0,0.0,0.0,0.0,0.0,0.0,0.0,0.0,0.0,0.0,0.0,0.0,0.0,0.0,0.0,0.0,0.0,0.0,0.0,0.0,0.0,0.0,0.0,0.0,0.0,0.0,0.0,0.0,0.0,0.0,0.0,0.0,0.0,0.0,0.0,0.0,0.0,0.0,0.0,0.0,0.0,0.0,0.0,0.0,0.0,0.0,0.0,0.0,0.0,0.0,0.0,0.0,0.0,0.0,0.0,0.0,0.0,0.0,0.0,0.0,0.0,0.0,0.0,0.0,0.0,0.0,0.0,0.0,0.0,0.0,0.0,0.0,0.0,0.0,0.0,0.0,0.0,0.0,0.0,0.0,0.0,0.0,0.0,0.0,0.0,0.0,0.0,0.0,0.0,0.0,0.0,0.0,0.0,0.0,0.0,0.0,0.0,0.0,0.0,0.0,0.0,0.0,0.0,0.0,0.0,0.0,0.0,0.0,0.0,0.0,0.0,0.0,0.0,0.0,0.0,0.0,0.0,0.0,0.0,0.0,0.0,0.0,0.0,0.0,0.0,0.0,0.0,0.0,0.0,0.0,0.0,0.0,0.0,0.0,0.0,0.0,0.0,0.0,0.0,0.0,0.0,0.0,0.0,0.0,0.0,0.0,0.0,0.0,0.0,0.0,0.0,0.0,0.0,0.0,0.0,0.0,0.0,0.0,0.0,0.0,0.0,0.0,0.0,0.0,0.0,0.0,0.0,0.0,0.0,0.0,0.0,0.0,0.0,0.0,0.0,0.0,0.0,0.0,0.0,0.0,0.0,0.0,0.0,0.0,0.0,0.0,0.0,0.0,0.0,0.0,0.0,0.0,0.0,0.0,0.0,0.0,0.0,0.0,0.0,0.0,0.0,0.0,0.0,0.0,0.0,0.0,0.0,0.0,0.0,0.0,0.0,0.0,0.0,0.0,0.0,0.0,0.0,0.0,0.0,0.0,0.0,0.0,0.0,0.0,0.0,0.0,0.0,0.0,0.0,0.0,0.0,0.0,0.0,0.0,0.0,0.0,0.0,0.0,0.0,0.0,0.0,0.0,0.0,0.0,0.0,0.0,0.0,0.0,0.0,0.0,0.0,0.0,0.0,0.0,0.0,0.0,0.0,0.0,0.0,0.0,0.0,0.0,0.0,0.0,0.0,0.0,0.0,0.0,0.0,0.0,0.0,0.0,0.0,0.0,0.0,0.0,0.0,0.0,0.0,0.0,0.0,0.0,0.0,0.0,0.0,0.0,0.0,0.0,0.0,0.0,0.0,0.0,0.0,0.0,0.0,0.0,0.0,0.0,0.0,0.0,0.0,0.0,0.0,0.0,0.0,0.0,0.0,0.0,0.0,0.0,0.0,0.0,0.0,0.0,0.0,0.0,0.0,0.0,0.0,0.0,0.0,0.0,0.0,0.0,0.0,0.0,0.0,0.0,0.0,0.0,0.0,0.0,0.0,0.0,0.0,0.0,0.0,0.0,0.0,0.0,0.0,0.0,0.0,0.0,0.0,0.0,0.0,0.0,0.0,0.0,0.0,0.0,0.0,0.0,0.0,0.0,0.0,0.0,0.0,0.0,0.0,0.0,0.0,0.0,0.0,0.0,0.0,0.0,0.0,0.0,0.0,0.0,0.0,0.0,0.0,0.0,0.0,0.0,0.0,0.0,0.0,0.0,0.0,0.0,0.0,0.0,0.0,0.0,0.0,0.0,0.0,0.0,0.0,0.0,0.0,0.0,0.0,0.0,0.0,0.0,0.0,0.0,0.0,0.0,0.0,0.0,0.0,0.0,0.0,0.0,0.0,0.0,0.0,0.0,0.0,0.0,0.0,0.0,0.0,0.0,0.0,0.0,0.0,0.0,0.0,0.0,0.0,0.0,0.0,0.0,0.0,0.0,0.0,0.0,0.0,0.0,0.0,0.0,0.0,0.0,0.0,0.0,0.0,0.0,0.0,0.0,0.0,0.0,0.0,0.0,0.0,0.0,0.0,0.0,0.0,0.0,0.0,0.0,0.0,0.0,0.0,0.0,0.0,0.0,0.0,0.0,0.0,0.0,0.0,0.0,0.0,0.0,0.0,0.0,0.0,0.0,0.0,0.0,0.0,0.0,0.0,0.0,0.0,0.0,0.0,0.0,0.0,0.0,0.0,0.0,0.0,0.0,0.0,0.0,0.0,0.0,0.0,0.0,0.0,0.0,0.0,0.0,0.0,0.0,0.0,0.0,0.0,0.0,0.0,0.0,0.0,0.0,0.0,0.0,0.0,0.0,0.0,0.0,0.0,0.0,0.0,0.0,0.0,0.0,0.0,0.0,0.0,0.0,0.0,0.0,0.0,0.0,0.0,0.0,0.0,0.0,0.0,0.0,0.0,0.0,0.0,0.0,0.0,0.0,0.0,0.0,0.0,0.0,0.0,0.0,0.0,0.0,0.0,0.0,0.0,0.0,0.0,0.0,0.0,0.0,0.0,0.0,0.0,0.0,0.0,0.0,0.0,0.0,0.0,0.0,0.0,0.0,0.0,0.0,0.0,0.0,0.0,0.0,0.0,0.0,0.0,0.0,0.0,0.0,0.0,0.0,0.0,0.0,0.0,0.0,0.0,0.0,0.0,0.0,0.0,0.0,0.0,0.0,0.0,0.0,0.0,0.0,0.0,0.0,0.0,0.0,0.0,0.0,0.0,0.0,0.0,0.0,0.0,0.0,0.0,0.0,0.0,0.0,0.0,0.0,0.0,0.0,0.0,0.0,0.0,0.0,0.0,0.0,0.0,0.0,0.0,0.0,0.0,0.0,0.0,0.0,0.0,0.0,0.0,0.0,0.0,0.0,0.0,0.0,0.0,0.0,0.0,0.0,0.0,0.0,0.0,0.0,0.0,0.0,0.0,0.0,0.0,0.0,0.0,0.0,0.0,0.0,0.0,0.0,0.0,0.0,0.0,0.0,0.0,0.0,0.0,0.0,0.0,0.0,0.0,0.0,0.0,0.0,0.0,0.0,0.0,0.0,0.0,0.0,0.0,0.0,0.0,0.0,0.0,0.0,0.0,0.0,0.0,0.0,0.0,0.0,0.0,0.0,0.0,0.0,0.0,0.0,0.0,0.0,0.0,0.0,0.0,0.0,0.0,0.0,0.0,0.0,0.0,0.0,0.0,0.0,0.0,0.0,0.0,0.0,0.0,0.0,0.0,0.0,0.0,0.0,0.0,0.0,0.0,0.0,0.0,0.0,0.0,0.0,0.0,0.0,0.0,0.0,0.0,0.0,0.0,0.0,0.0,0.0,0.0,0.0,0.0,0.0,0.0,0.0,0.0,0.0,0.0,0.0,0.0,0.0,0.0,0.0,0.0,0.0,0.0,0.0,0.0,0.0,0.0,0.0,0.0,0.0,0.0,0.0,0.0,0.0,0.0,0.0,0.0,0.0,0.0,0.0,0.0,0.0,0.0,0.0,0.0,0.0,0.0,0.0,0.0,0.0,0.0,0.0,0.0,0.0,0.0,0.0,0.0,0.0,0.0,0.0,0.0,0.0,0.0,0.0,0.0,0.0,0.0,0.0,0.0,0.0,0.0,0.0,0.0,0.0,0.0,0.0,0.0,0.0,0.0,0.0,0.0,0.0,0.0,0.0,0.0,0.0,0.0,0.0,0.0,0.0,0.0,0.0,0.0,0.0,0.0,0.0,0.0,0.0,0.0,0.0,0.0,0.0,0.0,0.0,0.0,0.0,0.0,0.0,0.0,0.0,0.0,0.0,0.0,0.0,0.0,0.0,0.0,0.0,0.0,0.0,0.0,0.0,0.0,0.0,0.0,0.0,0.0,0.0,0.0,0.0,0.0,0.0,0.0,0.0,0.0,0.0,0.0,0.0,0.0,0.0,0.0,0.0,0.0,0.0,0.0,0.0,0.0,0.0,0.0,0.0,0.0,0.0,0.0,0.0,0.0,0.0,0.0,0.0,0.0,0.0,0.0,0.0,0.0,0.0,0.0,0.0,0.0,0.0,0.0,0.0,0.0,0.0,0.0,0.0,0.0,0.0,0.0,0.0,0.0,0.0,0.0,0.0,0.0,0.0,0.0,0.0,0.0,0.0,0.0,0.0,0.0,0.0,0.0,0.0,0.0,0.0,0.0,0.0,0.0,0.0,0.0,0.0,0.0,0.0,0.0,0.0,0.0,0.0,0.0,0.0,0.0,0.0,0.0,0.0,0.0,0.0,0.0,0.0,0.0,0.0,0.0,0.0,0.0,0.0,0.0,0.0,0.0,0.0,0.0,0.0,0.0,0.0,0.0,0.0,0.0,0.0,0.0,0.0,0.0,0.0,0.0,0.0,0.0,0.0,0.0,0.0,0.0,0.0,0.0,0.0,0.0,0.0,0.0,0.0,0.0,0.0,0.0,0.0,0.0,0.0,0.0,0.0,0.0,0.0,0.0,0.0,0.0,0.0,0.0,0.0,0.0,0.0,0.0,0.0,0.0,0.0,0.0,0.0,0.0,0.0,0.0,0.0,0.0,0.0,0.0,0.0,0.0,0.0,0.0,0.0,0.0,0.0,0.0,0.0,0.0,0.0,0.0,0.0,0.0,0.0,0.0,0.0,0.0,0.0,0.0,0.0,0.0,0.0,0.0,0.0,0.0,0.0,0.0,0.0,0.0,0.0,0.0,0.0,0.0,0.0,0.0,0.0,0.0,0.0,0.0,0.0,0.0,0.0,0.0,0.0,0.0,0.0,0.0,0.0,0.0,0.0,0.0,0.0,0.0,0.0,0.0,0.0,0.0,0.0,0.0,0.0,0.0,0.0,0.0,0.0,0.0,0.0,0.0,0.0,0.0,0.0,0.0,0.0,0.0,0.0,0.0,0.0,0.0,0.0,0.0,0.0,0.0,0.0,0.0,0.0,0.0,0.0,0.0,0.0,0.0,0.0,0.0,0.0,0.0,0.0,0.0,0.0,0.0,0.0,0.0,0.0,0.0,0.0,0.0,0.0,0.0,0.0,0.0,0.0,0.0,0.0,0.0,0.0,0.0,0.0,0.0,0.0,0.0,0.0,0.0,0.0,0.0,0.0,0.0,0.0,0.0,0.0,0.0,0.0,0.0,0.0,0.0,0.0,0.0,0.0,0.0,0.0,0.0,0.0,0.0,0.0,0.0,0.0,0.0,0.0,0.0,0.0,0.0,0.0,0.0,0.0,0.0,0.0,0.0,0.0,0.0,0.0,0.0,0.0,0.0,0.0,0.0,0.0,0.0,0.0,0.0,0.0,0.0,0.0,0.0,0.0,0.0,0.0,0.0,0.5135,0.5687,0.0,0.0,0.0,0.0,0.0,0.0,0.0,0.0,0.0,0.0,0.0,0.0,0.0,0.0,0.0,0.0,0.0,0.0,0.0,0.0,0.0,0.0,0.0,0.0,0.0,0.0,0.0,0.0,0.0,0.0,0.0,0.0,0.0,0.0,0.0,0.0,0.0,0.0,-0.4784,-0.4784,-0.4784,-0.428,-0.282,-0.0554,0.0,0.0,0.0,0.0,0.0,0.0,0.0,0.0,0.0,0.0,0.0,0.0,0.0,0.0,0.0,0.0,0.0,0.0,0.0,0.0,0.0,0.0,0.0,0.0,0.0,0.0,0.0,0.0,0.0,0.0,0.0,0.0,0.0,0.0,0.0,0.0,0.0,0.0,0.0,0.0,0.0,0.0,0.0,0.0,0.0,0.0,0.0,0.0,0.0,0.0,0.0,0.0,0.0,0.0,0.0,0.0,0.0,0.0,0.0,0.0,0.0,0.0,0.0,0.0,0.0,0.0,0.0,0.0,0.0,0.0,0.4734,0.5085,0.0,0.0,0.0,0.0,0.0,0.0,0.0,0.0,0.0,0.0,0.0,0.0,0.0,0.0,0.0,0.0,0.0,0.0,0.0,0.0,0.0,0.0,0.0,0.0,-1.0479,-1.0047,-1.0553,-1.054,0.0,0.0,0.0,0.0,0.0,0.0,0.0,-0.5159,-0.5059,-0.4885,-0.4834,-0.4784,-0.4784,-0.3726,-0.2015,0.0101,0.1161,0.0,0.0,0.0,0.0,0.0,0.0,0.0,0.0,0.0,0.0,0.0,0.0,0.0,0.0,0.0,0.0,0.0,0.0,0.0,0.0,0.0,0.0,0.0,0.0,0.0,0.0,0.0,0.0,0.0,0.0,0.0,0.0,0.0,0.0,0.0,0.0,0.0,0.0,0.0,0.0,0.0,0.0,0.0,0.0,0.0,0.0,0.0,0.0,0.0,0.0,0.0,0.0,0.0,0.0,0.0,0.0,0.0,0.0,0.0,0.0,0.0,0.0,0.0,0.4583,0.4533,0.4533,0.4533,0.4284,0.3882,0.4334,0.4334,0.4078,0.4907,0.0,0.0,0.0,0.0,0.0,0.0,0.0,0.0,0.0,0.0,0.0,0.0,0.0,0.0,0.0,0.0,0.0,0.0,0.0,0.0,0.0,-1.0745,-1.0667,-1.0225,-1.0414,-1.02,0.0,0.0,0.0,0.0,0.0,0.0,0.0,-0.5277,-0.5177,-0.514,-0.4937,-0.4784,-0.4784,-0.3726,-0.2519,-0.131,-0.0202,0.0908,0.2071,0.0,0.0,0.0,0.0,0.0,0.0,0.0,0.0,0.0,0.0,0.0,0.0,0.0,0.0,0.0,0.0,0.0,0.0,0.0,0.0,0.0,0.0,0.0,0.0,0.0,0.0,0.0,0.0,0.0,0.0,0.0,0.0,0.0,0.0,0.0,0.0,0.0,0.0,0.0,0.0,0.0,0.7468,0.7468,0.0,0.0,0.0,0.0,0.0,0.0,0.0,0.0,0.0,0.0,0.0,0.0,0.0,0.6029,0.5829,0.4682,0.4083,0.4083,0.3632,0.343,0.343,0.343,0.3381,0.3331,0.3381,0.0,0.4033,0.4123,0.0,0.0,0.0,0.0,0.0,0.0,0.0,0.0,0.0,0.0,0.0,0.0,0.0,0.0,0.0,0.0,0.0,0.0,0.0,0.0,0.0,-1.0759,-1.0656,-1.0436,-1.086,-1.1031,-1.0658,-0.9304,0.0,0.0,0.0,-0.5825,-0.5728,-0.5688,-0.5491,-0.519,-0.509,-0.4634,-0.3879,-0.3425,-0.2317,-0.0655,-0.0202,0.0656,0.1768,0.207,0.0,0.0,0.0,0.0,0.0,0.0,0.0,0.0,0.0,0.0,0.0,0.0,0.0,0.0,0.0,0.0,0.0,0.0,0.0,0.0,0.0,0.0,0.0,0.0,0.0,0.0,0.0,0.0,0.0,0.0,0.0,0.0,0.0,0.0,0.0,0.0,0.0,0.0,0.0,0.8704,0.8308,0.8308,0.8852,0.9448,0.0,0.0,0.0,0.0,0.0,0.0,0.0,0.0,0.0,0.6476,0.6126,0.5479,0.4431,0.3831,0.3531,0.3531,0.3331,0.318,0.318,0.318,0.318,0.318,0.318,0.3331,0.3575,0.3793,0.4012,0.4178,0.0,0.0,0.0,0.0,0.39,0.3855,0.0,0.0,0.0,0.0,0.0,0.0,0.0,0.0,0.0,0.0,0.0,0.0,-1.1425,-1.1004,-1.0771,-1.0771,-1.1286,-1.1607,-1.1607,-0.9958,0.0,0.0,0.0,-0.6233,-0.6012,-0.5999,-0.5792,-0.5288,-0.4937,-0.4282,-0.3274,-0.2972,-0.1813,0.0,0.0,0.0605,0.1617,0.187,0.2022,0.2071,0.0,0.0,0.0,0.0,0.0,0.0,0.0,0.0,0.0,0.0,0.0,0.0,0.0,0.0,0.0,0.0,0.0,0.0,0.0,0.0,0.0,0.0,0.0,0.0,0.0,0.0,0.0,0.0,0.0,0.0,0.0,0.0,0.0,0.0,0.0,0.0,0.0,0.8848,0.8601,0.8601,0.8601,0.8901,0.0,0.0,0.0,0.0,0.0,0.0,0.7123,0.7223,0.6625,0.5131,0.5231,0.4632,0.323,0.318,0.318,0.318,0.318,0.318,0.318,0.318,0.318,0.318,0.318,0.318,0.3224,0.3521,0.3614,0.3634,0.39,0.3964,0.3927,0.3569,0.3424,0.3365,0.0,0.0,0.0,0.0,0.0,0.0,0.0,0.0,0.0,0.0,0.0,-1.307,-1.2381,-1.1693,-1.1262,-1.1262,-1.1316,-1.1327,-1.1327,-0.97,-0.8794,-0.892,-0.7251,-0.632,-0.6376,-0.6137,-0.5839,-0.5586,-0.428,-0.3629,-0.3527,-0.2268,-0.1058,0.0,0.0,0.0605,0.1617,0.187,0.2022,0.2071,0.2575,0.0,0.0,0.0,0.0,0.0,0.0,0.0,0.0,0.0,0.0,0.0,0.0,0.0,0.0,0.0,0.0,0.0,0.0,0.0,0.0,0.0,0.0,0.0,0.0,0.0,0.0,0.0,0.0,0.0,0.0,0.0,0.0,0.0,0.0,0.0,0.0,0.0,0.0,0.6913,0.6913,0.0,0.0,0.0,0.0,0.727,0.722,0.7074,0.6828,0.5879,0.5181,0.4834,0.3883,0.3281,0.318,0.318,0.318,0.318,0.318,0.318,0.318,0.318,0.318,0.318,0.318,0.318,0.318,0.3224,0.3187,0.3134,0.3177,0.3104,0.3046,0.3046,0.3011,0.292,0.0,0.0,0.0,0.0,0.0,0.0,0.0,0.0,-1.5817,-1.4884,-1.4327,-1.3633,-1.2534,-1.2155,-1.1817,-1.1348,-1.1305,-1.137,-1.1564,-0.9754,-0.879,-0.9017,-0.7299,-0.6323,-0.6384,-0.6287,-0.5787,-0.483,-0.4329,-0.3323,-0.1763,-0.1109,-0.0252,0.0757,0.0959,0.1262,0.1617,0.1718,0.1718,0.1768,0.2122,0.2373,0.0,0.0,0.0,0.0,0.0,0.0,0.0,0.0,0.0,0.0,0.0,0.0,0.0,0.0,0.0,0.0,0.0,0.0,0.0,0.0,0.0,0.0,0.0,0.0,0.0,0.0,0.0,0.0,0.0,0.0,0.0,0.0,0.0,0.0,0.0,0.0,0.0,0.6971,0.6271,0.0,0.6716,0.6274,0.6126,0.6623,0.6027,0.5782,0.6034,0.5682,0.5083,0.4334,0.3932,0.3531,0.318,0.318,0.318,0.318,0.318,0.318,0.318,0.318,0.318,0.318,0.318,0.318,0.318,0.318,0.3145,0.3086,0.3097,0.3102,0.3063,0.3063,0.3051,0.3033,0.0,0.0,0.0,0.0,0.0,0.0,0.0,0.0,-1.587,-1.5148,-1.4698,-1.4055,-1.3167,-1.2662,-1.2192,-1.1731,-1.1511,-1.1488,-1.1693,-0.9917,-0.8938,-0.911,-0.7321,-0.6361,-0.6384,-0.6387,-0.5784,-0.4531,-0.4076,-0.2869,-0.0907,-0.0303,0.0454,0.1212,0.1364,0.1516,0.1617,0.1617,0.1617,0.1617,0.187,0.2121,0.2322,0.0,0.0,0.0,0.0,0.0,0.0,0.0,0.0,0.0,0.0,0.0,0.0,0.0,0.0,0.0,0.0,0.0,0.0,0.0,0.0,0.0,0.0,0.0,0.0,0.0,0.0,0.0,0.0,0.0,0.0,0.0,0.0,0.0,0.0,0.7366,0.6473,0.7021,0.6224,0.5874,0.662,0.6024,0.5877,0.647,0.5629,0.5334,0.5984,0.5418,0.4831,0.4324,0.3993,0.3649,0.3292,0.3292,0.3292,0.3292,0.3292,0.3281,0.3211,0.3211,0.3199,0.318,0.318,0.318,0.318,0.318,0.3157,0.3117,0.3125,0.3098,0.3079,0.3079,0.3115,0.3097,0.0,0.0,0.0,0.0,0.0,0.0,0.0,-1.6411,-1.614,-1.5469,-1.4824,-1.4433,-1.4398,-1.3252,-1.2448,-1.2406,-1.1992,-1.1748,-1.1709,-1.0119,-0.9184,-0.9096,-0.7353,-0.6387,-0.6387,-0.6387,-0.5837,-0.4734,-0.3426,-0.2268,-0.111,0.0152,0.0911,0.1163,0.1213,0.1365,0.1566,0.1617,0.1617,0.1617,0.187,0.1971,0.2071,0.0,0.0,0.0,0.0,0.0,0.0,0.0,0.0,0.0,0.0,0.0,0.0,0.0,0.0,0.0,0.0,0.0,0.0,0.0,0.0,0.0,0.0,0.0,0.0,0.0,0.0,0.0,0.0,0.0,0.0,0.0,0.0,0.0,0.8506,0.846,0.7915,0.6866,0.652,0.6423,0.6423,0.6423,0.652,0.6822,0.6084,0.5992,0.6792,0.5129,0.4407,0.4872,0.3907,0.3413,0.3413,0.3413,0.3413,0.3413,0.3413,0.3382,0.3324,0.3324,0.3292,0.3183,0.3183,0.3183,0.318,0.318,0.318,0.318,0.318,0.3144,0.3093,0.3093,0.3105,0.3102,0.0,0.0,0.0,0.0,0.0,0.0,0.0,-1.6411,-1.614,-1.5469,-1.5257,-1.4957,-1.444,-1.4055,-1.3464,-1.2491,-1.2418,-1.2293,-1.2031,-1.0242,-0.8612,-0.7217,-0.6664,-0.6387,-0.6387,-0.6387,-0.5482,-0.3626,-0.3267,-0.2159,-0.0309,0.0261,0.0574,0.0618,0.1031,0.1228,0.1314,0.1516,0.1617,0.1617,0.1667,0.1819,0.2022,0.0,0.0,0.0,0.0,0.0,0.0,0.0,0.0,0.0,0.0,0.0,0.0,0.0,0.0,0.0,0.0,0.0,0.0,0.0,0.0,0.0,0.0,0.0,0.0,0.0,0.0,0.0,0.0,0.0,0.0,0.0,0.7316,0.6371,0.5977,0.5829,0.5729,0.5677,0.6074,0.647,0.6667,0.652,0.6609,0.7208,0.7014,0.7063,0.7373,0.615,0.5275,0.5069,0.3985,0.3413,0.3413,0.3413,0.3413,0.3413,0.3413,0.3403,0.3387,0.3387,0.3354,0.3296,0.3296,0.322,0.318,0.318,0.318,0.318,0.318,0.3169,0.3156,0.3156,0.3195,0.3174,0.0,0.0,0.0,0.0,0.0,0.0,0.0,-1.7104,-1.6709,-1.5912,-1.5549,-1.5307,-1.505,-1.4642,-1.3977,-1.2918,-1.2829,-1.2659,-1.2129,-1.0398,-0.866,-0.7126,-0.6634,-0.6387,-0.6387,-0.6387,-0.5352,-0.3211,-0.3194,-0.2081,0.0,0.0159,0.0318,0.042,0.0834,0.1084,0.1226,0.147,0.1617,0.1617,0.1617,0.1718,0.1869,0.1971,0.2272,0.2623,0.2775,0.2977,0.318,0.318,0.0,0.0,0.0,0.0,0.0,0.0,0.0,0.0,0.0,0.0,0.0,0.0,0.0,0.0,0.0,0.0,0.0,0.0,0.0,0.0,0.0,0.0,0.0,0.0,0.6226,0.5529,0.4883,0.5183,0.5529,0.5677,0.6523,0.7191,0.7547,0.751,0.7924,0.8995,0.8443,0.8124,0.8318,0.7155,0.6119,0.5165,0.4283,0.3757,0.3486,0.3486,0.3486,0.3486,0.3486,0.3473,0.3447,0.3447,0.3416,0.336,0.336,0.3324,0.3217,0.3217,0.3203,0.318,0.0,0.0,0.0,0.0,0.318,0.3176,0.0,0.0,0.0,0.0,0.0,0.0,0.0,-1.8093,-1.7478,-1.6668,-1.5861,-1.5513,-1.5877,-1.5057,-1.423,-1.3561,-1.3326,-1.2888,-1.2026,-1.0491,-0.911,-0.8071,-0.698,-0.6387,-0.6387,-0.6387,-0.533,-0.321,-0.3217,-0.2098,0.0,0.0,0.0107,0.0374,0.0683,0.0936,0.1193,0.1477,0.1617,0.1617,0.1617,0.1617,0.1617,0.1869,0.2121,0.2422,0.2674,0.2923,0.3169,0.3169,0.0,0.0,0.0,0.0,0.0,0.0,0.0,0.0,0.0,0.0,0.0,0.0,0.0,0.0,0.0,0.0,0.0,0.0,0.0,0.0,0.0,0.0,0.0,0.0,0.4983,0.5033,0.5133,0.5977,0.6623,0.6672,0.7584,0.8403,0.89,0.8987,0.9686,1.1162,0.9814,0.9035,0.9365,0.811,0.0,0.0,0.0,0.4313,0.3866,0.3699,0.3587,0.3587,0.3587,0.3559,0.3507,0.3507,0.3476,0.3422,0.3422,0.3388,0.3332,0.3332,0.3296,0.3189,0.3183,0.318,0.318,0.318,0.318,0.318,0.0,0.0,0.0,0.0,0.0,0.0,0.0,-1.8532,-1.7731,-1.7565,-1.6272,-1.5513,-1.5877,-1.5494,-1.4957,-1.4272,-1.4019,-1.3205,-1.1515,-1.0253,-0.911,-0.8071,-0.698,-0.6387,-0.6387,-0.6387,-0.533,-0.321,-0.3202,-0.2082,0.0,0.0,0.0055,0.0109,0.0588,0.0842,0.0933,0.1375,0.1617,0.1617,0.1617,0.1617,0.1617,0.1667,0.1969,0.2422,0.2472,0.2749,0.3108,0.3108,0.3108,0.3108,0.3108,0.3141,0.0,0.0,0.0,0.0,0.0,0.0,0.0,0.0,0.0,0.0,0.0,0.0,0.0,0.0,0.0,0.0,0.0,0.0,0.0,0.6176,0.6077,0.6376,0.7276,0.7574,0.7869,0.8259,0.9033,0.9847,1.0547,0.9769,0.9605,1.051,0.9621,0.9248,0.9697,0.8365,0.7773,0.8152,0.5799,0.4756,0.5367,0.4199,0.3587,0.3587,0.3587,0.0,0.357,0.357,0.3537,0.348,0.348,0.3447,0.3395,0.3395,0.3358,0.3298,0.3199,0.318,0.318,0.318,0.318,0.318,0.0,0.0,0.0,0.0,0.0,0.0,0.0,-2.0035,-1.9132,-1.8169,-1.7106,-1.6266,-1.5942,-1.5579,-1.5021,-1.4134,-1.3566,-1.2883,-1.2042,-1.0493,-0.9357,-0.8814,-0.7279,-0.6387,-0.6387,-0.5887,-0.4794,-0.3199,-0.2646,-0.1564,0.0,0.0,0.0,0.0,0.043,0.0687,0.083,0.1222,0.1465,0.1617,0.1617,0.1617,0.1617,0.1617,0.1919,0.2422,0.2422,0.2692,0.309,0.309,0.312,0.3094,0.3094,0.3136,0.3129,0.0,0.0,0.0,0.0,0.0,0.0,0.0,0.0,0.0,0.0,0.0,0.0,0.0,0.0,0.6224,0.0,0.0,0.6224,0.5677,0.6027,0.6772,0.7872,0.8089,0.8438,0.9237,0.9676,1.0263,1.1135,1.0241,1.015,1.1294,1.0608,1.021,1.0457,0.9746,0.9189,0.8906,0.703,0.598,0.581,0.4646,0.3923,0.3587,0.3587,0.3587,0.3587,0.3587,0.3571,0.3542,0.3542,0.351,0.3452,0.3424,0.3394,0.3364,0.3334,0.3285,0.318,0.318,0.318,0.318,0.0,0.0,0.0,0.0,0.0,0.0,0.0,-2.153,-2.0551,-1.8835,-1.7911,-1.7019,-1.5999,-1.5579,-1.4979,-1.3893,-1.3026,-1.2605,-1.2791,-1.0788,-0.9608,-0.9608,-0.7528,-0.6387,-0.6387,-0.5536,-0.4502,-0.3223,-0.2329,-0.1239,0.0,0.0,0.0,0.0,0.0321,0.0579,0.083,0.112,0.1415,0.1617,0.1617,0.1617,0.1617,0.1617,0.1919,0.2422,0.2422,0.2692,0.3089,0.3077,0.309,0.3094,0.3083,0.3074,0.3112,0.3112,0.3127,0.0,0.0,0.0,0.0,0.0,0.0,0.0,0.0,0.0,0.6825,0.5974,0.5927,0.5827,0.4983,0.5827,0.6423,0.5582,0.6329,0.7322,0.8173,0.851,0.9027,0.9933,1.0071,1.047,1.1363,1.0671,1.0746,1.2318,1.1564,1.1181,1.1345,1.1181,1.0625,0.9622,0.8472,0.731,0.6253,0.5477,0.4589,0.3587,0.381,0.381,0.3587,0.3587,0.3587,0.3587,0.3587,0.3559,0.3511,0.3465,0.344,0.3428,0.3428,0.3362,0.3213,0.3203,0.3191,0.318,0.0,0.0,0.0,0.0,0.0,0.0,0.0,0.0,-2.082,-1.9772,-1.8341,-1.7019,-1.5999,-1.5579,-1.5021,-1.4116,-1.3417,-1.2979,-1.2829,-1.0788,-0.9608,-0.9608,-0.7528,-0.6387,-0.6387,-0.6284,-0.5234,-0.3219,-0.3065,-0.1995,0.0,0.0,0.0,0.0,0.0525,0.078,0.083,0.1324,0.1566,0.1617,0.1617,0.1617,0.1617,0.1617,0.1919,0.2422,0.2422,0.2692,0.3082,0.3078,0.3102,0.3087,0.3032,0.3057,0.3106,0.3098,0.0,0.3294,0.4262,0.4567,0.4383,0.343,0.338,0.3531,0.0,0.0,0.3681,0.358,0.4332,0.4933,0.4834,0.6478,0.7773,0.7673,0.8524,0.9278,0.9426,0.9824,1.0196,1.0474,1.0695,1.1133,1.1921,1.1166,1.1105,1.2327,1.1564,1.1455,1.2219,1.1509,1.14,1.1996,0.99,0.8407,0.7738,0.7412,0.6028,0.3587,0.4702,0.4646,0.3587,0.3587,0.3587,0.3587,0.3587,0.3583,0.3576,0.3571,0.3536,0.3488,0.3488,0.3448,0.3386,0.3331,0.3226,0.318,0.0,0.0,0.0,0.0,0.0,0.0,0.0,0.0,0.0,-2.0018,-1.9041,-1.7837,-1.61,-1.5005,-1.4243,-1.3907,-1.3044,-1.2518,-1.2586,-1.1144,-1.0082,-0.9604,-0.812,-0.703,-0.6437,-0.5787,-0.5027,-0.4136,-0.2899,-0.1831,-0.0906,-0.0267,0.0106,0.0262,0.0469,0.0723,0.1022,0.1267,0.1465,0.1617,0.1617,0.1617,0.1617,0.1617,0.1818,0.2171,0.2321,0.2692,0.0,0.3117,0.3072,0.3033,0.2974,0.2996,0.3036,0.3003,0.3061,0.0,0.3665,0.4272,0.0,0.0,0.3682,0.3982,0.3331,0.3682,0.3932,0.3331,0.4033,0.4784,0.4784,0.6528,0.8021,0.0,0.8874,0.9661,0.9762,1.0187,1.063,1.0984,1.1335,1.1666,1.199,1.1683,1.1728,1.2327,1.2055,1.2055,1.2621,1.2298,1.2293,1.28,1.1327,1.0089,0.9255,0.8591,0.7377,0.5644,0.5481,0.5148,0.4648,0.3921,0.3587,0.3587,0.3587,0.3587,0.3587,0.3587,0.3572,0.3549,0.3549,0.3514,0.3454,0.3395,0.3335,0.3232,0.0,0.0,0.0,0.0,0.0,0.0,0.0,0.0,0.0,0.0,-1.9748,-1.8536,-1.6165,-1.4688,-1.384,-1.3698,-1.2826,-1.2277,-1.2296,-1.136,-1.0402,-0.9527,-0.8541,-0.7478,-0.6437,-0.5636,-0.5115,-0.4822,-0.3236,-0.2175,-0.1574,-0.0735,-0.0052,0.0412,0.0567,0.0818,0.1212,0.1263,0.1415,0.1617,0.1617,0.1617,0.1617,0.1617,0.1763,0.2056,0.2317,0.2642,0.2983,0.307,0.3055,0.2994,0.2936,0.2958,0.2997,0.2954,0.3212,0.3471,0.3196,0.0,0.0,0.3482,0.3783,0.4133,0.3381,0.3781,0.4133,0.3381,0.4282,0.5231,0.5231,0.6977,0.8421,0.8421,0.9076,0.9685,0.9961,1.0403,1.0854,1.1372,1.1833,1.2114,1.2114,1.2114,1.2164,1.2382,1.2387,1.2535,1.2813,1.2823,1.2918,1.3117,1.2431,1.1473,1.0201,0.9818,0.8838,0.7249,0.6311,0.5704,0.5371,0.4145,0.3587,0.3587,0.3587,0.3587,0.3587,0.3587,0.3587,0.3587,0.3587,0.356,0.3516,0.3476,0.3413,0.3346,0.0,0.0,0.0,0.0,0.0,0.0,0.0,0.0,0.0,0.0,0.0,0.0,0.0,-1.4979,-1.4188,-1.3729,-1.3097,-1.2506,-1.2135,-1.1276,-1.0339,-0.924,-0.843,-0.7478,-0.6437,-0.6387,-0.5837,-0.4788,-0.4738,-0.363,-0.1616,-0.1313,-0.0606,0.0404,0.0961,0.1162,0.1212,0.1465,0.1617,0.1617,0.1617,0.1617,0.1617,0.1617,0.1749,0.2021,0.2306,0.2541,0.2739,0.302,0.3055,0.2994,0.2936,0.2958,0.0,0.3003,0.3798,0.4422,0.346,0.0,0.4533,0.3482,0.323,0.323,0.323,0.323,0.323,0.323,0.4878,0.6373,0.6373,0.8124,0.9529,0.9529,0.9579,0.9739,1.0213,1.0711,1.1168,1.1637,1.2102,1.2382,0.0,1.2382,1.2382,1.2387,1.2387,1.2535,1.2813,1.2823,1.2918,1.3117,1.3069,1.2213,1.0482,1.1345,1.0412,0.7578,0.7193,0.6478,0.5371,0.4145,0.3587,0.3587,0.3587,0.3587,0.3587,0.3587,0.3587,0.3587,0.3587,0.3586,0.3585,0.3582,0.3508,0.341,0.0,0.0,0.0,0.0,0.0,0.0,0.0,0.0,0.0,0.0,0.0,0.0,0.0,0.0,0.0,0.0,-1.2881,-1.2298,-1.1846,-1.157,-1.0718,-0.9268,-0.8951,-0.7965,-0.6189,-0.6139,-0.5889,-0.5334,-0.4634,-0.3527,-0.2115,-0.131,-0.0252,0.096,0.1111,0.1313,0.1465,0.1566,0.1617,0.1617,0.1617,0.1605,0.1587,0.1587,0.1617,0.1735,0.0,0.2468,0.2733,0.2961,0.3022,0.3001,0.2982,0.2989,0.3012,0.3054,0.384,0.4462,0.341,0.3945,0.4533,0.3482,0.318,0.318,0.318,0.318,0.318,0.318,0.4929,0.6473,0.6617,0.8269,0.9677,0.9821,0.9727,0.9739,1.0226,1.0716,1.1168,1.1637,1.2102,0.0,0.0,0.0,0.0,1.2387,1.2387,1.2535,1.2813,1.2951,1.3065,1.3277,1.3282,1.2827,1.1925,1.2093,1.1424,0.9904,0.8023,0.6086,0.4201,0.3811,0.3587,0.3587,0.3587,0.3587,0.3587,0.3587,0.3587,0.3587,0.3587,0.3587,0.3587,0.3587,0.3563,0.3523,0.0,0.0,0.0,0.0,0.0,0.0,0.0,0.0,0.0,0.0,0.0,0.0,0.0,0.0,0.0,0.0,0.0,-1.2577,-1.174,-1.1561,-1.0643,-0.8847,-0.8867,-0.7976,-0.6028,-0.5981,-0.5849,-0.5586,-0.4885,-0.4029,-0.2971,-0.1762,-0.0554,0.0656,0.1111,0.1415,0.1617,0.1617,0.1617,0.1615,0.1605,0.1589,0.162,0.1559,0.1584,0.0,0.2125,0.2443,0.2655,0.2917,0.299,0.2978,0.2998,0.3034,0.3035,0.3095,0.3629,0.4009,0.332,0.3648,0.4083,0.3381,0.318,0.318,0.318,0.318,0.318,0.318,0.4977,0.662,0.6766,0.8418,0.9821,1.0117,0.992,0.9892,1.0382,1.0874,1.1272,1.1637,1.2102,1.2387,0.0,0.0,0.0,1.2387,1.2387,1.2535,1.2813,1.2946,1.3055,1.3268,1.3277,1.3058,1.2502,1.2266,1.1539,1.03,0.8692,0.6642,0.4257,0.4257,0.4033,0.3587,0.3587,0.3587,0.3587,0.3587,0.3587,0.3587,0.3587,0.3587,0.3587,0.3587,0.3587,0.3582,0.0,0.0,0.0,0.0,0.0,0.0,0.0,0.0,0.0,0.0,0.0,0.0,0.0,0.0,0.0,0.0,0.0,0.0,-1.1856,-1.131,-1.0128,-0.814,-0.8232,-0.7587,-0.5909,-0.5863,-0.5767,-0.557,-0.557,-0.497,-0.382,-0.256,-0.1356,-0.0251,0.1007,0.1612,0.1612,0.1612,0.1612,0.1609,0.1581,0.1617,0.1564,0.1535,0.1646,0.1848,0.2126,0.2327,0.2567,0.2889,0.2965,0.2933,0.299,0.3044,0.3102,0.3162,0.318,0.318,0.318,0.318,0.318,0.318,0.318,0.318,0.318,0.318,0.318,0.318,0.5127,0.6816,0.6816,0.8563,1.0068,1.0261,1.0117,1.0132,1.0516,1.1019,1.1476,0.0,0.0,0.0,0.0,0.0,0.0,1.2387,1.2387,1.2531,1.2794,1.2762,1.2913,1.3103,1.3051,1.2843,1.2315,1.2026,1.0914,0.8975,0.9251,0.7974,0.5425,0.5427,0.4758,0.3587,0.3587,0.3587,0.3587,0.3587,0.3587,0.3587,0.3587,0.3587,0.3587,0.3587,0.3587,0.3587,0.0,0.0,0.0,0.0,0.0,0.0,0.0,0.0,0.0,0.0,0.0,0.0,0.0,0.0,0.0,0.0,0.0,0.0,-1.2888,-1.1663,-1.0279,-0.8575,-0.8088,-0.7058,-0.5267,-0.5222,-0.5093,-0.4831,-0.4831,-0.3911,-0.2125,-0.1787,-0.0676,0.1016,0.1355,0.1549,0.1549,0.1549,0.1549,0.1549,0.154,0.1524,0.1503,0.1495,0.1612,0.1854,0.2126,0.2344,0.2561,0.2846,0.0,0.0,0.3054,0.3078,0.3102,0.3162,0.318,0.318,0.318,0.318,0.318,0.318,0.318,0.318,0.318,0.318,0.318,0.318,0.5127,0.6866,0.7071,0.8669,0.0,0.9308,0.9468,0.0,0.9072,1.0208,0.0,1.1424,0.0,1.2387,1.2387,1.2387,0.0,0.0,1.2387,1.241,1.2521,1.2677,1.2847,1.2843,1.2904,1.2819,1.2655,1.222,1.1173,0.9578,0.9471,0.8085,0.5701,0.5481,0.4758,0.3587,0.3587,0.3587,0.3587,0.3587,0.3587,0.3587,0.3587,0.3587,0.3587,0.3587,0.3587,0.3587,0.0,0.0,0.0,0.0,0.0,0.0,0.0,0.0,0.0,0.0,0.0,0.0,0.0,0.0,0.0,0.0,0.0,0.0,0.0,-1.1964,-1.0493,-0.8975,-0.8232,-0.7071,-0.5514,-0.5135,-0.4851,-0.4621,-0.4621,-0.4,-0.2855,-0.1951,-0.0904,0.0238,0.1097,0.1478,0.1478,0.1478,0.1478,0.0,0.0,0.1496,0.1525,0.1604,0.1768,0.2019,0.2243,0.0,0.0,0.0,0.0,0.3015,0.3077,0.3091,0.3102,0.3162,0.0,0.318,0.318,0.318,0.318,0.318,0.318,0.318,0.318,0.318,0.338,0.393,0.5627,0.7217,0.7961,0.9213,1.0064,0.0,0.0,0.0,0.9118,0.9801,1.0574,0.0,1.1845,0.0,1.2377,1.2387,1.2387,1.2387,1.2387,1.2387,1.2387,1.2554,1.2625,1.2625,1.2625,1.2565,1.2455,1.2174,1.1455,1.0351,1.0355,0.9247,0.7143,0.698,0.598,0.4369,0.4369,0.4089,0.3587,0.3587,0.3587,0.3587,0.3587,0.3587,0.3587,0.3587,0.3587,0.3587,0.0,0.0,0.0,0.0,0.0,0.0,0.0,0.0,0.0,0.0,0.0,0.0,0.0,0.0,0.0,0.0,0.0,0.0,0.0,0.0,-1.07,-0.9257,-0.8434,-0.7392,-0.6083,-0.5372,-0.4899,-0.4621,-0.4559,-0.4505,-0.4364,-0.2553,-0.1605,-0.1416,0.0473,0.1325,0.1325,0.1419,0.1467,0.1465,0.1485,0.1475,0.1518,0.0,0.0,0.0,0.0,0.0,0.0,0.0,0.2951,0.3005,0.3075,0.3086,0.3091,0.316,0.318,0.318,0.318,0.318,0.318,0.318,0.318,0.318,0.318,0.323,0.3681,0.4931,0.0,0.7717,0.8951,0.9903,1.0462,1.0551,0.0,0.8863,0.962,0.9716,0.9992,1.0915,1.1638,1.2165,1.2363,1.2387,1.2387,1.2387,1.2387,1.2387,1.2387,1.2387,1.2387,1.2387,1.2387,1.2273,1.2005,1.206,1.1782,1.1236,1.1459,1.0684,0.903,0.892,0.7645,0.5427,0.5427,0.4704,0.3587,0.3587,0.3587,0.3587,0.3587,0.3587,0.3587,0.3587,0.3587,0.3587,0.0,0.0,0.0,0.0,0.0,0.0,0.0,0.0,0.0,0.0,-2.0158,0.0,0.0,0.0,0.0,0.0,0.0,0.0,0.0,0.0,0.0,-0.9152,-0.84,-0.7346,-0.5892,-0.5703,-0.528,-0.4621,-0.4496,-0.404,-0.3251,-0.283,-0.2217,-0.1357,-0.0226,0.0272,0.0317,0.1088,0.1406,0.1405,0.14,0.1398,0.1442,0.1438,0.0,0.0,0.0,0.0,0.0,0.0,0.2925,0.2953,0.3062,0.3104,0.3135,0.3198,0.318,0.318,0.318,0.318,0.318,0.318,0.318,0.318,0.318,0.3531,0.0,0.0,0.6625,0.8117,0.9049,1.0051,1.0404,0.9304,0.9464,0.9418,0.8471,0.957,1.0625,0.0,1.1638,1.2165,1.2363,1.2387,0.0,0.0,1.2387,1.2387,1.2387,1.2387,1.2387,1.2387,1.2387,1.2273,1.2005,1.2223,1.2169,1.1841,1.1678,1.0903,0.9633,0.914,0.7645,0.5427,0.5427,0.4704,0.3587,0.3587,0.3587,0.3587,0.3587,0.3587,0.3587,0.3587,0.3587,0.3587,0.0,0.0,0.0,0.0,0.0,0.0,0.0,0.0,0.0,0.0,-1.9977,-1.9392,0.0,0.0,0.0,0.0,0.0,0.0,0.0,0.0,0.0,0.0,0.0,0.0,-0.713,-0.67,-0.6048,-0.5232,0.0,-0.4688,-0.3802,-0.3218,-0.2686,-0.2183,-0.117,-0.0448,0.0045,0.0493,0.0942,0.1391,0.1391,0.148,0.0,0.0,0.0,0.0,0.0,0.0,0.0,0.0,0.292,0.2933,0.3022,0.307,0.3115,0.3157,0.3156,0.318,0.318,0.318,0.318,0.318,0.318,0.318,0.318,0.0,0.0,0.0,0.6874,0.8319,0.941,1.0256,0.0,0.9953,0.946,0.9118,0.9069,0.9436,1.0012,1.077,1.1483,1.2001,1.2208,1.2321,1.2488,1.2602,1.2502,1.2387,1.2387,1.2387,1.2387,1.2387,1.2387,1.2332,1.2223,1.2332,1.2273,1.2005,1.1896,1.1345,1.0464,1.019,0.8692,0.6311,0.6311,0.5256,0.3587,0.3587,0.3977,0.4479,0.3866,0.3977,0.4479,0.381,0.3587,0.3587,0.0,0.0,0.0,0.0,0.0,0.0,0.0,-2.275,-2.2069,-2.0204,-1.9931,-1.9255,-1.7512,-1.7113,0.0,0.0,0.0,0.0,0.0,0.0,0.0,0.0,0.0,0.0,0.0,0.0,0.0,-0.6109,-0.5894,0.0,0.0,0.0,0.0,0.0,-0.2229,-0.1352,-0.0631,-0.018,0.0403,0.0,0.0,0.1615,0.0,0.0,0.0,0.0,0.0,0.0,0.0,0.0,0.292,0.2926,0.2972,0.3027,0.3094,0.3134,0.3134,0.3164,0.3177,0.318,0.318,0.318,0.318,0.318,0.318,0.3632,0.0,0.5729,0.6927,0.8223,0.9719,1.0364,1.0654,0.0,0.9756,0.9164,0.992,0.9509,0.9524,0.0,1.1248,0.0,1.2062,1.2269,0.0,1.2804,1.2606,1.2434,1.2387,1.2387,1.2387,1.2387,1.2387,1.2387,1.2387,1.2387,1.2278,1.2114,1.2005,1.1732,1.1291,1.1224,0.9831,0.7584,0.7554,0.6328,0.4365,0.4365,0.4923,0.5648,0.4423,0.459,0.526,0.4033,0.3587,0.3587,0.0,0.0,0.0,0.0,0.0,0.0,0.0,-2.2574,-2.1882,-2.0376,-2.0014,-1.9255,-1.7512,-1.7113,0.0,0.0,0.0,0.0,0.0,0.0,0.0,0.0,0.0,0.0,0.0,0.0,0.0,-0.7053,-0.6298,0.0,0.0,0.0,0.0,0.0,0.0,-0.281,-0.2624,-0.0768,0.0,0.0,0.0,0.0,0.0,0.0,0.0,0.0,0.0,0.0,0.0,0.0,0.0,0.292,0.2925,0.2967,0.3047,0.3172,0.0,0.0,0.3165,0.318,0.318,0.318,0.318,0.318,0.318,0.0,0.4383,0.5729,0.6478,0.7524,0.962,1.0019,1.0216,1.0703,1.0703,1.0458,1.0068,1.0162,1.0334,1.0639,0.0,0.0,1.2048,1.2269,1.2531,1.2804,1.2804,1.2654,1.2396,1.2387,1.2387,1.2387,1.2387,1.2387,1.2387,1.2387,1.2382,1.2387,1.2114,1.1951,1.19,1.1531,1.0564,0.9203,0.9055,0.8139,0.6753,0.6753,0.6861,0.6808,0.5701,0.5316,0.526,0.4033,0.3587,0.3587,0.0,0.0,0.0,0.0,0.0,0.0,0.0,-2.2872,-2.2192,-2.0413,-2.015,-1.9376,-1.7505,-1.7113,-1.6932,0.0,0.0,0.0,0.0,0.0,0.0,0.0,0.0,0.0,0.0,0.0,-0.8733,-0.7935,-0.7084,0.0,0.0,0.0,0.0,0.0,0.0,-0.3621,-0.3004,-0.2163,0.0,0.0,0.0,0.0,0.0,0.0,0.0,0.0,0.0,0.0,0.0,0.0,0.0,0.0,0.296,0.2962,0.0,0.0,0.3101,0.3095,0.312,0.3126,0.3134,0.3171,0.318,0.318,0.318,0.0,0.4133,0.4682,0.5882,0.708,0.7925,0.9122,1.0068,1.0265,1.0605,1.0708,1.0507,1.056,1.0686,1.0771,1.1089,0.0,0.0,0.0,1.2292,1.2554,1.2805,1.28,1.2401,1.2387,1.2387,1.2387,1.2387,1.2387,1.2387,1.2387,1.2387,1.2387,1.2463,1.2358,1.2197,1.1832,1.0919,0.9552,0.9185,0.8301,0.7083,0.7083,0.7529,0.7974,0.6146,0.5815,0.62,0.4311,0.3587,0.3587,0.0,0.0,0.0,0.0,0.0,0.0,-2.3091,-2.3091,-2.2413,-2.0458,-2.0187,-1.9467,-1.7512,-1.7153,-1.6972,-1.673,0.0,0.0,0.0,0.0,0.0,0.0,0.0,0.0,0.0,0.0,-0.9327,-0.873,-0.7935,-0.7288,0.0,0.0,-0.5091,-0.5087,0.0,0.0,0.0,0.0,0.0,0.0,0.0,0.0,0.0,0.0,0.0,0.0,0.0,0.0,0.0,0.0,0.0,0.0,0.0,0.0,0.0,0.0,0.3033,0.309,0.3108,0.3113,0.3123,0.3166,0.3189,0.3154,0.0,0.0,0.3831,0.3982,0.5183,0.6331,0.6731,0.8375,0.9723,0.9969,1.0511,1.0904,1.0806,1.0801,1.0801,1.0801,0.0,1.14,1.1657,1.1977,1.2288,1.2606,1.2843,1.2847,1.2554,1.2419,1.2387,1.2387,1.2387,1.2387,1.2387,1.2502,1.2535,1.2535,1.2753,1.2711,1.2432,1.2206,1.1483,1.0353,0.9846,0.9123,0.83,0.8192,0.8637,0.9251,0.7202,0.67,0.6864,0.4868,0.3923,0.3587,0.0,0.0,0.0,0.0,0.0,0.0,0.0,-2.3091,-2.2413,-2.0458,-2.0187,-1.9467,-1.7512,-1.7279,-1.72,-1.7026,0.0,0.0,0.0,0.0,0.0,0.0,0.0,0.0,0.0,0.0,-0.9579,-0.9579,-0.8783,-0.8382,-0.8333,-0.6739,-0.5989,-0.5937,0.0,0.0,0.0,0.0,0.0,0.0,0.0,0.0,0.0,0.0,0.0,0.0,0.0,0.0,0.0,0.0,0.0,0.0,0.0,0.2958,0.3015,0.0,0.3054,0.3019,0.3081,0.3097,0.3098,0.3098,0.3097,0.3091,0.0,0.0,0.3381,0.3882,0.4435,0.5233,0.6531,0.7925,0.9072,0.9871,1.0654,1.1096,1.085,1.0801,1.0801,0.0,0.0,1.0987,1.145,1.2077,1.2611,1.3089,1.2937,1.2823,1.2823,1.2559,1.2387,1.2387,1.2387,1.2387,1.2387,1.2658,1.2823,1.2823,1.3022,1.3017,1.2772,1.2629,1.2384,1.1964,1.1552,1.1248,1.1017,1.0747,1.0692,1.0582,0.9364,0.8143,0.6972,0.5815,0.4648,0.3587,0.0,0.0,0.0,0.0,0.0,0.0,0.0,-2.2374,-2.1695,-2.0367,-1.965,-1.8742,-1.7419,-1.7279,-1.7286,-1.7192,0.0,0.0,0.0,0.0,0.0,0.0,0.0,0.0,0.0,0.0,-0.9579,-0.9579,-0.8779,-0.8382,-0.8382,-0.7338,-0.6539,-0.5989,-0.5708,-0.5293,0.0,0.0,0.0,0.0,0.0,0.0,0.0,0.0,0.0,0.0,0.0,0.0,0.0,0.0,0.0,0.0,0.0,0.0,0.0,0.2969,0.2989,0.3008,0.3029,0.3033,0.3043,0.3086,0.3112,0.3089,0.3081,0.3105,0.318,0.3422,0.3883,0.4483,0.5284,0.6977,0.8471,0.9072,1.0306,1.1145,0.0,0.0,0.0,1.1047,1.1177,1.1344,0.0,0.0,1.2175,1.2214,1.2559,1.2644,1.2351,1.2545,1.2597,1.2391,1.2387,1.2512,1.2663,1.2734,1.2823,1.2828,1.297,1.2961,1.2767,1.2548,1.2226,1.1877,1.1415,1.1075,1.0802,1.0747,1.0692,1.0523,0.8472,0.7418,0.6864,0.4868,0.3921,0.3587,0.0,0.0,0.0,0.0,0.0,0.0,0.0,-2.1834,-2.1112,-2.0116,-1.9294,-1.8427,-1.7419,-1.7279,-1.7279,-1.7279,0.0,0.0,0.0,0.0,0.0,0.0,0.0,0.0,0.0,-0.9821,-0.9579,-0.9579,-0.908,-0.8829,-0.8832,-0.8035,-0.7388,-0.6889,-0.6289,-0.5739,0.0,0.0,0.0,0.0,0.0,0.0,0.1046,0.0,0.0,0.0,0.0,0.0,0.0,0.0,0.0,0.0,0.0,0.0,0.0,0.0,0.2944,0.2972,0.2972,0.2972,0.2982,0.3019,0.3045,0.0,0.0,0.3089,0.3123,0.3134,0.3593,0.404,0.4386,0.6114,0.7691,0.8332,0.9705,1.0763,0.0,0.0,0.0,1.1047,0.0,0.0,0.0,1.1751,1.186,1.1883,1.2233,1.2328,1.2095,1.2313,1.2346,1.2156,1.2302,1.2502,1.2639,1.2729,1.2823,1.2828,1.297,1.2961,1.2767,1.2595,1.2274,1.1915,1.1456,1.1131,0.0,1.0747,1.0692,1.0523,0.8527,0.7473,0.6861,0.4979,0.3977,0.3587,0.0,0.0,0.0,0.0,0.0,0.0,0.0,0.0,0.0,0.0,-1.9048,-1.8311,-1.7419,-1.7279,-1.7279,0.0,0.0,0.0,0.0,0.0,0.0,0.0,0.0,0.0,0.0,-1.0207,-0.9677,-0.9579,-0.9579,-0.9579,-0.9579,-0.8832,-0.8432,-0.8333,-0.6839,-0.6092,0.0,0.0,0.0,0.0,0.0,0.0,0.0,0.0,0.0,0.0,0.0,0.0,0.0,0.0,0.0,0.0,0.0,0.0,0.0,0.0,0.0,0.0,0.0,0.292,0.292,0.0,0.0,0.0,0.0,0.0,0.0,0.3121,0.3474,0.3863,0.3912,0.5363,0.6819,0.7746,0.8908,0.9944,0.0,1.0801,0.0,0.0,1.0998,0.0,1.1427,1.1496,1.1657,1.1991,1.1912,1.1898,1.2034,1.1935,1.1831,1.1817,1.2137,1.2349,1.2363,1.2621,1.2785,1.2748,1.2932,1.2923,1.2743,1.2743,1.2464,1.1951,1.1732,1.1404,1.1072,1.0802,1.0692,1.0582,0.9251,0.8085,0.6974,0.5704,0.4534,0.3587,0.0,0.0,0.0,0.0,0.0,0.0,0.0,0.0,0.0,0.0,0.0,-1.7331,-1.7304,-1.7279,0.0,0.0,0.0,0.0,0.0,0.0,0.0,0.0,0.0,0.0,0.0,-1.093,-1.04,-0.9579,-0.9579,-0.9579,-0.9579,-0.9426,-0.8981,-0.8382,-0.7985,0.0,0.0,0.0,0.0,0.0,0.0,0.0,0.0,0.0,0.0,0.0,0.1953,0.2375,0.0,0.0,0.0,0.0,0.0,0.0,0.0,0.0,0.292,0.292,0.292,0.0,0.292,0.292,0.2929,0.295,0.0,0.0,0.0,0.0,0.0,0.3405,0.3833,0.5068,0.6423,0.7681,0.8086,0.8869,1.0578,1.0605,0.0,1.0216,1.0609,1.0923,1.0969,1.1175,1.1312,1.1411,1.1666,1.177,1.1671,1.1864,1.1935,1.1822,1.1912,1.1991,1.2156,1.2208,1.2365,1.2517,1.2564,1.2564,1.2517,1.2517,1.2215,1.1678,1.1623,1.1295,1.0802,1.0747,1.0692,1.0468,0.8358,0.7362,0.6864,0.4812,0.3866,0.3587,0.0,0.0,0.0,0.0,0.0,0.0,0.0,0.0,0.0,0.0,0.0,0.0,0.0,0.0,0.0,0.0,0.0,0.0,0.0,0.0,0.0,0.0,0.0,0.0,-1.1901,-1.0935,-1.0158,-0.9579,-0.9579,-0.9579,-0.9579,-0.9579,-0.9377,-0.8928,-0.8184,0.0,0.0,0.0,0.0,0.0,-0.2927,0.0,0.0,0.0,0.0,0.0,0.151,0.1991,0.0,0.2793,0.292,0.292,0.0,0.0,0.0,0.0,0.292,0.292,0.292,0.292,0.292,0.292,0.292,0.2926,0.2958,0.0,0.0,0.0,0.0,0.3148,0.3429,0.425,0.5237,0.639,0.6738,0.7599,0.0,0.0,0.971,1.0314,1.0605,1.0855,1.0949,1.1096,1.1194,1.1194,1.1406,1.1482,1.1378,1.1581,1.1652,1.1534,1.1529,1.168,1.1935,1.194,1.2044,1.21,1.21,1.21,1.21,1.21,1.1884,1.1441,1.1441,1.1163,1.0692,1.0692,1.0692,1.0468,0.8026,0.7083,0.6805,0.4477,0.3587,0.3587,0.0,0.0,0.0,0.0,0.0,0.0,0.0,0.0,0.0,0.0,0.0,0.0,0.0,0.0,0.0,0.0,0.0,0.0,0.0,0.0,0.0,0.0,0.0,-1.2877,-1.2678,-1.0841,-0.9772,-0.9579,-0.9579,-0.9579,-0.9579,-0.9579,-0.9579,-0.9529,-0.8035,-0.6939,0.0,0.0,0.0,0.0,-0.2623,0.0,0.0,0.0,0.0,0.0,0.0,0.0,0.0,0.2486,0.2829,0.292,0.292,0.0,0.0,0.0,0.0,0.0,0.292,0.292,0.292,0.292,0.292,0.292,0.292,0.0,0.0,0.0,0.0,0.0,0.2992,0.3413,0.0,0.4886,0.0,0.0,0.8192,0.8361,0.8913,1.0458,1.0708,1.085,1.1051,1.1145,1.1194,1.1194,1.1194,1.1194,1.1194,1.1194,1.1194,1.1194,1.1194,1.1364,1.1718,1.1723,1.1742,1.177,1.177,1.1789,1.1817,1.1817,1.1603,1.1243,1.1243,1.101,1.0615,1.0639,1.0651,1.0433,0.8017,0.7083,0.6805,0.4477,0.3587,0.3587,0.0,0.0,0.0,0.0,0.0,0.0,0.0,0.0,0.0,0.0,0.0,0.0,0.0,0.0,0.0,0.0,0.0,0.0,0.0,0.0,0.0,0.0,-1.4825,-1.3613,-1.2732,-1.156,-1.0498,-0.9579,-0.9579,-0.9579,-0.9579,-0.9579,-0.9579,-0.9579,-0.863,-0.7786,-0.6939,-0.5582,-0.4331,-0.313,-0.2623,0.0,0.0,0.0,0.0,0.0,0.0,0.0,0.0,0.1897,0.2379,0.292,0.292,0.0,0.0,0.0,0.0,0.0,0.292,0.292,0.292,0.292,0.292,0.292,0.292,0.0,0.0,0.0,0.0,0.0,0.0,0.3347,0.4014,0.0,0.0,0.6697,0.0,0.0,0.8471,0.9624,1.0167,1.0462,1.0511,1.0949,1.1194,1.1194,1.1194,1.1194,1.1194,1.1194,1.1194,1.1194,1.1194,1.1227,1.1288,1.1288,1.1383,1.1562,1.1562,1.1652,1.1817,1.1817,1.1525,1.1037,1.1037,1.0741,1.0306,1.0412,1.0473,1.0216,0.7984,0.7083,0.6805,0.4477,0.3587,0.3587,0.0,0.0,0.0,0.0,0.0,0.0,0.0,0.0,0.0,0.0,0.0,0.0,0.0,0.0,0.0,0.0,0.0,0.0,0.0,0.0,0.0,-1.6454,-1.5201,-1.3944,-1.2727,-1.1707,-1.069,-0.9579,-0.9579,-0.9579,-0.9579,-0.9579,-0.9579,-0.9579,-0.8779,-0.7932,-0.7089,-0.5782,-0.4431,-0.313,0.0,0.0,0.0,0.0,0.0,0.0,0.0,0.0,0.0,0.0,0.2019,0.2379,0.2784,0.0,0.0,0.0,0.0,0.0,0.292,0.292,0.292,0.292,0.292,0.292,0.0,0.0,0.0,0.0,0.0,0.0,0.0,0.0,0.3512,0.3957,0.0,0.5275,0.647,0.6918,0.7869,0.9821,1.0117,1.0216,1.0413,1.0752,1.0998,1.0998,1.1096,1.1194,1.1194,1.1194,1.1194,1.1194,1.1194,1.1194,1.1194,1.1194,1.1246,1.1345,1.1345,1.1392,1.1482,1.1482,1.124,1.0839,1.0839,1.0587,1.022,1.0253,0.9965,0.9277,0.7573,0.6609,0.5902,0.4241,0.3567,0.3538,0.0,0.0,0.0,0.0,0.0,0.0,0.0,0.0,0.0,0.0,0.0,0.0,0.0,0.0,0.0,0.0,0.0,0.0,0.0,0.0,-1.6972,-1.6683,-1.5764,-1.4609,-1.321,-1.1901,-1.0788,-0.9965,-0.9723,-0.9579,-0.9579,-0.9579,-0.9579,-0.9579,-0.8981,-0.8233,-0.7385,-0.6029,-0.473,-0.343,0.0,0.0,0.0,0.0,0.0,0.0,0.0,0.0,0.0,0.0,0.0,0.0,0.0,0.0,0.0,0.292,0.292,0.292,0.292,0.292,0.292,0.292,0.0,0.0,0.0,0.0,0.0,0.0,0.0,0.0,0.0,0.3016,0.0,0.3211,0.318,0.4031,0.6368,0.652,0.7369,0.9916,1.0068,1.0068,1.0314,1.0556,1.0708,1.0801,1.0998,1.1145,1.1194,1.1194,1.1194,1.1194,1.1194,1.1194,1.1194,1.1194,1.1194,1.1194,1.1194,1.1194,1.1194,1.1194,1.0992,1.0641,1.0641,1.042,1.0038,1.0131,0.9624,0.8786,0.7355,0.5993,0.4727,0.3859,0.3516,0.3477,0.0,0.0,0.0,0.0,0.0,0.0,0.0,0.0,0.0,0.0,0.0,0.0,0.0,0.0,0.0,0.0,0.0,0.0,0.0,0.0,-1.72,-1.6979,-1.6878,-1.6109,-1.4609,-1.2334,-1.117,-1.1077,-1.0113,-0.9579,-0.9579,-0.9579,-0.9579,-0.9579,-0.9529,-0.908,-0.823,-0.6874,-0.5527,-0.418,-0.2924,0.0,0.0,0.0,0.0,0.0,0.0,0.0,0.0,0.0,0.0,0.0,0.0,0.0,0.292,0.292,0.292,0.292,0.292,0.292,0.292,0.292,0.292,0.0,0.292,0.292,0.0,0.292,0.0,0.0,0.0,0.3016,0.3137,0.3211,0.318,0.3981,0.6124,0.6423,0.7223,0.9377,0.9871,1.0019,1.0019,1.0265,1.0511,1.0801,1.0806,1.0953,1.1194,1.1194,1.1194,1.1194,1.1194,1.1194,1.1194,1.1194,1.1194,1.1194,1.1194,1.1194,1.1194,1.1194,1.0909,1.043,1.043,1.0147,0.9681,0.9839,0.9853,0.9611,0.758,0.5475,0.3525,0.3422,0.3422,0.3418,0.0,0.0,0.0,0.0,0.0,0.0,0.0,0.0,0.0,0.0,0.0,0.0,0.0,0.0,0.0,0.0,0.0,0.0,0.0,0.0,-1.7286,-1.72,-1.7073,-1.6737,-1.6157,-1.3692,-1.1999,-1.1219,-1.0113,-0.9579,-0.9579,-0.9579,-0.9579,-0.9579,-0.9579,-0.913,-0.8382,-0.7879,-0.6578,-0.4828,-0.4327,-0.3324,0.0,0.0,0.0,0.0,0.0,0.0,0.0,0.0,-0.0045,0.0583,0.1525,0.1974,0.2289,0.2784,0.292,0.292,0.292,0.292,0.292,0.292,0.292,0.0,0.0,0.292,0.292,0.292,0.292,0.0,0.0,0.0,0.3137,0.3211,0.318,0.3732,0.5181,0.5977,0.6971,0.8425,0.9274,0.9772,0.9772,0.9969,1.0265,1.0511,1.0703,1.09,1.1194,1.1194,1.1194,1.1194,1.1194,1.1194,1.1194,1.1194,1.1194,1.1194,1.1194,1.1194,1.1194,1.1194,1.0998,1.0659,1.0462,1.0167,0.9826,0.9747,0.9318,0.8524,0.6419,0.4706,0.3361,0.3398,0.3388,0.3356,0.0,0.0,0.0,0.0,0.0,0.0,0.0,0.0,0.0,0.0,0.0,0.0,0.0,0.0,0.0,0.0,0.0,0.0,0.0,-1.7274,-1.7279,-1.7279,-1.7153,-1.6925,-1.6643,-1.4567,-1.292,-1.1804,-1.0306,-0.9579,-0.9579,-0.9579,-0.9579,-0.9579,-0.9579,-0.9278,-0.8779,-0.8531,-0.7478,-0.5924,-0.5429,-0.421,0.0,0.0,0.0,0.0,0.0,0.0,0.0,0.0,-0.0583,-0.0179,0.1076,0.1615,0.193,0.2694,0.292,0.292,0.292,0.292,0.292,0.292,0.0,0.0,0.292,0.292,0.292,0.292,0.2933,0.2971,0.3052,0.0,0.0,0.3138,0.3468,0.3982,0.4684,0.6029,0.717,0.7922,0.8924,0.9579,0.9579,0.9776,0.9969,1.0265,1.0462,1.0654,1.0949,1.1047,1.1047,1.1047,1.1145,1.1194,1.1194,1.1194,1.1194,1.1194,1.1194,1.1194,1.1194,1.1194,1.1047,1.0801,1.0511,1.0265,0.9969,0.9727,0.8772,0.7332,0.5906,0.4513,0.3297,0.3339,0.3328,0.3293,0.0,0.0,0.0,0.0,0.0,0.0,0.0,0.0,0.0,0.0,0.0,0.0,0.0,0.0,0.0,0.0,0.0,0.0,0.0,-1.715,-1.7279,-1.7279,-1.7279,-1.6817,-1.5832,-1.48,-1.3884,-1.3071,-1.0743,-0.9628,-0.9579,-0.9579,-0.9579,-0.9579,-0.9579,-0.9579,-0.9529,-0.873,-0.8124,-0.7465,-0.5874,-0.4573,-0.3518,0.0,0.0,0.0,0.0,0.0,0.0,0.0,-0.0942,-0.0269,0.0448,0.1211,0.193,0.2694,0.2875,0.292,0.292,0.292,0.292,0.292,0.0,0.0,0.292,0.292,0.292,0.292,0.2964,0.3004,0.3004,0.3056,0.0,0.3089,0.4081,0.4782,0.4834,0.6628,0.8021,0.8021,0.8924,0.9579,0.9579,0.9579,0.9727,0.9969,1.0019,1.0117,1.0413,1.0659,1.0801,1.0801,1.1047,1.1194,1.1194,1.1194,1.1194,1.1194,1.1194,1.1194,1.1194,1.1194,1.1047,1.0801,1.0511,1.0265,0.9969,0.9723,0.8322,0.6423,0.6373,0.5079,0.318,0.318,0.318,0.318,0.0,0.0,0.0,0.0,0.0,0.0,0.0,0.0,0.0,0.0,0.0,0.0,0.0,0.0,0.0,0.0,0.0,0.0,0.0,-1.715,-1.7279,-1.7279,-1.7279,-1.7145,-1.6864,-1.4787,-1.2915,-1.1184,-1.0507,-0.9969,-0.9579,-0.9579,-0.9579,-0.9579,-0.9579,-0.9579,-0.9579,-0.9327,-0.8829,-0.8117,-0.7517,-0.6228,-0.458,0.0,0.0,0.0,0.0,0.0,0.0,0.0,0.0,0.0,-0.0269,0.0448,0.1166,0.193,0.2513,0.292,0.292,0.292,0.0,0.292,0.0,0.0,0.0,0.292,0.0,0.0,0.2932,0.2957,0.2997,0.3034,0.326,0.3973,0.4436,0.4984,0.5669,0.7069,0.8021,0.8021,0.8924,0.9579,0.9579,0.9579,0.9727,0.9969,1.0019,1.0117,1.0413,1.0462,1.0511,1.0511,1.0609,1.0659,1.0659,1.0659,1.0708,1.09,1.09,1.1002,1.1194,1.1194,1.1047,1.0801,1.0511,1.0265,0.992,0.8871,0.767,0.6323,0.5579,0.4433,0.318,0.318,0.318,0.318,0.0,0.0,0.0,0.0,0.0,0.0,0.0,0.0,0.0,0.0,-1.5389,0.0,0.0,0.0,0.0,0.0,0.0,0.0,0.0,0.0,-1.7201,-1.7279,-1.7279,-1.7044,-1.6426,-1.4603,-1.2678,-1.0703,-1.0314,-0.992,-0.9579,-0.9579,-0.9579,-0.9579,-0.9579,-0.9579,-0.9579,-0.9579,-0.9288,-0.8769,-0.8378,-0.7248,-0.5755,0.0,0.0,0.0,0.0,0.0,0.0,0.0,0.0,0.0,-0.0628,-0.009,0.0403,0.1166,0.1885,0.2469,0.2469,0.2694,0.0,0.292,0.292,0.292,0.292,0.0,0.0,0.0,0.2936,0.2957,0.2968,0.333,0.3788,0.4363,0.5201,0.5893,0.6037,0.7453,0.8288,0.7848,0.8728,0.9417,0.9417,0.9417,0.9465,0.961,0.9658,0.9707,0.9895,0.9992,1.004,1.004,1.0136,1.0184,1.0184,1.0184,1.028,1.0425,1.0425,1.0557,1.078,1.096,1.0949,1.0752,0.9961,0.9464,0.9118,0.7872,0.6725,0.5679,0.5033,0.4133,0.318,0.318,0.318,0.318,0.0,0.0,0.0,0.0,0.0,0.0,0.0,0.0,0.0,0.0,-1.5389,-1.5389,0.0,0.0,0.0,0.0,0.0,0.0,0.0,0.0,-1.7027,-1.7274,-1.7311,-1.6615,-1.5146,-1.4334,-1.3082,-1.1292,-1.0265,-0.9677,-0.9579,-0.9579,-0.9579,-0.9579,-0.9579,-0.9579,-0.9575,-0.9612,-0.9506,-0.9352,-0.8549,-0.7785,-0.6934,-0.5423,0.0,0.0,0.0,0.0,0.0,0.0,0.0,0.0,-0.0673,-0.0448,-0.0269,0.0493,0.1211,0.1794,0.1885,0.2379,0.292,0.292,0.292,0.0,0.292,0.292,0.292,0.292,0.0,0.298,0.3018,0.3834,0.451,0.461,0.6253,0.7182,0.6288,0.7854,0.8718,0.7771,0.8528,0.9096,0.9096,0.9096,0.9096,0.9096,0.9096,0.9096,0.9096,0.9329,0.9469,0.9469,0.9698,0.9837,0.9837,0.9837,0.9842,0.9884,0.9884,0.9878,0.9949,1.0484,1.0685,1.0502,0.8909,0.8067,0.7773,0.6672,0.5679,0.4784,0.4684,0.4083,0.318,0.318,0.318,0.318,0.0,0.0,0.0,0.0,0.0,0.0,0.0,0.0,0.0,0.0,0.0,0.0,0.0,0.0,0.0,0.0,0.0,0.0,0.0,0.0,-1.6932,-1.6998,-1.7194,-1.6615,-1.5146,-1.4513,-1.3414,-1.1829,-1.1198,-1.0413,-0.9579,-0.9579,-0.9579,-0.9579,-0.9579,-0.9579,-0.9571,-0.9474,-0.9437,-0.938,-0.8862,-0.8246,-0.7482,-0.6054,-0.502,0.0,0.0,0.0,0.0,0.0,0.0,0.0,-0.1211,-0.0807,-0.0269,0.0493,0.1211,0.193,0.2513,0.2784,0.0,0.292,0.292,0.292,0.292,0.292,0.292,0.292,0.2929,0.3157,0.3857,0.4195,0.4842,0.6296,0.7034,0.7587,0.8093,0.8721,0.9003,0.8765,0.8956,0.9096,0.9096,0.9096,0.9096,0.9096,0.9096,0.9096,0.9096,0.9143,0.9189,0.9189,0.9236,0.9283,0.9283,0.9283,0.9376,0.9609,0.9609,0.9342,0.8855,0.9797,0.9769,0.8863,0.7419,0.6822,0.6672,0.5579,0.4983,0.4734,0.3883,0.338,0.318,0.318,0.318,0.318,0.0,0.0,0.0,0.0,0.0,0.0,0.0,0.0,0.0,0.0,0.0,0.0,0.0,0.0,0.0,0.0,0.0,0.0,0.0,0.0,0.0,-1.7069,-1.7245,-1.6615,-1.5146,-1.4806,-1.3703,-1.1639,-1.1345,0.0,0.0,0.0,0.0,-0.9579,-0.9579,-0.9579,-0.9616,-0.9482,-0.9355,-0.9206,-0.893,-0.8546,-0.8061,-0.6982,-0.5977,-0.4956,-0.3535,0.0,0.0,0.0,0.0,0.0,0.0,0.0,-0.0762,-0.0045,0.0718,0.1436,0.2154,0.0,0.0,0.292,0.0,0.292,0.292,0.292,0.292,0.292,0.3275,0.3587,0.3631,0.4743,0.5808,0.634,0.7293,0.8158,0.8654,0.8783,0.8844,0.8844,0.8844,0.8844,0.8844,0.8844,0.8659,0.8197,0.8568,0.8659,0.8155,0.8613,0.8844,0.8844,0.8382,0.8151,0.8151,0.8151,0.7965,0.7689,0.8147,0.8002,0.7336,0.8124,0.808,0.7328,0.6153,0.5629,0.5529,0.4483,0.4033,0.3982,0.343,0.318,0.318,0.318,0.318,0.318,0.0,0.0,0.0,0.0,0.0,0.0,0.0,0.0,0.0,0.0,0.0,0.0,0.0,0.0,0.0,0.0,0.0,0.0,0.0,0.0,0.0,0.0,-1.7156,-1.652,-1.5337,-1.5051,-1.38,-1.1536,0.0,0.0,0.0,0.0,0.0,-0.9579,0.0,-0.9612,-0.9567,-0.9388,-0.921,-0.9035,-0.8852,-0.869,-0.852,-0.7801,-0.6864,-0.5838,-0.4425,-0.3314,-0.2377,-0.1659,0.0,0.0,0.0,0.0,-0.1256,-0.0583,0.0134,0.0848,0.1562,0.0,0.2886,0.2886,0.2886,0.0,0.2886,0.2896,0.2903,0.2903,0.3489,0.3853,0.3275,0.5053,0.6473,0.603,0.7275,0.8388,0.8568,0.8612,0.8612,0.8612,0.8612,0.8612,0.8612,0.8612,0.8164,0.7183,0.7852,0.7896,0.6918,0.7632,0.812,0.812,0.7275,0.6874,0.6874,0.6874,0.6564,0.5941,0.6564,0.6442,0.5732,0.5944,0.6056,0.594,0.4952,0.4499,0.4462,0.3565,0.3171,0.318,0.318,0.318,0.318,0.318,0.318,0.318,0.0,0.0,0.0,0.0,0.0,0.0,0.0,0.0,0.0,0.0,-1.5389,0.0,0.0,0.0,0.0,0.0,0.0,0.0,0.0,0.0,0.0,0.0,-1.6567,-1.6237,-1.6048,-1.4765,-1.3661,-1.2834,0.0,0.0,0.0,0.0,0.0,-0.9579,0.0,0.0,-0.9429,-0.9206,-0.9027,-0.884,-0.867,-0.8633,-0.852,-0.7801,-0.7397,-0.6956,-0.4692,-0.3805,-0.3448,-0.1928,-0.1391,0.0,0.0,0.0,-0.1256,-0.0583,0.0089,0.0785,0.1527,0.0,0.2717,0.0,0.2717,0.2717,0.0,0.0,0.2796,0.0,0.2969,0.3275,0.3987,0.4431,0.5144,0.6653,0.7139,0.7584,0.848,0.8612,0.8612,0.8612,0.8612,0.8612,0.8612,0.8612,0.8164,0.7183,0.7228,0.6874,0.5941,0.603,0.6074,0.6074,0.5941,0.5897,0.5897,0.5897,0.6251,0.6918,0.6207,0.5416,0.4497,0.3823,0.3991,0.4771,0.3784,0.3344,0.3299,0.3151,0.3133,0.318,0.318,0.318,0.318,0.318,0.318,0.318,0.0,0.0,0.0,0.0,0.0,0.0,0.0,0.0,0.0,0.0,0.0,-1.5389,0.0,0.0,0.0,0.0,0.0,0.0,0.0,0.0,0.0,0.0,-1.6832,-1.6426,-1.5622,-1.4908,-1.3752,0.0,0.0,0.0,0.0,-0.9727,-0.9579,0.0,0.0,0.0,0.0,-0.906,-0.8893,-0.8804,-0.8633,-0.8612,-0.8564,0.0,0.0,-0.7221,-0.522,-0.4247,-0.3624,-0.1972,-0.1391,-0.1391,-0.1391,0.0,0.0,0.0,0.013,0.0895,0.1962,0.2457,0.2692,0.0,0.2692,0.2692,0.2692,0.2713,0.2732,0.2732,0.2781,0.2965,0.3446,0.4389,0.5364,0.6163,0.6741,0.7275,0.772,0.8256,0.8212,0.7098,0.7944,0.8164,0.7098,0.7452,0.7143,0.563,0.603,0.5897,0.4964,0.5408,0.5719,0.5719,0.5186,0.5188,0.5675,0.5719,0.5897,0.6296,0.4832,0.39,0.3499,0.3125,0.3217,0.3698,0.3269,0.3112,0.3089,0.3089,0.3105,0.3128,0.3128,0.3128,0.3128,0.3128,0.3128,0.3128,0.0,0.0,0.0,0.0,0.0,0.0,0.0,0.0,0.0,0.0,0.0,0.0,0.0,0.0,0.0,0.0,0.0,0.0,0.0,0.0,0.0,0.0,0.0,-1.652,-1.5384,-1.5003,0.0,0.0,0.0,0.0,-0.9579,-0.9579,-0.9559,0.0,-0.9465,-0.9351,0.0,0.0,0.0,0.0,0.0,0.0,0.0,0.0,0.0,0.0,0.0,0.0,0.0,0.0,-0.1653,-0.1379,-0.1379,-0.1403,0.0,0.0,0.0,0.0,0.0,0.0,0.2646,0.2646,0.2646,0.2646,0.0,0.0,0.2669,0.0,0.2718,0.2774,0.2819,0.4003,0.5053,0.5322,0.5941,0.6473,0.6697,0.7408,0.7319,0.5852,0.6962,0.7275,0.5852,0.634,0.6074,0.4431,0.4966,0.5053,0.4342,0.4966,0.5351,0.5323,0.4835,0.4691,0.493,0.5176,0.5203,0.4964,0.381,0.3142,0.292,0.292,0.2943,0.2985,0.3032,0.3059,0.3073,0.3073,0.3083,0.3097,0.3097,0.3097,0.3097,0.3097,0.3097,0.3097,0.0,0.0,0.0,0.0,0.0,0.0,0.0,0.0,0.0,0.0,0.0,0.0,0.0,0.0,-1.5389,-1.5389,-1.5389,-1.5396,-1.5411,-1.603,-1.6419,0.0,0.0,0.0,-1.6143,-1.4717,0.0,0.0,0.0,0.0,-0.9575,-0.9449,-0.9416,-0.9416,-0.9408,-0.9165,-0.8844,0.0,0.0,0.0,0.0,0.0,0.0,0.0,0.0,0.0,0.0,0.0,0.0,0.0,0.0,0.0,0.0,-0.1373,-0.1308,0.0,0.0,0.0,0.0,0.2086,0.0,0.252,0.252,0.252,0.0,0.0,0.2606,0.2606,0.2654,0.2698,0.2702,0.2883,0.332,0.421,0.4431,0.4743,0.563,0.5808,0.5808,0.5719,0.5808,0.5808,0.5719,0.5764,0.5364,0.4389,0.4342,0.4342,0.43,0.4342,0.4347,0.4301,0.4985,0.4552,0.287,0.3785,0.3866,0.3053,0.3853,0.3765,0.292,0.292,0.2921,0.2924,0.2926,0.2958,0.301,0.301,0.3043,0.3097,0.3097,0.3097,0.3097,0.3097,0.3097,0.3097,0.0,0.0,0.0,0.0,0.0,0.0,0.0,0.0,0.0,0.0,0.0,0.0,0.0,-1.5389,-1.5389,-1.5389,-1.5621,-1.5695,-1.5695,-1.633,-1.6727,-1.6727,0.0,-1.6473,-1.5527,-1.4615,0.0,0.0,0.0,-1.0249,-0.9449,-0.9433,-0.9282,-0.9011,-0.9011,-0.8942,-0.8812,-0.8706,0.0,0.0,0.0,0.0,0.0,0.0,0.0,0.0,0.0,0.0,0.0,0.0,0.0,0.0,0.0,0.0,0.0,0.0,0.0,0.0,0.0,0.0,0.0,0.2511,0.2511,0.2511,0.2511,0.2527,0.2544,0.2544,0.2591,0.2634,0.2634,0.2702,0.31,0.4038,0.4167,0.4295,0.4635,0.519,0.5104,0.3912,0.4848,0.5318,0.459,0.5145,0.5315,0.4889,0.4886,0.4886,0.4886,0.4886,0.4617,0.4033,0.4284,0.4183,0.361,0.3974,0.3994,0.3732,0.3471,0.3189,0.292,0.292,0.292,0.292,0.292,0.2931,0.295,0.295,0.2962,0.2983,0.2983,0.2983,0.2983,0.2983,0.2983,0.2983,0.0,0.0,0.0,0.0,0.0,0.0,0.0,0.0,0.0,0.0,0.0,0.0,0.0,0.0,-1.5433,-1.5542,-1.5884,-1.6067,-1.6067,-1.6609,-1.6903,-1.6903,-1.7157,-1.6615,-1.5146,-1.4665,-1.3371,0.0,0.0,0.0,0.0,-0.9277,-0.9047,-0.882,-0.8763,-0.8735,0.0,0.0,0.0,-0.8612,0.0,0.0,-0.8612,0.0,0.0,0.0,0.0,0.0,0.0,0.0,0.0,0.0,0.0,0.0,0.0,0.0,0.0,0.0,0.1098,0.0,0.0,0.0,0.2511,0.2511,0.2511,0.2511,0.2511,0.2511,0.2542,0.2571,0.2571,0.2604,0.2849,0.3519,0.361,0.361,0.361,0.4151,0.4193,0.3235,0.4193,0.4814,0.4397,0.4939,0.5311,0.5228,0.5186,0.5228,0.5269,0.5269,0.5004,0.4389,0.3745,0.362,0.3979,0.3733,0.361,0.369,0.3051,0.2785,0.2888,0.2888,0.2899,0.292,0.292,0.292,0.292,0.292,0.292,0.292,0.292,0.292,0.292,0.292,0.292,0.292,0.0,0.0,0.0,0.0,0.0,0.0,0.0,0.0,0.0,0.0,0.0,0.0,0.0,0.0,0.0,-1.5899,-1.6206,-1.6426,-1.6426,-1.6734,-1.6917,-1.6917,-1.7118,-1.6567,-1.5146,-1.4778,-1.3543,0.0,0.0,0.0,0.0,0.0,-0.882,-0.8804,-0.8641,-0.8612,-0.8612,0.0,-0.8612,-0.8612,0.0,-0.8612,-0.8612,0.0,0.0,0.0,-0.8284,-0.7403,0.0,-0.6223,0.0,0.0,0.0,0.0,0.0,0.0,0.0,0.0,0.0,0.0,0.0,0.0,0.247,0.2511,0.2511,0.2511,0.2511,0.2511,0.2511,0.2511,0.2511,0.2511,0.2549,0.2668,0.2687,0.2687,0.2687,0.2687,0.2977,0.3766,0.3849,0.4182,0.5092,0.5175,0.5175,0.5175,0.5175,0.5261,0.5388,0.5385,0.5331,0.5253,0.3446,0.2891,0.3762,0.3002,0.2629,0.2689,0.2689,0.2722,0.2781,0.2781,0.2813,0.2915,0.2915,0.2918,0.292,0.292,0.292,0.292,0.292,0.292,0.292,0.292,0.292,0.292,0.0,0.0,0.0,0.0,0.0,0.0,0.0,0.0,0.0,0.0,0.0,0.0,0.0,0.0,-1.614,-1.6235,-1.658,-1.6763,-1.6763,-1.7018,-1.7201,-1.7201,-1.676,-1.6048,-1.5099,-1.3932,-1.2709,0.0,0.0,0.0,0.0,-0.9001,0.0,0.0,-0.8633,-0.8612,-0.8612,-0.8612,0.0,-0.8612,-0.8612,-0.8612,0.0,0.0,0.0,0.0,0.0,-0.7644,-0.6969,0.0,-0.5704,-0.4771,0.0,0.0,0.0,0.0,0.0,0.0,-0.0079,0.0,0.0,0.0,0.0,0.0,0.2511,0.2511,0.2511,0.2511,0.2511,0.2511,0.2511,0.2511,0.2522,0.2555,0.2561,0.2561,0.2561,0.2561,0.264,0.2878,0.2878,0.3235,0.4104,0.4183,0.4421,0.502,0.506,0.506,0.5099,0.4542,0.4251,0.4221,0.3105,0.2596,0.2849,0.2653,0.2567,0.2627,0.2627,0.2658,0.2718,0.2718,0.2751,0.2808,0.2808,0.2834,0.292,0.292,0.292,0.292,0.292,0.292,0.292,0.292,0.292,0.292,0.0,0.0,0.0,0.0,0.0,0.0,0.0,0.0,0.0,0.0,0.0,0.0,0.0,0.0,0.0,-1.6617,-1.6865,-1.6996,-1.691,-1.7026,-1.7069,-1.693,-1.6236,-1.5497,-1.4748,-1.3464,-1.2376,-1.1463,-1.0589,-0.9931,-0.9485,-0.9146,-0.8884,0.0,0.0,0.0,0.0,0.0,0.0,0.0,-0.8494,0.0,0.0,-0.8215,-0.813,0.0,0.0,0.0,-0.736,-0.6885,-0.5918,0.0,0.0,0.0,0.0,0.0,0.0,0.0,0.0,0.0,0.0,0.0,0.0,0.0,0.2511,0.2511,0.2511,0.2511,0.2511,0.2511,0.2511,0.2511,0.2511,0.2511,0.2511,0.2511,0.2511,0.2511,0.2627,0.3015,0.3056,0.3366,0.4222,0.43,0.4494,0.4963,0.5004,0.4846,0.4533,0.3715,0.3249,0.3249,0.2782,0.2511,0.2511,0.2511,0.2527,0.2564,0.2564,0.2595,0.2654,0.2654,0.2687,0.2745,0.2745,0.2766,0.28,0.2826,0.2896,0.292,0.292,0.292,0.292,0.292,0.292,0.292,0.0,0.0,0.0,0.0,0.0,0.0,0.0,0.0,0.0,0.0,0.0,0.0,0.0,0.0,0.0,0.0,-1.7055,-1.7099,-1.6866,-1.6844,-1.6674,-1.6293,-1.5613,-1.4899,-1.4128,-1.3147,-1.2232,-1.1359,-1.0799,-1.0211,-0.9544,-0.9336,-0.9003,-0.8612,0.0,0.0,0.0,0.0,0.0,-0.8231,-0.8251,-0.8158,0.0,0.0,-0.789,-0.7796,-0.7775,-0.7661,-0.7484,-0.7446,-0.6118,0.0,0.0,0.0,0.0,0.0,-0.1296,0.0,0.0,0.0,0.0,0.0,0.196,0.0,0.2462,0.25,0.2499,0.2492,0.2496,0.25,0.25,0.2506,0.2511,0.2511,0.2511,0.2511,0.2511,0.2511,0.2784,0.356,0.3675,0.3949,0.4652,0.473,0.473,0.473,0.473,0.4419,0.3677,0.2938,0.2511,0.2511,0.2511,0.2511,0.2511,0.2511,0.2511,0.2511,0.2511,0.254,0.2591,0.2591,0.2624,0.2683,0.2683,0.2685,0.2696,0.2751,0.2809,0.291,0.2915,0.292,0.292,0.292,0.292,0.292,0.0,0.0,0.0,0.0,0.0,0.0,0.0,0.0,0.0,0.0,0.0,0.0,0.0,0.0,0.0,0.0,-1.6565,-1.6528,-1.6507,-1.6507,-1.6211,-1.562,-1.4854,-1.4128,-1.3399,-1.2433,-1.1809,-1.1629,-1.0602,-1.0057,-0.9876,-0.9104,-0.8696,-0.8604,0.0,0.0,0.0,0.0,0.0,-0.7914,-0.8012,0.0,-0.8,-0.7862,-0.7829,-0.778,-0.7629,-0.7551,-0.7446,-0.7134,-0.616,-0.4993,0.0,0.0,0.0,-0.1492,0.0,0.0,0.0,0.0,0.0,0.0,0.1294,0.0,0.2332,0.2437,0.2386,0.2342,0.2367,0.2437,0.2437,0.2477,0.2511,0.2511,0.2511,0.2511,0.2511,0.2511,0.2549,0.2743,0.2743,0.2823,0.2978,0.2978,0.2978,0.2978,0.2978,0.2901,0.2743,0.2588,0.2511,0.2511,0.2511,0.2511,0.2511,0.2511,0.2511,0.2511,0.2511,0.2516,0.2527,0.2527,0.2561,0.2619,0.2619,0.2647,0.2694,0.2704,0.2747,0.2805,0.29,0.292,0.292,0.292,0.292,0.292,0.0,0.0,0.0,0.0,0.0,0.0,0.0,0.0,0.0,0.0,0.0,0.0,0.0,0.0,0.0,0.0,0.0,0.0,0.0,0.0,-1.5937,-1.5433,-1.4379,-1.363,-1.3323,-1.1877,-1.1159,-1.1159,-1.0396,-0.9864,-0.965,-0.9174,-0.886,-0.872,0.0,0.0,0.0,0.0,-0.7877,-0.7808,-0.7894,0.0,-0.774,-0.7694,-0.7661,-0.7649,-0.7516,-0.7446,-0.7292,-0.6868,-0.6086,0.0,-0.4572,-0.3522,-0.2433,0.0,-0.161,-0.1296,0.0,0.0,0.0,0.0077,0.0,0.0,0.0,0.2154,0.2332,0.2304,0.2322,0.234,0.234,0.2387,0.2465,0.2465,0.2491,0.2511,0.2511,0.2511,0.2511,0.2511,0.2511,0.2511,0.2511,0.2511,0.2511,0.2511,0.2511,0.2511,0.2511,0.2511,0.2511,0.2511,0.2511,0.2511,0.2511,0.2511,0.2511,0.2511,0.2511,0.2511,0.2511,0.2511,0.2527,0.2556,0.2556,0.2574,0.2604,0.2634,0.2665,0.2699,0.2759,0.2803,0.2828,0.2828,0.2893,0.2829,-1.3455,0.0,0.0,0.0,0.0,0.0,0.0,0.0,0.0,0.0,0.0,0.0,0.0,0.0,0.0,0.0,0.0,0.0,0.0,0.0,0.0,-1.5222,-1.4153,-1.3434,-1.3094,-1.1585,-1.0722,-1.0463,-1.0077,-0.9671,-0.9244,-0.9161,-0.8966,0.0,0.0,0.0,0.0,0.0,0.0,-0.7747,0.0,-0.7657,-0.7484,-0.7484,-0.7484,-0.7484,-0.7446,-0.733,-0.7103,-0.6718,-0.6012,-0.519,-0.4885,-0.3717,0.0,0.0,0.0,0.0,0.0,0.0,0.0,0.0,0.0,0.1344,0.0,0.0,0.0,0.2267,0.2273,0.2281,0.2281,0.2328,0.2366,0.2366,0.2444,0.2477,0.2477,0.2477,0.2485,0.2507,0.2511,0.2511,0.2511,0.2511,0.2511,0.2511,0.2511,0.2511,0.2511,0.2511,0.2511,0.2511,0.2511,0.2511,0.2511,0.2511,0.2511,0.2511,0.2511,0.2511,0.2511,0.2511,0.2511,0.2511,0.2511,0.2511,0.2514,0.2564,0.2583,0.2591,0.2664,0.2722,0.2766,0.2766,0.2753,0.2573,-1.3492,-1.3492,0.0,0.0,0.0,0.0,0.0,0.0,0.0,0.0,0.0,0.0,0.0,0.0,0.0,0.0,0.0,0.0,-1.6107,0.0,0.0,0.0,-1.4356,-1.3548,-1.1929,-1.1671,-1.1068,-1.0081,-0.9607,-0.9256,-0.9036,-0.8615,-0.8307,0.0,-0.7926,0.0,0.0,0.0,-0.7516,0.0,-0.7516,-0.75,0.0,-0.7484,-0.7484,-0.7484,-0.7296,-0.7099,-0.6903,0.0,-0.5899,-0.4924,0.0,-0.3288,-0.2354,-0.1649,0.0,0.0,0.0,0.0,0.0,0.0,0.0256,0.0,0.1311,0.0,0.2205,0.2219,0.0,0.222,0.222,0.0,0.0,0.2308,0.2314,0.2319,0.2319,0.2319,0.2356,0.2497,0.2511,0.2511,0.2511,0.2511,0.2511,0.2511,0.2511,0.2511,0.2511,0.2511,0.2511,0.2511,0.2511,0.2511,0.2511,0.2511,0.2511,0.2511,0.2511,0.2511,0.2511,0.2511,0.2511,0.2511,0.2511,0.2511,0.2511,0.2518,0.252,0.2531,0.2647,0.2696,0.2703,0.2703,0.2326,0.1826,-1.3492,-1.3492,0.0,0.0,0.0,0.0,0.0,0.0,0.0,0.0,0.0,0.0,0.0,0.0,0.0,0.0,0.0,-1.588,0.0,0.0,0.0,0.0,0.0,0.0,-1.2297,-1.1192,-1.023,-0.9424,-0.8961,-0.8607,-0.8417,-0.8213,-0.8156,0.0,-0.7908,0.0,-0.7948,0.0,-0.7484,0.0,0.0,0.0,0.0,-0.7484,-0.7484,-0.7446,-0.7138,-0.698,-0.6865,0.0,-0.6138,0.0,0.0,0.0,0.0,-0.2235,0.0,0.0,0.0,0.0,0.0,0.0,0.0,0.0,0.0757,0.0,0.1774,0.2126,0.0,0.0,0.0,0.0,0.0,0.0,0.2276,0.2299,0.2299,0.2299,0.2328,0.2448,0.2458,0.2471,0.2507,0.2511,0.2511,0.2511,0.2511,0.2511,0.2511,0.2511,0.2511,0.2511,0.2511,0.2511,0.2511,0.2511,0.2511,0.2511,0.2511,0.2511,0.2511,0.2511,0.2511,0.2511,0.2511,0.2511,0.2511,0.2511,0.2511,0.2515,0.2567,0.2608,0.2598,0.2267,0.1954,0.1599,-1.3492,0.0,0.0,0.0,0.0,0.0,0.0,0.0,0.0,0.0,0.0,0.0,-1.4652,-1.4909,0.0,0.0,-1.5614,-1.5714,0.0,0.0,-1.4998,0.0,0.0,0.0,0.0,-1.0868,-0.9658,-0.8884,-0.8426,-0.8122,-0.7943,-0.7943,-0.8006,-0.8147,0.0,-0.7805,-0.791,0.0,-0.7484,-0.7484,-0.7484,-0.7484,-0.7484,-0.7484,-0.7484,-0.7369,-0.7019,-0.6865,-0.6753,-0.6412,-0.6141,0.0,-0.4927,-0.4105,-0.3283,0.0,0.0,0.0,-0.1191,0.0,0.0,0.0,0.0,0.0,0.0,0.0,0.0,0.0,0.2087,0.0,0.0,0.0,0.0,0.0,0.0,0.2286,0.2286,0.2286,0.2313,0.235,0.2359,0.2377,0.2458,0.2462,0.2469,0.2485,0.2485,0.2493,0.251,0.2511,0.2511,0.2511,0.2511,0.2511,0.2511,0.2511,0.2511,0.2511,0.2511,0.2511,0.2511,0.2511,0.2511,0.2511,0.2511,0.2511,0.2511,0.2511,0.2392,0.2235,0.2235,0.2181,0.2013,0.177,0.1464,0.0991,-1.3492,-1.3492,0.0,0.0,0.0,0.0,0.0,0.0,0.0,0.0,0.0,0.0,0.0,0.0,0.0,0.0,0.0,-1.6492,-1.6087,0.0,-1.5696,0.0,0.0,-1.3291,0.0,0.0,-0.9745,-0.8604,-0.8189,-0.7935,-0.7808,-0.7808,-0.7706,-0.7531,-0.7531,-0.7526,-0.7522,-0.7522,-0.7484,-0.7484,-0.7484,-0.7484,-0.7484,0.0,-0.7369,-0.718,-0.698,0.0,0.0,-0.6377,-0.5747,-0.4885,-0.4105,0.0,0.0,0.0,0.0,0.0,0.0,0.0,0.0,-0.1084,0.0,0.0,0.0,0.0,0.1311,0.0,0.0,0.0,0.0,0.0,0.0,0.0,0.0,0.0,0.0,0.2193,0.2239,0.2287,0.2301,0.2303,0.2304,0.2304,0.2327,0.2381,0.2385,0.2448,0.2507,0.2511,0.2511,0.2511,0.2511,0.2511,0.2511,0.2511,0.2511,0.2511,0.2511,0.2511,0.2511,0.2511,0.2511,0.2511,0.2511,0.2511,0.2511,0.2511,0.2156,0.1646,0.1646,0.1216,0.0747,0.1374,0.0825,-0.0237,0.0,0.0,0.0,0.0,0.0,0.0,0.0,-1.3492,0.0,0.0,0.0,0.0,0.0,-1.4486,-1.4657,0.0,0.0,-1.5185,-1.5033,-1.4572,0.0,0.0,0.0,-1.2595,0.0,0.0,0.0,0.0,-0.8083,-0.7792,-0.7616,-0.7616,-0.758,-0.7484,0.0,-0.7484,0.0,0.0,0.0,0.0,0.0,-0.7484,-0.7484,0.0,-0.7446,-0.7369,-0.7019,-0.6865,-0.6753,-0.6412,-0.6103,-0.5693,-0.4754,-0.3931,-0.3118,-0.2154,-0.1531,-0.1111,-0.1092,-0.1106,-0.1089,-0.1112,-0.0975,0.0,0.0,0.0,0.0,0.0,0.0,0.0,0.0,0.0,0.0,0.0,0.0,0.0,0.0,0.2188,0.2203,0.2244,0.2286,0.2299,0.2299,0.2299,0.2307,0.2326,0.2327,0.2335,0.2356,0.2391,0.245,0.245,0.2489,0.2511,0.2511,0.2511,0.2511,0.2511,0.2511,0.2511,0.2511,0.2511,0.2511,0.2511,0.2511,0.2511,0.2511,0.2511,0.2156,0.1607,0.1607,0.0941,0.0039,0.0275,0.0078,-0.0354,-1.3492,0.0,0.0,0.0,0.0,0.0,0.0,0.0,0.0,0.0,-1.3674,0.0,-1.4013,0.0,-1.4071,0.0,-1.4386,-1.4511,-1.4511,-1.4059,0.0,-1.4296,-1.3267,0.0,0.0,0.0,0.0,0.0,0.0,-0.7641,-0.7484,-0.7484,-0.7484,-0.7484,0.0,-0.7484,-0.7484,-0.7484,-0.7484,0.0,0.0,-0.7447,0.0,0.0,-0.7393,-0.7369,-0.7099,-0.6866,-0.6661,-0.6402,-0.6218,-0.5927,-0.471,-0.4017,-0.3407,-0.2169,-0.1455,-0.1084,-0.1108,-0.1091,-0.1109,-0.1109,-0.1109,-0.1008,-0.0672,0.0,0.0202,0.0,0.0,0.0,0.0,0.0,0.0,0.0,0.0,0.0,0.0,0.2188,0.2188,0.2188,0.2223,0.2271,0.2271,0.2271,0.2279,0.2265,0.2268,0.2276,0.2297,0.2332,0.236,0.2381,0.2458,0.2489,0.2511,0.2511,0.2499,0.2478,0.2478,0.2478,0.2478,0.2478,0.2491,0.2511,0.2511,0.2511,0.2511,0.2511,0.2156,0.1568,0.1333,0.0628,-0.0314,-0.0314,-0.0432,-0.0707,0.0,0.0,0.0,0.0,-1.3492,0.0,0.0,0.0,-1.3499,0.0,-1.3492,-1.3616,-1.3961,-1.3998,-1.4084,-1.443,-1.446,-1.446,-1.446,-1.446,0.0,0.0,-1.3417,-1.263,-1.1713,0.0,0.0,0.0,0.0,0.0,-0.7484,-0.7484,-0.7484,0.0,-0.7476,0.0,-0.7484,-0.7476,-0.7472,-0.7472,-0.746,-0.7358,-0.7175,-0.7175,-0.7205,-0.7195,-0.7157,-0.6779,-0.6307,-0.6307,-0.6065,-0.5548,-0.4025,-0.3519,-0.3177,-0.1619,-0.1119,-0.1112,-0.1084,-0.1109,-0.1109,-0.1109,-0.1109,-0.1109,-0.1109,-0.0672,-0.0302,0.0,0.0,0.0,0.0,0.0,0.0,0.0,0.0,0.0,0.0,0.0,0.2188,0.2188,0.2188,0.2188,0.2188,0.2188,0.2211,0.2201,0.2205,0.223,0.2287,0.2293,0.2319,0.2371,0.2379,0.2447,0.2506,0.251,0.248,0.2382,0.2382,0.2382,0.2382,0.2382,0.2452,0.2511,0.2511,0.2511,0.2511,0.2511,0.2156,0.1528,0.0863,0.0196,-0.0353,-0.0353,-0.0746,-0.1296,-1.3492,-1.3492,-1.3492,0.0,-1.3492,-1.3492,0.0,0.0,0.0,0.0,-1.3674,-1.363,-1.4041,-1.38,-1.3653,-1.374,-1.3748,0.0,0.0,0.0,0.0,-1.3623,-1.3056,-1.2422,-1.1706,-1.0308,-0.9296,-0.8703,0.0,0.0,-0.7484,0.0,0.0,0.0,0.0,0.0,-0.7476,-0.7346,-0.7293,-0.7281,-0.718,-0.7098,-0.7057,0.0,-0.7049,-0.7017,-0.6835,-0.659,-0.6367,-0.619,-0.5981,-0.56,-0.4577,-0.3881,-0.3231,-0.2154,-0.1494,-0.1085,-0.1111,-0.1109,-0.1109,-0.1109,-0.1109,-0.1109,-0.1109,-0.0672,-0.0403,-0.0807,-0.0134,0.037,-0.0034,0.0,0.0,0.0,0.0,0.0,0.0,0.0,0.0,0.2188,0.2188,0.2188,0.2188,0.2188,0.2195,0.221,0.2211,0.2218,0.2235,0.2243,0.2238,0.2253,0.2336,0.2389,0.2443,0.2488,0.248,0.2382,0.2382,0.2382,0.2382,0.2382,0.2452,0.2511,0.2511,0.2511,0.2511,0.2511,0.2156,0.1528,0.0863,-0.0079,-0.1061,-0.1061,-0.1139,-0.1296,-1.3492,0.0,0.0,-1.3492,0.0,0.0,-1.3492,-1.3492,0.0,-1.3811,-1.3637,0.0,-1.3811,-1.3637,-1.3492,-1.3492,-1.3492,0.0,-1.3492,0.0,0.0,-1.3492,-1.3156,-1.2673,-1.1966,-1.1025,0.0,-0.896,0.0,0.0,-0.748,0.0,0.0,0.0,0.0,-0.7159,-0.7282,-0.7147,-0.7106,-0.7098,-0.7033,-0.6943,0.0,-0.6869,-0.682,-0.6721,-0.6583,-0.6425,-0.6241,-0.5814,-0.5415,-0.4928,-0.3824,-0.3156,-0.2669,-0.1889,-0.1411,-0.1109,-0.1109,-0.1109,-0.1109,-0.1109,-0.1109,-0.1109,-0.1109,-0.0874,-0.0739,-0.1042,-0.0605,-0.0302,-0.0605,0.0235,0.0,0.0,0.0,0.0,0.0,0.0,0.0,0.0,0.2188,0.2188,0.2188,0.2188,0.2188,0.2188,0.2188,0.2188,0.2188,0.2187,0.2182,0.2209,0.2273,0.2331,0.2381,0.2454,0.2454,0.2382,0.2356,0.2346,0.2346,0.2346,0.2377,0.2471,0.2499,0.2511,0.2511,0.2511,0.2314,0.1882,0.0981,-0.0196,-0.1296,-0.1296,-0.1296,-0.1296,0.0,0.0,0.0,0.0,0.0,0.0,0.0,-1.3492,0.0,-1.3492,0.0,-1.3492,-1.3492,-1.3492,-1.3492,-1.3492,0.0,-1.3492,-1.3492,-1.3492,-1.3492,-1.3492,-1.3419,-1.3046,-1.2335,-1.1818,-1.0844,0.0,0.0,0.0,0.0,0.0,0.0,0.0,0.0,0.0,0.0,-0.6955,-0.6955,-0.6951,-0.6926,-0.6829,-0.6656,-0.6643,-0.655,-0.6387,-0.6383,-0.6287,-0.604,-0.5308,-0.4713,-0.4051,-0.2581,-0.2114,-0.198,-0.131,-0.1109,-0.1109,-0.1109,-0.1109,-0.1109,-0.1109,-0.1109,-0.1109,-0.1109,-0.1109,-0.1109,-0.1109,-0.1109,-0.1109,-0.1109,-0.0269,0.0,0.0,0.0,0.0,0.0,0.0,0.0,0.0,0.2087,0.0,0.2255,0.2221,0.2188,0.2188,0.2188,0.2188,0.2188,0.2188,0.2213,0.2197,0.2205,0.2257,0.2358,0.2374,0.2378,0.237,0.2322,0.2299,0.2299,0.2299,0.233,0.2422,0.2484,0.2511,0.2511,0.2511,0.247,0.2275,0.1059,-0.0118,-0.1178,-0.1257,-0.1296,-0.1296,0.0,0.0,0.0,0.0,0.0,-1.3492,-1.3492,-1.3492,-1.3492,-1.3492,-1.3492,-1.3492,-1.3492,-1.3492,-1.3492,-1.3492,-1.3492,0.0,0.0,0.0,0.0,-1.3492,-1.301,-1.2599,-1.2305,-1.1409,-1.0395,0.0,0.0,0.0,0.0,0.0,0.0,0.0,0.0,0.0,-0.6741,-0.6741,0.0,-0.6729,-0.6574,-0.6493,-0.6469,-0.6465,-0.6444,-0.6383,-0.628,-0.6106,-0.5833,-0.5089,-0.4603,-0.4051,-0.2581,-0.2114,-0.198,-0.131,-0.1109,-0.1109,-0.1109,-0.1109,-0.1109,-0.1109,-0.1109,-0.1109,-0.1109,-0.1109,-0.1109,-0.1109,-0.1109,-0.1109,-0.1109,-0.0571,0.0,0.0,0.0,0.0,0.0,0.0,0.0,0.0,0.0,0.1748,0.2552,0.2354,0.2188,0.2188,0.2188,0.2188,0.2188,0.2188,0.2193,0.2203,0.2183,0.222,0.224,0.2334,0.2359,0.2314,0.2304,0.2299,0.2299,0.2299,0.233,0.2422,0.2484,0.2511,0.2511,0.2511,0.2196,0.1686,0.0903,0.0157,-0.055,-0.11,-0.1296,-0.1296,0.0,0.0,0.0,0.0,0.0,0.0,0.0,-1.3492,-1.3492,-1.3492,-1.3492,-1.3492,-1.3492,-1.3492,-1.3492,-1.3492,-1.3492,-1.3492,-1.3492,-1.3492,-1.3492,-1.3492,-1.3119,-1.2826,-1.2636,-1.1632,-1.0556,-0.9458,0.0,0.0,0.0,0.0,0.0,0.0,0.0,-0.6546,0.0,0.0,-0.6554,-0.6546,-0.6457,-0.6387,-0.6387,-0.6387,-0.6387,-0.6383,-0.6317,-0.5885,-0.5219,-0.4384,-0.3951,-0.3485,-0.2047,-0.1577,-0.1511,-0.121,-0.1109,-0.1109,-0.1109,-0.1109,-0.1109,-0.1109,-0.1109,-0.1109,-0.1109,-0.1109,-0.1109,-0.1109,-0.1109,-0.1008,-0.0739,-0.047,-0.0134,0.0403,0.0706,0.0,0.0,0.0,0.0874,0.0,0.0,0.0,0.0,0.2016,0.215,0.2453,0.2287,0.2188,0.2188,0.2188,0.2188,0.2188,0.2217,0.2213,0.2209,0.2296,0.2339,0.2342,0.2312,0.2299,0.2299,0.2299,0.2314,0.2344,0.2471,0.2511,0.2511,0.2511,0.2156,0.1528,0.0863,0.0236,-0.0393,-0.1061,-0.1296,-0.1296,0.0,-1.3492,0.0,0.0,-1.3492,-1.3492,-1.3492,-1.3492,-1.3492,-1.3492,-1.3492,-1.3492,-1.3492,-1.3492,-1.3492,-1.3492,-1.3492,-1.3492,-1.3492,-1.3455,-1.3455,-1.3455,-1.3236,-1.3046,-1.2826,-1.1864,-1.0771,0.0,0.0,0.0,-0.6926,0.0,0.0,0.0,0.0,0.0,0.0,0.0,-0.6387,-0.6387,-0.6387,-0.6387,-0.6387,-0.6387,-0.6387,-0.6383,-0.6148,-0.5514,-0.4646,-0.3551,-0.3084,-0.2748,-0.1511,-0.1109,-0.1109,-0.1109,-0.1109,-0.1109,-0.1109,-0.1109,-0.1109,-0.1109,-0.1109,-0.1109,-0.1109,-0.1109,-0.1109,-0.1109,-0.1109,-0.0975,-0.0538,-0.047,-0.0302,0.0235,0.0437,0.0504,0.0,0.0,0.0672,0.0,0.0,0.0,0.1546,0.1879,0.2281,0.2753,0.2488,0.2287,0.2188,0.2188,0.2221,0.2287,0.2221,0.2244,0.2293,0.2298,0.2322,0.2363,0.232,0.2299,0.2299,0.2285,0.2287,0.2304,0.2446,0.2499,0.2511,0.2511,0.2235,0.1725,0.0903,0.0314,-0.0196,-0.1021,-0.1296,-0.1296,0.0,0.0,0.0,0.0,0.0,-1.3492,-1.3492,-1.3492,-1.3492,-1.3492,-1.3492,-1.3492,-1.3492,-1.3492,-1.3492,-1.3492,-1.3492,-1.3492,-1.3492,-1.3346,-1.3236,-1.3236,-1.3046,-1.282,-1.2636,-1.1633,-1.0623,0.0,0.0,-0.7724,-0.6735,0.0,0.0,0.0,0.0,-0.6387,-0.6387,-0.6387,-0.6387,-0.6387,-0.6387,-0.6387,-0.6387,-0.6387,-0.6387,-0.6284,-0.5315,-0.4882,-0.4547,-0.2813,-0.2213,-0.2079,-0.1344,-0.1109,-0.1109,-0.1109,-0.1109,-0.1109,-0.1109,-0.1109,-0.1109,-0.1109,-0.1109,-0.1109,-0.1109,-0.1109,-0.1109,-0.1109,-0.1109,-0.1076,-0.1042,-0.1008,-0.084,-0.0302,0.0168,0.0504,0.0,0.0,0.121,0.121,0.0,0.0,0.2485,0.2618,0.2787,0.3125,0.2855,0.252,0.2221,0.2188,0.2354,0.2653,0.2354,0.2357,0.2663,0.2419,0.2301,0.2307,0.2301,0.2299,0.2297,0.2242,0.2248,0.2303,0.2363,0.2459,0.2511,0.2511,0.247,0.2314,0.1059,0.055,0.0353,-0.0864,-0.1296,-0.1296,0.0,0.0,0.0,0.0,0.0,0.0,0.0,-1.3492,-1.3492,-1.3492,-1.3492,-1.3492,-1.3492,-1.3492,-1.3492,-1.3492,-1.3492,-1.3492,-1.3492,-1.3309,-1.32,-1.32,-1.2725,-1.226,-1.1706,-1.0569,-0.9512,0.0,0.0,0.0,0.0,-0.6522,-0.6485,-0.6387,-0.6387,-0.6387,-0.6387,-0.6387,-0.6387,-0.6387,-0.6387,-0.6387,-0.6387,-0.6387,-0.6214,-0.5851,-0.5448,-0.458,-0.3547,-0.288,-0.2414,-0.198,-0.131,-0.1109,-0.1109,-0.1109,-0.1109,-0.1109,-0.1109,-0.1109,-0.1109,-0.1109,-0.1109,-0.1109,-0.1109,-0.1109,-0.1109,-0.1109,-0.1109,-0.1109,-0.1109,-0.084,-0.0538,-0.0336,0.0134,0.0504,0.0504,0.0,0.0,0.0807,0.0,0.1109,0.1781,0.2249,0.2619,0.2889,0.2956,0.2855,0.252,0.2487,0.2554,0.2686,0.2388,0.2354,0.2686,0.2451,0.2299,0.2299,0.2299,0.2299,0.2297,0.2237,0.226,0.2352,0.2448,0.2488,0.2511,0.2511,0.2511,0.2431,0.1529,0.0942,0.051,-0.0393,-0.0943,-0.1296,-1.3492,0.0,-1.3492,0.0,-1.3492,-1.3492,-1.3492,-1.3492,-1.3492,-1.3492,-1.3492,-1.3492,-1.3492,-1.3492,-1.3492,-1.3492,-1.3455,-1.3419,-1.3419,-1.3156,-1.301,-1.301,-1.2427,0.0,-1.1024,-0.9775,-0.8703,-0.7899,-0.7039,0.0,-0.6387,-0.6387,-0.6387,-0.6387,-0.6387,-0.6387,-0.6387,-0.6387,-0.6387,-0.6387,-0.6387,-0.6387,-0.6383,-0.6218,-0.5885,-0.5382,-0.4948,-0.3913,-0.2713,-0.2514,-0.2146,-0.1712,-0.1244,-0.1109,-0.1109,-0.1109,-0.1109,-0.1109,-0.1109,-0.1109,-0.1109,-0.1109,-0.1109,-0.1109,-0.1109,-0.1109,-0.1042,-0.0908,-0.0874,-0.0807,-0.0672,-0.0336,0.0,0.0134,0.0504,0.0806,0.0975,0.1008,0.0,0.1141,0.1142,0.131,0.168,0.2284,0.2653,0.2686,0.3123,0.3224,0.2855,0.2753,0.2753,0.2855,0.2421,0.2354,0.2686,0.2451,0.2299,0.2299,0.2299,0.2299,0.2297,0.2255,0.228,0.2362,0.2477,0.2511,0.2511,0.2511,0.2511,0.2431,0.1842,0.1294,0.0785,0.0,-0.0589,-0.1021,-1.3492,-1.3492,-1.3492,-1.3492,-1.3492,-1.3492,-1.3492,-1.3492,-1.3492,-1.3492,-1.3492,-1.3492,-1.3492,-1.3492,-1.3492,-1.3492,-1.3309,-1.32,-1.32,-1.282,-1.2599,0.0,0.0,-1.1572,-1.0809,-0.9565,-0.857,-0.7899,0.0,0.0,-0.6387,-0.6387,-0.6387,-0.6387,-0.6387,-0.6387,-0.6387,-0.6387,-0.6387,-0.6387,-0.6387,-0.6387,-0.635,-0.5815,-0.5385,-0.4921,-0.3447,-0.2714,-0.2283,-0.1412,-0.1109,-0.1109,-0.1109,-0.1109,-0.1109,-0.1109,-0.1109,-0.1109,-0.1109,-0.1109,-0.1109,-0.1109,-0.1109,-0.1109,-0.1109,-0.1109,-0.0941,-0.0403,-0.0302,-0.0134,0.037,0.047,0.0672,0.121,0.1277,0.1513,0.2087,0.2188,0.0,0.2619,0.2686,0.2686,0.2686,0.2989,0.3058,0.272,0.3389,0.3625,0.3226,0.2889,0.2855,0.3192,0.2557,0.2354,0.2686,0.2451,0.2299,0.2299,0.2299,0.2299,0.2299,0.2299,0.2299,0.2307,0.2461,0.2511,0.2511,0.2511,0.2511,0.2431,0.1842,0.1607,0.145,0.0157,-0.0314,-0.0393,-1.3492,-1.3492,-1.3492,-1.3492,-1.3492,-1.3492,-1.3492,-1.3382,-1.3309,-1.3309,-1.32,-1.3083,-1.3083,-1.32,-1.3236,0.0,-1.3046,-1.301,0.0,-1.2746,-1.2599,-1.2599,-1.162,-1.07,-0.9873,-0.8698,-0.7697,-0.6864,-0.6544,-0.6387,-0.6387,-0.6387,-0.6387,-0.6387,-0.6387,-0.6387,-0.6387,-0.6387,-0.6387,-0.6387,-0.6387,-0.6387,-0.635,-0.5815,-0.515,-0.4453,-0.3618,-0.2683,-0.1814,-0.1546,-0.1277,-0.1109,-0.1109,-0.1109,-0.1109,-0.1109,-0.1109,-0.1109,-0.1109,-0.1109,-0.1109,-0.1109,-0.1109,-0.1109,-0.1109,-0.1109,-0.0941,-0.0403,-0.0605,-0.0571,0.0336,0.0504,0.0672,0.121,0.1648,0.1985,0.2188,0.2188,0.2255,0.2354,0.2354,0.2354,0.2354,0.2857,0.3159,0.3058,0.3727,0.3863,0.3228,0.3357,0.3489,0.3591,0.3125,0.3058,0.3456,0.3136,0.2901,0.2696,0.2899,0.2845,0.259,0.2652,0.2552,0.2305,0.2459,0.2511,0.2511,0.2511,0.2511,0.247,0.2275,0.196,0.1489,0.0628,0.0039,-0.0393,-1.3675,-1.3777,-1.3895,-1.3895,-1.3783,-1.3745,-1.3745,-1.345,-1.326,-1.326,-1.3043,-1.2863,-1.2783,-1.29,-1.2936,-1.29,-1.282,-1.279,-1.279,-1.2599,-1.2489,-1.2489,-1.1331,-1.0313,-0.9512,-0.8295,-0.7306,-0.6513,-0.6448,-0.6387,-0.6387,-0.6387,-0.6387,-0.6387,-0.6387,-0.6387,-0.6387,-0.6387,-0.6387,-0.6387,-0.6387,-0.6284,-0.605,-0.5514,-0.4749,-0.392,-0.3255,-0.2418,-0.158,-0.1446,-0.1277,-0.1109,-0.1109,-0.1109,-0.1109,-0.1109,-0.1109,-0.1109,-0.1109,-0.1109,-0.1109,-0.1109,-0.1109,-0.1109,-0.1109,-0.1109,-0.0908,-0.0168,-0.0269,-0.0168,0.0941,0.1143,0.1244,0.158,0.1951,0.2188,0.2188,0.2188,0.2255,0.2388,0.2488,0.2589,0.2589,0.3092,0.336,0.3226,0.3763,0.3894,0.346,0.3658,0.3792,0.3792,0.3426,0.3326,0.3558,0.3452,0.3295,0.3129,0.3293,0.3136,0.2725,0.2985,0.2842,0.2305,0.2614,0.2628,0.2511,0.2511,0.2511,0.2511,0.2511,0.2275,0.1843,0.1216,0.0589,-0.0039,-1.4011,-1.4298,-1.4504,-1.4472,-1.4262,-1.4098,-1.4098,-1.3628,-1.3279,-1.3279,-1.3052,-1.279,-1.2599,-1.2562,-1.2636,-1.2826,-1.2673,-1.2562,-1.2562,-1.2415,-1.2305,-1.2305,-1.124,-1.034,-0.9628,-0.8324,-0.7357,-0.671,-0.6513,-0.6399,-0.6387,-0.6387,-0.6387,-0.6387,-0.6387,-0.6387,-0.6387,-0.6387,-0.6383,-0.635,-0.635,-0.6017,-0.5481,-0.4948,-0.4217,-0.3387,-0.2522,-0.1951,-0.1547,-0.121,-0.1109,-0.1109,-0.1109,-0.1109,-0.1109,-0.1109,-0.1109,-0.1109,-0.1109,-0.1109,-0.1109,-0.1109,-0.1109,-0.1109,-0.1109,-0.1076,-0.0739,0.0302,0.0504,0.084,0.1985,0.2154,0.2154,0.2188,0.2188,0.2188,0.2188,0.2188,0.2321,0.2653,0.2989,0.3159,0.3192,0.3558,0.3658,0.3259,0.3627,0.3825,0.3825,0.3825,0.3825,0.3825,0.346,0.3259,0.3259,0.3466,0.3553,0.3553,0.3559,0.3254,0.2792,0.3295,0.3089,0.2377,0.2879,0.286,0.2511,0.2511,0.2511,0.2511,0.2511,0.2511,0.2431,0.1842,0.1216,0.0589,-1.4394,-1.4452,-1.4426,-1.4223,-1.4137,-1.4059,-1.3895,-1.3435,-1.3082,-1.3082,-1.2709,-1.2415,-1.2378,-1.2378,-1.2378,-1.2452,-1.2415,-1.2378,-1.2378,-1.2342,-1.2305,-1.2305,-1.0891,-0.9955,-0.9592,-0.8116,-0.7099,-0.671,-0.6643,-0.6558,-0.6387,-0.6387,-0.6387,-0.6387,-0.6387,-0.6387,-0.6387,-0.6387,-0.6152,-0.5782,-0.5782,-0.5481,-0.4915,-0.4389,-0.3889,-0.3387,-0.2522,-0.1951,-0.1547,-0.121,-0.1109,-0.1109,-0.1109,-0.1109,-0.1109,-0.1109,-0.1109,-0.1109,-0.1109,-0.1109,-0.1109,-0.1109,-0.1109,-0.1109,-0.1109,-0.0773,-0.0302,0.037,0.0504,0.084,0.1985,0.1817,0.1648,0.212,0.2188,0.2188,0.2188,0.2188,0.2321,0.2653,0.2753,0.2922,0.3159,0.3558,0.3758,0.3658,0.3995,0.4197,0.4197,0.4197,0.4197,0.4197,0.41,0.403,0.403,0.42,0.4264,0.4267,0.3999,0.3752,0.3527,0.3684,0.3357,0.2774,0.2938,0.2817,0.2511,0.2511,0.2511,0.2511,0.2511,0.2511,0.2431,0.1842,0.1489,0.1255,-1.4565,-1.4681,-1.4695,-1.4405,-1.4318,-1.4196,-1.4075,-1.362,-1.3224,-1.3128,-1.2768,-1.2452,-1.2318,-1.2305,-1.2305,-1.2305,-1.2305,-1.2305,-1.2305,-1.2305,-1.215,-1.1781,-1.0571,-0.9686,-0.9199,-0.7888,-0.7086,-0.6837,-0.6729,-0.6643,-0.6546,-0.6461,-0.6387,-0.6387,-0.6387,-0.6387,-0.6387,-0.6387,-0.6083,-0.5617,-0.5617,-0.5117,-0.4389,-0.4125,-0.3725,-0.3291,-0.2654,-0.2185,-0.1817,-0.1446,-0.1244,-0.1109,-0.1109,-0.1109,-0.1109,-0.1109,-0.1109,-0.1109,-0.1109,-0.1109,-0.1109,-0.1109,-0.0908,-0.0739,-0.0739,-0.0336,0.0202,0.0739,0.0874,0.1143,0.2018,0.1918,0.1817,0.2154,0.2188,0.2188,0.2188,0.2321,0.2487,0.2686,0.2987,0.3288,0.3458,0.3794,0.4028,0.4028,0.4197,0.43,0.43,0.43,0.43,0.43,0.43,0.43,0.43,0.4503,0.4588,0.4588,0.4406,0.4139,0.3794,0.4037,0.3761,0.317,0.3442,0.326,0.2787,0.302,0.2862,0.2511,0.2707,0.2668,0.247,0.2117,0.1842,0.1489,-1.4641,-1.4862,-1.4957,-1.4692,-1.4524,-1.4398,-1.4356,-1.3945,-1.35,-1.3253,-1.2978,-1.267,-1.2338,-1.2305,-1.2305,-1.2305,-1.2305,-1.2305,-1.2305,-1.2305,-1.1929,-1.1149,-1.0346,-0.9523,-0.8699,-0.7751,-0.7175,-0.7033,-0.6846,-0.6749,-0.6692,-0.6534,-0.6411,-0.6387,-0.6387,-0.6387,-0.6387,-0.6387,-0.605,-0.5484,-0.5484,-0.4821,-0.3894,-0.3894,-0.3594,-0.3159,-0.2755,-0.2453,-0.212,-0.1681,-0.1344,-0.1109,-0.1109,-0.1109,-0.1109,-0.1109,-0.1109,-0.1109,-0.1109,-0.1109,-0.1109,-0.1109,-0.0706,-0.0302,-0.0302,0.0168,0.0739,0.121,0.1379,0.158,0.212,0.2188,0.2188,0.2188,0.2255,0.2287,0.2287,0.2554,0.2787,0.2854,0.3422,0.3825,0.3859,0.4131,0.43,0.43,0.43,0.43,0.43,0.43,0.43,0.43,0.43,0.4317,0.4352,0.4608,0.4706,0.469,0.469,0.442,0.3894,0.4296,0.4132,0.3604,0.3985,0.3785,0.3219,0.3645,0.3333,0.2628,0.2982,0.2865,0.2511,0.2511,0.2156,0.1647,-1.4705,-1.4747,-1.4699,-1.4482,-1.4433,-1.4356,-1.4166,-1.3834,-1.35,-1.3253,-1.2978,-1.267,-1.2338,-1.2305,-1.2305,-1.2305,-1.2305,-1.2305,-1.2305,-1.2305,-1.1929,-1.1149,-1.0346,-0.9523,-0.8699,-0.7872,-0.7358,-0.7183,-0.7155,-0.6989,-0.6696,-0.6668,-0.657,-0.6387,-0.6387,-0.6387,-0.6387,-0.6387,-0.5815,-0.4915,-0.4915,-0.4287,-0.3326,-0.3326,-0.3259,-0.3125,-0.2488,-0.2255,-0.2087,-0.1412,-0.1143,-0.1109,-0.1109,-0.1109,-0.1109,-0.1109,-0.1109,-0.1109,-0.1109,-0.1109,-0.1109,-0.1109,-0.0706,-0.0302,-0.0302,0.047,0.121,0.1277,0.1715,0.2087,0.2188,0.2188,0.2188,0.2188,0.2453,0.2621,0.2621,0.2922,0.3259,0.3589,0.3725,0.3925,0.4197,0.4267,0.43,0.43,0.43,0.43,0.43,0.43,0.43,0.43,0.43,0.4395,0.4632,0.4735,0.4754,0.469,0.469,0.4529,0.4233,0.4286,0.4171,0.393,0.3983,0.3911,0.3684,0.3763,0.3491,0.3023,0.3062,0.2865,0.2511,0.2511,0.2431,0.2353,-1.4566,-1.4524,-1.4482,-1.4286,-1.4243,-1.4201,-1.413,-1.3968,-1.3721,-1.3267,-1.3086,-1.2819,-1.2351,-1.2305,-1.2305,-1.2305,-1.2305,-1.2114,-1.1669,-1.1632,-1.1292,-1.0501,-0.9674,-0.8884,-0.8055,-0.7672,-0.7443,-0.7366,-0.7269,-0.7106,-0.6976,-0.6786,-0.6647,-0.6554,-0.6461,-0.6387,-0.6387,-0.6387,-0.5951,-0.5216,-0.4915,-0.432,-0.3594,-0.3293,-0.3192,-0.3159,-0.2859,-0.2523,-0.2154,-0.1817,-0.1446,-0.1109,-0.1109,-0.1109,-0.1109,-0.1109,-0.1109,-0.1109,-0.1109,-0.1109,-0.1042,-0.0739,-0.0269,0.0202,0.0504,0.121,0.1783,0.1783,0.2018,0.2188,0.2188,0.2188,0.2255,0.2453,0.2586,0.2753,0.2956,0.3291,0.3591,0.3792,0.3961,0.4131,0.43,0.43,0.43,0.43,0.43,0.43,0.43,0.43,0.43,0.43,0.436,0.4509,0.4687,0.4773,0.4773,0.469,0.469,0.4564,0.43,0.43,0.4325,0.4364,0.4364,0.4269,0.4153,0.435,0.4077,0.3491,0.3724,0.3411,0.2826,0.2826,0.2668,0.247,-1.4363,-1.4321,-1.4279,-1.4124,-1.4088,-1.4088,-1.4088,-1.4088,-1.3901,-1.334,-1.3253,-1.3006,-1.2465,-1.2345,-1.2305,-1.2305,-1.212,-1.1855,-1.1409,-1.0844,-1.0282,-0.9636,-0.8846,-0.8131,-0.7522,-0.7484,-0.7484,-0.7484,-0.735,-0.7265,-0.7183,-0.6944,-0.6769,-0.671,-0.6542,-0.6461,-0.6387,-0.6387,-0.6017,-0.5382,-0.4981,-0.442,-0.3761,-0.336,-0.3192,-0.3192,-0.3125,-0.2757,-0.2287,-0.2119,-0.1681,-0.121,-0.1109,-0.1109,-0.1109,-0.1109,-0.1109,-0.1076,-0.0941,-0.1008,-0.0941,-0.0269,0.0202,0.0638,0.1176,0.1783,0.2188,0.2188,0.2188,0.2188,0.2188,0.2188,0.2287,0.2554,0.272,0.2922,0.3159,0.3627,0.3925,0.3925,0.4131,0.43,0.43,0.43,0.43,0.43,0.43,0.43,0.43,0.43,0.4314,0.4338,0.4487,0.4608,0.4731,0.4817,0.48,0.469,0.469,0.4564,0.43,0.43,0.4462,0.469,0.469,0.4638,0.4582,0.4859,0.4584,0.3958,0.4268,0.3917,0.3258,0.3258,0.3061,0.2705,-1.4124,-1.413,-1.413,-1.4088,-1.4088,-1.4088,-1.4088,-1.4088,-1.3975,-1.3613,-1.3333,-1.3086,-1.279,-1.2509,-1.2305,-1.2305,-1.1632,-1.1484,-1.215,-1.0126,-0.8851,-0.8775,-0.8016,-0.7557,-0.7484,-0.7484,-0.7484,-0.7484,-0.7472,-0.7382,-0.7187,-0.7163,-0.7009,-0.6692,-0.668,-0.6578,-0.6387,-0.6387,-0.5815,-0.4848,-0.4815,-0.4187,-0.3259,-0.3226,-0.3192,-0.3159,-0.2855,-0.272,-0.2552,-0.1883,-0.1614,-0.1513,-0.121,-0.1109,-0.1109,-0.1109,-0.1109,-0.1008,-0.0504,-0.0706,-0.084,0.0168,0.047,0.0638,0.1176,0.1783,0.2188,0.2188,0.2188,0.2188,0.2188,0.2188,0.2221,0.2221,0.2757,0.3159,0.3192,0.383,0.4267,0.4267,0.43,0.43,0.43,0.43,0.43,0.43,0.43,0.43,0.43,0.43,0.4349,0.449,0.461,0.4734,0.4782,0.4903,0.4885,0.469,0.469,0.4564,0.43,0.43,0.4462,0.469,0.469,0.4792,0.4976,0.4979,0.474,0.4345,0.4384,0.4151,0.3763,0.3763,0.3724,0.3645,-1.4088,-1.4088,-1.4088,-1.4088,-1.4088,-1.4088,-1.4088,-1.4088,-1.3981,-1.364,-1.3353,-1.3093,-1.2817,-1.2516,-1.2305,-1.2305,-1.2003,-1.1744,-1.1558,-1.0694,-0.9528,-0.8016,-0.7672,-0.7484,-0.7484,-0.7484,-0.7484,-0.7484,-0.7484,-0.7447,-0.7382,-0.7277,-0.7118,-0.7021,-0.6907,-0.6792,-0.6591,-0.6591,-0.6082,-0.5282,-0.4948,-0.4353,-0.3661,-0.3326,-0.3192,-0.3192,-0.3058,-0.2889,-0.2619,-0.2153,-0.1817,-0.1547,-0.121,-0.1109,-0.1109,-0.1109,-0.1109,-0.0908,-0.0034,-0.0202,-0.0336,0.0739,0.1008,0.1143,0.1715,0.2018,0.2188,0.2188,0.2188,0.2188,0.2188,0.2188,0.2322,0.2757,0.3027,0.3362,0.383,0.4133,0.43,0.43,0.43,0.43,0.43,0.43,0.43,0.43,0.43,0.43,0.43,0.4368,0.4496,0.4689,0.4741,0.4787,0.4795,0.4917,0.4896,0.469,0.469,0.4564,0.43,0.43,0.4462,0.469,0.469,0.4829,0.5018,0.5018,0.4898,0.4779,0.4779,0.4543,0.419,0.419,0.3995,0.3763,-1.4088,-1.4088,-1.4088,-1.4088,-1.4088,-1.4088,-1.4088,-1.4088,-1.4015,-1.3808,-1.3447,-1.3126,-1.2951,-1.2538,-1.2305,-1.2305,-1.2077,-1.1781,-1.1484,-1.0993,-0.9863,-0.7978,-0.7863,-0.7753,-0.7522,-0.7484,-0.7456,-0.7403,-0.7403,-0.7403,-0.7399,-0.7281,-0.7187,-0.7183,-0.7094,-0.6975,-0.6773,-0.6544,-0.6067,-0.5383,-0.4803,-0.4223,-0.3694,-0.3326,-0.3192,-0.3192,-0.3192,-0.3058,-0.2788,-0.2356,-0.2018,-0.1715,-0.1244,-0.1109,-0.1109,-0.1109,-0.0975,-0.0638,0.0269,0.037,0.0437,0.1344,0.1446,0.1446,0.2052,0.2188,0.2188,0.2188,0.2188,0.2188,0.2188,0.2188,0.2356,0.2824,0.3058,0.3393,0.3897,0.4167,0.43,0.43,0.43,0.43,0.43,0.43,0.43,0.43,0.43,0.4317,0.4352,0.4501,0.4659,0.479,0.4833,0.4855,0.4855,0.4936,0.4896,0.469,0.469,0.4564,0.43,0.43,0.4409,0.4635,0.4673,0.4805,0.4922,0.5002,0.5018,0.5018,0.5018,0.4818,0.4582,0.4582,0.4426,0.4155,-1.4088,-1.4088,-1.4088,-1.4088,-1.4088,-1.4088,-1.4088,-1.4088,-1.4088,-1.4088,-1.3574,-1.3213,-1.3213,-1.2665,-1.2305,-1.2305,-1.1558,-1.1446,-1.2268,-1.0795,-0.9561,-0.8742,-0.8703,-0.8322,-0.7522,-0.7484,-0.7399,-0.7191,-0.7187,-0.7187,-0.7187,-0.7187,-0.7187,-0.7187,-0.7191,-0.7127,-0.6944,-0.6209,-0.5583,-0.5048,-0.431,-0.3696,-0.3194,-0.3192,-0.3192,-0.3192,-0.3192,-0.3192,-0.3092,-0.2423,-0.2188,-0.2087,-0.1344,-0.1109,-0.1109,-0.1109,-0.0739,-0.0202,0.0336,0.0874,0.1446,0.2052,0.1749,0.148,0.2052,0.2188,0.2188,0.2188,0.2188,0.2188,0.2188,0.2188,0.2188,0.2188,0.2757,0.3192,0.3192,0.383,0.43,0.43,0.43,0.43,0.43,0.43,0.43,0.43,0.4303,0.4352,0.4501,0.4703,0.4795,0.4798,0.4914,0.5018,0.5018,0.5015,0.4893,0.469,0.4687,0.4564,0.43,0.43,0.4363,0.4512,0.4635,0.4722,0.4806,0.4928,0.5018,0.5018,0.5018,0.5018,0.5018,0.5018,0.5018,0.4937,-1.4088,-1.4088,-1.4088,-1.4088,-1.4088,-1.4088,-1.4088,-1.4088,-1.4088,-1.4088,-1.3754,-1.34,-1.3233,-1.2852,-1.2563,-1.2318,-1.2077,-1.204,-1.2268,-1.1329,-1.0389,-0.9561,-0.8466,-0.7748,-0.7522,-0.7484,-0.7456,-0.7407,-0.7285,-0.7187,-0.7187,-0.7187,-0.7187,-0.7191,-0.7354,-0.7309,-0.7102,-0.6459,-0.5794,-0.5119,-0.4434,-0.3804,-0.3316,-0.325,-0.3192,-0.3192,-0.3192,-0.3192,-0.3092,-0.2423,-0.2188,-0.2087,-0.1344,-0.1109,-0.1109,-0.1109,-0.0975,-0.0739,-0.0202,0.0336,0.0975,0.1951,0.2053,0.1985,0.2154,0.2188,0.2188,0.2188,0.2188,0.2188,0.2188,0.2188,0.2287,0.252,0.2721,0.3021,0.3558,0.3825,0.4028,0.4267,0.43,0.43,0.43,0.43,0.43,0.43,0.4374,0.451,0.4716,0.4758,0.4836,0.492,0.4996,0.5018,0.5018,0.4893,0.4809,0.4687,0.4602,0.4482,0.43,0.43,0.4363,0.4512,0.4635,0.4722,0.4806,0.4928,0.5018,0.5018,0.5018,0.5018,0.5018,0.5018,0.5018,0.4979,-1.4088,-1.4088,-1.4088,-1.4088,-1.4088,-1.4088,-1.4088,-1.4088,-1.4088,-1.4088,-1.3828,-1.3493,-1.324,-1.2971,-1.2663,-1.2325,-1.2305,-1.2305,-1.2305,-1.1254,-1.0426,-0.9927,-0.8351,-0.7484,-0.7484,-0.7484,-0.7447,-0.7382,-0.7277,-0.7187,-0.7187,-0.7151,-0.7192,-0.733,-0.7366,-0.7211,-0.6912,-0.6271,-0.56,-0.4893,-0.4204,-0.3737,-0.3443,-0.3316,-0.3281,-0.3277,-0.3206,-0.3192,-0.3092,-0.2423,-0.2018,-0.1681,-0.1244,-0.1109,-0.1109,-0.1109,-0.0941,-0.0706,-0.0403,0.0235,0.0975,0.1681,0.2018,0.2188,0.2188,0.2188,0.2188,0.2188,0.2188,0.2188,0.2188,0.2188,0.2255,0.2453,0.2621,0.2887,0.3491,0.3692,0.3928,0.4267,0.43,0.43,0.43,0.43,0.4319,0.4363,0.452,0.4678,0.4787,0.4841,0.4903,0.5015,0.5018,0.5018,0.5018,0.4847,0.4724,0.4687,0.4564,0.4446,0.43,0.43,0.4338,0.4446,0.4616,0.4731,0.4776,0.4947,0.5018,0.5018,0.5018,0.5018,0.5018,0.5018,0.5018,0.5018,-1.4088,-1.4088,-1.4088,-1.4088,-1.4088,-1.4088,-1.4088,-1.4088,-1.4088,-1.4088,-1.3848,-1.3533,-1.328,-1.3012,-1.2703,-1.2365,-1.2318,-1.2268,-1.2187,-1.0757,-0.9857,-0.9782,-0.8313,-0.7484,-0.7484,-0.7484,-0.7407,-0.7211,-0.7199,-0.7187,-0.7183,-0.7094,-0.7188,-0.7452,-0.7218,-0.6945,-0.6553,-0.5742,-0.5093,-0.4535,-0.3804,-0.3511,-0.3501,-0.3447,-0.3412,-0.3399,-0.3281,-0.3212,-0.3103,-0.2458,-0.1749,-0.1143,-0.1176,-0.1143,-0.1109,-0.1143,-0.0773,-0.037,-0.037,0.037,0.1176,0.121,0.1681,0.212,0.2188,0.2188,0.2188,0.2188,0.2188,0.2188,0.2188,0.2188,0.2188,0.2188,0.2453,0.2788,0.3159,0.3527,0.3894,0.4267,0.43,0.4306,0.4314,0.4325,0.4379,0.4528,0.4708,0.4801,0.4812,0.4917,0.5018,0.5018,0.5018,0.5012,0.4999,0.4805,0.469,0.4687,0.4553,0.4435,0.43,0.43,0.43,0.4314,0.4586,0.469,0.4709,0.4917,0.5018,0.5018,0.5018,0.5018,0.5018,0.5018,0.5018,0.5018,-1.4088,-1.4088,-1.4088,-1.4088,-1.4088,-1.4088,-1.4088,-1.4088,-1.4088,-1.4088,-1.4035,-1.3874,-1.354,-1.3287,-1.2986,-1.2717,-1.2438,-1.204,-1.1409,-1.0426,-0.9631,-0.8998,-0.8012,-0.7484,-0.7484,-0.7484,-0.7464,-0.7427,-0.7293,-0.7187,-0.7187,-0.7188,-0.7208,-0.724,-0.679,-0.6602,-0.6511,-0.5295,-0.4733,-0.4614,-0.3862,-0.3562,-0.3589,-0.3503,-0.3471,-0.3467,-0.3448,-0.3395,-0.3289,-0.2776,-0.2118,-0.1547,-0.185,-0.158,-0.1143,-0.1412,-0.121,-0.0941,-0.0941,-0.0437,0.0134,0.0571,0.1076,0.1614,0.2087,0.2188,0.2188,0.2188,0.2188,0.2188,0.2188,0.2188,0.2188,0.2188,0.2255,0.2522,0.3125,0.3259,0.356,0.4233,0.43,0.4336,0.446,0.4555,0.4662,0.4746,0.4769,0.4839,0.4933,0.5002,0.5018,0.5018,0.5018,0.4933,0.4836,0.4764,0.469,0.4687,0.4473,0.4325,0.43,0.43,0.43,0.4314,0.4586,0.469,0.4709,0.4917,0.5018,0.5018,0.5018,0.5018,0.5018,0.5018,0.5018,0.5018,-1.4088,-1.4088,-1.4088,-1.4088,-1.4088,-1.4088,-1.4088,-1.4088,-1.4088,-1.4088,-1.4088,-1.3975,-1.3633,-1.3467,-1.324,-1.2824,-1.2135,-1.1558,-1.1149,-0.9976,-0.915,-0.8699,-0.794,-0.7484,-0.7484,-0.7484,-0.7484,-0.7484,-0.7395,-0.7346,-0.7346,-0.7227,-0.7269,-0.7308,-0.6656,-0.6256,-0.6047,-0.5057,-0.4491,-0.4226,-0.3866,-0.3691,-0.3681,-0.3593,-0.356,-0.3554,-0.3516,-0.3361,-0.3169,-0.2914,-0.2445,-0.2026,-0.2237,-0.2026,-0.1712,-0.1713,-0.1574,-0.1399,-0.1189,-0.0524,0.021,0.0489,0.1154,0.1842,0.2132,0.2188,0.2188,0.2188,0.2188,0.2188,0.2188,0.2188,0.2188,0.2188,0.2188,0.24,0.2942,0.3016,0.3305,0.4079,0.4156,0.4281,0.455,0.4703,0.4765,0.4793,0.4852,0.4911,0.5015,0.5018,0.5018,0.5018,0.4922,0.486,0.4795,0.4656,0.4602,0.4599,0.4384,0.43,0.43,0.43,0.43,0.4314,0.4586,0.469,0.4709,0.4917,0.5018,0.5018,0.5018,0.5018,0.5018,0.5018,0.5018,0.5018,-1.4088,-1.4088,-1.4088,-1.4088,-1.4088,-1.4088,-1.4088,-1.4088,-1.4088,-1.4088,-1.4088,-1.3995,-1.3706,-1.3586,-1.3347,-1.2831,-1.1759,-1.1031,-1.0881,-0.9528,-0.8627,-0.8513,-0.7863,-0.7484,-0.7484,-0.7484,-0.7484,-0.7484,-0.7484,-0.7484,-0.748,-0.7338,-0.7271,-0.7322,-0.6502,-0.5913,-0.5389,-0.4792,-0.4254,-0.3802,-0.3802,-0.3802,-0.3793,-0.3679,-0.3648,-0.364,-0.3571,-0.3349,-0.3114,-0.3101,-0.284,-0.2511,-0.2584,-0.2511,-0.233,-0.1858,-0.1677,-0.1531,-0.1021,-0.0146,0.0656,0.0729,0.1459,0.2164,0.2207,0.2219,0.2219,0.2219,0.2219,0.2219,0.2219,0.2219,0.2219,0.2219,0.2219,0.2373,0.2775,0.2819,0.3126,0.3919,0.4092,0.4283,0.4683,0.4795,0.4828,0.4828,0.492,0.5018,0.5018,0.5018,0.5007,0.4985,0.4849,0.4777,0.4736,0.4569,0.4495,0.4473,0.4346,0.43,0.43,0.43,0.43,0.4314,0.4586,0.469,0.4709,0.4917,0.5018,0.5018,0.5018,0.5018,0.5018,0.5018,0.5018,0.5018,-1.4088,-1.4088,-1.4088,-1.4088,-1.4088,-1.4088,-1.4088,-1.4088,-1.4088,-1.4088,-1.4088,-1.4075,-1.4035,-1.3574,-1.3126,-1.2817,-1.1759,-1.0807,-1.0121,-0.9188,-0.8399,-0.771,-0.7561,-0.7484,-0.7484,-0.7484,-0.7484,-0.7484,-0.7484,-0.7484,-0.7484,-0.746,-0.7195,-0.6672,-0.5934,-0.5307,-0.4771,-0.4058,-0.3766,-0.3802,-0.3802,-0.3802,-0.3802,-0.3789,-0.3783,-0.3781,-0.3771,-0.3639,-0.3523,-0.3451,-0.3207,-0.2987,-0.3243,-0.2913,-0.2292,-0.1637,-0.1238,-0.0802,0.0182,0.0546,0.0802,0.1276,0.1495,0.1711,0.2169,0.2275,0.2275,0.2275,0.2275,0.2275,0.2275,0.2275,0.2275,0.2275,0.2275,0.2422,0.2825,0.2897,0.3154,0.3928,0.4414,0.4734,0.4774,0.4882,0.4991,0.4991,0.5007,0.5018,0.5018,0.5018,0.493,0.4825,0.4804,0.4732,0.4555,0.4523,0.4454,0.4322,0.4308,0.43,0.43,0.43,0.43,0.4314,0.4586,0.469,0.4709,0.4917,0.5018,0.5018,0.5018,0.5018,0.5018,0.5018,0.5018,0.5018,-1.4088,-1.4088,-1.4088,-1.4088,-1.4088,-1.4088,-1.4088,-1.4088,-1.4088,-1.4088,-1.4088,-1.4088,-1.4088,-1.3707,-1.3127,-1.2426,-1.1319,-1.0269,-0.9306,-0.847,-0.7863,-0.7522,-0.7484,-0.7484,-0.7484,-0.7484,-0.7484,-0.7484,-0.7484,-0.7484,-0.7484,-0.7484,-0.7176,-0.656,-0.587,-0.5224,-0.4657,-0.399,-0.3765,-0.3802,-0.3802,-0.3802,-0.3802,-0.3802,-0.3802,-0.3802,-0.3802,-0.3775,-0.3697,-0.3661,-0.3571,-0.3457,-0.3608,-0.3455,-0.2959,-0.1858,-0.1404,-0.1026,0.0304,0.0912,0.1253,0.1481,0.1824,0.2128,0.2357,0.2395,0.2377,0.2312,0.2299,0.2299,0.2299,0.2299,0.2299,0.2299,0.2299,0.2383,0.2598,0.2827,0.3254,0.4129,0.4635,0.4898,0.4898,0.4947,0.5018,0.5018,0.5018,0.5018,0.5018,0.4914,0.4852,0.4798,0.4703,0.458,0.4506,0.444,0.4349,0.43,0.43,0.43,0.43,0.43,0.43,0.4314,0.4586,0.469,0.4709,0.4917,0.5018,0.5018,0.5018,0.5018,0.5018,0.5018,0.5018,0.5018]}]]